[[{"header":{"parameterUnit":"m.s-1","parameterCategory":1,"la1":30.6,"la2":29.2853,"lo1":-89.7004,"lo2":-87.6739,"dy":0.0162,"dx":0.0183,"nx":112,"ny":82,"refTime":"2023-09-13T00:00:00:Z","depth":0,"parameterNumber":2,"parameterNumberName":"U-component_of_WINDS"},"data":[0.0,0.0,0.0,0.0,0.0,0.0,0.0,0.0,0.0,0.0,0.0,0.0,0.0,0.0,0.0,0.0,0.0,0.0,0.0,0.0,0.0,0.0,0.0,0.0,0.0,0.0,0.0,0.0,0.0,0.0,0.0,0.0,0.0,0.0,0.0,0.0,0.0,0.0,0.0,0.0,0.0,0.0,0.0,0.0,0.0,0.0,0.0,0.0,0.0,0.0,0.0,0.0,0.0,0.0,0.0,0.0,0.0,0.0,0.0,0.0,0.0,0.0,0.0,0.0,0.0,0.0,0.0,0.0,0.0,0.0,0.0,0.0,0.0,0.0,0.0,0.0,0.0,0.0,0.0,0.0,0.0,0.0,0.0,0.0,0.0,0.0,0.0,0.0,0.0,0.0,2.3057,2.4801,2.5662,2.6052,2.5902,2.5902,2.5102,2.323,0.0,0.0,0.0,0.0,0.0,0.0,0.0,0.0,0.0,0.0,0.0,0.0,0.0,0.0,0.0,0.0,0.0,0.0,0.0,0.0,0.0,0.0,0.0,0.0,0.0,0.0,0.0,0.0,0.0,0.0,0.0,0.0,0.0,0.0,0.0,0.0,0.0,0.0,0.0,0.0,0.0,0.0,0.0,0.0,0.0,0.0,0.0,0.0,0.0,0.0,0.0,0.0,0.0,0.0,0.0,0.0,0.0,0.0,0.0,0.0,0.0,0.0,0.0,0.0,0.0,0.0,0.0,0.0,0.0,0.0,0.0,0.0,0.0,0.0,0.0,0.0,0.0,0.0,0.0,0.0,0.0,0.0,0.0,0.0,0.0,0.0,0.0,0.0,0.0,0.0,0.0,0.0,0.0,0.0,0.0,0.0,0.0,0.0,0.0,0.0,0.0,0.0,0.0,0.0,2.5698,2.7449,2.7792,2.7618,2.6876,2.68,2.575,2.3255,0.0,0.0,0.0,0.0,0.0,0.0,0.0,0.0,0.0,0.0,0.0,0.0,0.0,0.0,0.0,0.0,0.0,0.0,0.0,0.0,0.0,0.0,0.0,0.0,0.0,0.0,0.0,0.0,0.0,0.0,0.0,0.0,0.0,0.0,0.0,0.0,0.0,0.0,0.0,0.0,0.0,0.0,0.0,0.0,0.0,0.0,0.0,0.0,0.0,0.0,0.0,0.0,0.0,0.0,0.0,0.0,0.0,0.0,0.0,0.0,0.0,0.0,0.0,0.0,0.0,0.0,0.0,0.0,0.0,0.0,0.0,0.0,0.0,0.0,0.0,0.0,0.0,0.0,0.0,0.0,0.0,0.0,0.0,0.0,0.0,0.0,0.0,0.0,0.0,0.0,0.0,0.0,0.0,0.0,0.0,0.0,0.0,0.0,0.0,0.0,0.0,0.0,0.0,2.572,2.7325,2.8164,2.8273,2.8142,2.7735,2.7698,2.678,2.4647,2.4037,0.0,0.0,0.0,0.0,0.0,0.0,0.0,0.0,0.0,0.0,0.0,0.0,0.0,0.0,0.0,0.0,0.0,0.0,0.0,0.0,0.0,0.0,0.0,0.0,0.0,0.0,0.0,0.0,0.0,0.0,0.0,0.0,0.0,0.0,0.0,0.0,0.0,0.0,0.0,0.0,0.0,0.0,0.0,0.0,0.0,0.0,0.0,0.0,0.0,0.0,0.0,0.0,0.0,0.0,0.0,0.0,0.0,0.0,0.0,0.0,0.0,0.0,0.0,0.0,0.0,0.0,0.0,0.0,0.0,0.0,0.0,0.0,0.0,0.0,0.0,0.0,0.0,0.0,0.0,0.0,0.0,0.0,0.0,0.0,0.0,0.0,0.0,0.0,0.0,0.0,0.0,0.0,0.0,0.0,0.0,0.0,0.0,0.0,0.0,0.0,0.0,0.0,2.7401,2.8379,2.8845,2.8891,2.8823,2.8613,2.8602,2.7774,2.58,2.4987,0.0,0.0,0.0,0.0,0.0,0.0,0.0,0.0,0.0,0.0,0.0,0.0,0.0,0.0,0.0,0.0,0.0,0.0,0.0,0.0,0.0,0.0,0.0,0.0,0.0,0.0,0.0,0.0,0.0,0.0,0.0,0.0,0.0,0.0,0.0,0.0,0.0,0.0,0.0,0.0,0.0,0.0,0.0,0.0,0.0,0.0,0.0,0.0,0.0,0.0,0.0,0.0,0.0,0.0,0.0,0.0,0.0,0.0,0.0,0.0,0.0,0.0,0.0,0.0,0.0,0.0,0.0,0.0,0.0,0.0,0.0,0.0,0.0,0.0,0.0,0.0,0.0,0.0,0.0,0.0,0.0,0.0,0.0,0.0,0.0,0.0,0.0,0.0,0.0,0.0,0.0,0.0,0.0,0.0,0.0,0.0,0.0,0.0,0.0,0.0,0.0,0.0,2.812,2.8823,3.0445,3.0683,3.0389,2.9589,2.9508,2.8387,2.5779,2.5495,0.0,0.0,0.0,0.0,0.0,0.0,0.0,0.0,0.0,0.0,0.0,0.0,0.0,0.0,0.0,0.0,0.0,0.0,0.0,0.0,0.0,0.0,0.0,0.0,0.0,0.0,0.0,0.0,0.0,0.0,0.0,0.0,0.0,0.0,0.0,0.0,0.0,0.0,0.0,0.0,0.0,0.0,0.0,0.0,0.0,0.0,0.0,0.0,0.0,0.0,0.0,0.0,0.0,0.0,0.0,0.0,0.0,0.0,0.0,0.0,0.0,0.0,0.0,0.0,0.0,0.0,0.0,0.0,0.0,0.0,0.0,0.0,0.0,0.0,0.0,0.0,0.0,0.0,0.0,0.0,0.0,0.0,0.0,0.0,0.0,0.0,0.0,0.0,0.0,0.0,0.0,0.0,0.0,0.0,0.0,0.0,0.0,0.0,0.0,0.0,0.0,0.0,2.9107,3.004,0.0,3.082,3.0712,3.045,3.0407,2.9482,2.7301,0.0,0.0,0.0,0.0,0.0,0.0,0.0,0.0,0.0,0.0,0.0,0.0,0.0,0.0,0.0,0.0,0.0,0.0,0.0,0.0,0.0,0.0,0.0,0.0,0.0,0.0,0.0,0.0,0.0,0.0,0.0,0.0,0.0,0.0,0.0,0.0,0.0,0.0,0.0,0.0,0.0,0.0,0.0,0.0,0.0,0.0,0.0,0.0,0.0,0.0,0.0,0.0,0.0,0.0,0.0,0.0,0.0,0.0,0.0,0.0,0.0,0.0,0.0,0.0,0.0,0.0,0.0,0.0,0.0,0.0,0.0,0.0,0.0,0.0,0.0,0.0,0.0,0.0,0.0,0.0,0.0,0.0,0.0,0.0,0.0,0.0,0.0,0.0,0.0,0.0,0.0,0.0,0.0,0.0,0.0,0.0,0.0,0.0,0.0,0.0,0.0,0.0,2.8202,2.9652,3.0729,0.0,3.08,3.0835,3.0889,3.0897,3.0108,2.8218,0.0,0.0,0.0,0.0,0.0,0.0,0.0,0.0,0.0,0.0,0.0,0.0,0.0,0.0,0.0,0.0,0.0,0.0,0.0,0.0,0.0,0.0,0.0,0.0,0.0,0.0,0.0,0.0,0.0,0.0,0.0,0.0,0.0,0.0,0.0,0.0,0.0,0.0,0.0,0.0,0.0,0.0,0.0,0.0,0.0,0.0,0.0,0.0,0.0,0.0,0.0,0.0,0.0,0.0,0.0,0.0,0.0,0.0,0.0,0.0,0.0,0.0,0.0,0.0,0.0,0.0,0.0,0.0,0.0,0.0,0.0,0.0,0.0,0.0,0.0,0.0,0.0,0.0,0.0,0.0,0.0,0.0,0.0,0.0,0.0,0.0,0.0,0.0,0.0,0.0,0.0,0.0,0.0,0.0,0.0,0.0,0.0,0.0,0.0,0.0,0.0,0.0,2.82,2.9666,3.0739,3.0781,3.079,3.0838,3.0898,3.0898,3.009,0.0,0.0,0.0,0.0,0.0,0.0,0.0,0.0,0.0,0.0,0.0,0.0,0.0,0.0,0.0,0.0,0.0,0.0,0.0,0.0,0.0,0.0,0.0,0.0,0.0,0.0,0.0,0.0,0.0,0.0,0.0,0.0,0.0,0.0,0.0,0.0,0.0,0.0,0.0,0.0,0.0,0.0,0.0,0.0,0.0,0.0,0.0,0.0,0.0,0.0,0.0,0.0,0.0,0.0,0.0,0.0,0.0,0.0,0.0,0.0,0.0,0.0,0.0,0.0,0.0,0.0,0.0,0.0,0.0,0.0,0.0,0.0,0.0,0.0,0.0,0.0,0.0,0.0,0.0,0.0,0.0,0.0,0.0,0.0,0.0,0.0,0.0,0.0,0.0,0.0,0.0,0.0,0.0,0.0,0.0,0.0,0.0,0.0,0.0,0.0,0.0,0.0,0.0,2.8117,2.9649,3.071,3.0741,3.0768,3.08,3.0831,3.0829,3.0037,2.8143,0.0,0.0,0.0,0.0,0.0,0.0,0.0,0.0,0.0,0.0,0.0,0.0,0.0,0.0,0.0,0.0,0.0,0.0,0.0,0.0,0.0,0.0,0.0,0.0,0.0,0.0,0.0,0.0,0.0,0.0,0.0,0.0,0.0,0.0,0.0,0.0,0.0,0.0,0.0,0.0,0.0,0.0,0.0,0.0,0.0,0.0,0.0,0.0,0.0,0.0,0.0,0.0,0.0,0.0,0.0,0.0,0.0,0.0,0.0,0.0,0.0,0.0,0.0,0.0,0.0,0.0,0.0,0.0,0.0,0.0,0.0,0.0,0.0,0.0,0.0,0.0,0.0,0.0,0.0,0.0,0.0,0.0,0.0,0.0,0.0,0.0,0.0,0.0,0.0,0.0,0.0,0.0,0.0,0.0,0.0,0.0,0.0,0.0,0.0,0.0,0.0,0.0,2.8133,2.9654,3.07,3.0711,3.075,3.0779,3.0799,3.0813,3.0197,2.8689,0.0,0.0,0.0,0.0,0.0,0.0,0.0,0.0,0.0,0.0,0.0,0.0,0.0,0.0,0.0,0.0,0.0,0.0,0.0,0.0,0.0,0.0,0.0,0.0,0.0,0.0,0.0,0.0,0.0,0.0,0.0,0.0,0.0,0.0,0.0,0.0,0.0,0.0,0.0,0.0,0.0,0.0,0.0,0.0,0.0,0.0,0.0,0.0,0.0,0.0,0.0,0.0,0.0,0.0,0.0,0.0,0.0,0.0,0.0,0.0,0.0,0.0,0.0,0.0,0.0,0.0,0.0,0.0,0.0,0.0,0.0,0.0,0.0,0.0,0.0,0.0,0.0,0.0,0.0,0.0,0.0,0.0,0.0,0.0,0.0,0.0,0.0,0.0,0.0,0.0,0.0,0.0,0.0,0.0,0.0,0.0,0.0,0.0,0.0,0.0,0.0,0.0,2.8192,2.9654,3.07,3.0684,3.0709,3.0723,3.0799,3.0843,3.0494,2.9567,0.0,0.0,0.0,0.0,0.0,0.0,0.0,0.0,0.0,0.0,0.0,0.0,0.0,0.0,0.0,0.0,0.0,0.0,0.0,0.0,0.0,0.0,0.0,0.0,0.0,0.0,0.0,0.0,0.0,0.0,0.0,0.0,0.0,0.0,0.0,0.0,0.0,0.0,0.0,0.0,0.0,0.0,0.0,0.0,0.0,0.0,0.0,0.0,0.0,0.0,0.0,0.0,0.0,0.0,0.0,0.0,0.0,0.0,0.0,0.0,2.499,0.0,0.0,0.0,0.0,0.0,0.0,0.0,0.0,0.0,0.0,0.0,0.0,0.0,0.0,0.0,0.0,0.0,0.0,0.0,0.0,0.0,0.0,0.0,0.0,0.0,0.0,0.0,0.0,0.0,0.0,0.0,0.0,0.0,0.0,0.0,0.0,0.0,0.0,0.0,0.0,0.0,2.8112,2.9669,3.0673,3.0629,3.0677,3.0701,3.0714,3.0772,3.0435,2.9567,2.9309,0.0,0.0,0.0,0.0,0.0,0.0,0.0,0.0,0.0,0.0,0.0,0.0,0.0,0.0,0.0,0.0,0.0,0.0,0.0,0.0,0.0,0.0,0.0,0.0,0.0,0.0,0.0,0.0,0.0,0.0,0.0,0.0,0.0,0.0,0.0,0.0,0.0,0.0,0.0,0.0,0.0,0.0,0.0,0.0,0.0,0.0,0.0,0.0,0.0,0.0,0.0,0.0,0.0,0.0,0.0,0.0,0.0,0.0,0.0,0.0,2.4639,0.0,0.0,0.0,0.0,0.0,0.0,0.0,0.0,0.0,0.0,0.0,0.0,0.0,0.0,0.0,0.0,0.0,0.0,0.0,0.0,0.0,0.0,0.0,0.0,0.0,0.0,0.0,0.0,0.0,0.0,0.0,0.0,0.0,0.0,0.0,0.0,0.0,0.0,0.0,0.0,2.8132,2.9641,3.0645,3.0645,3.067,3.0716,3.0755,3.0781,3.0606,3.015,2.9721,0.0,0.0,0.0,0.0,0.0,0.0,0.0,0.0,0.0,0.0,0.0,0.0,0.0,0.0,0.0,0.0,0.0,0.0,0.0,0.0,0.0,0.0,0.0,0.0,0.0,0.0,0.0,0.0,0.0,0.0,0.0,0.0,0.0,0.0,0.0,0.0,0.0,0.0,0.0,0.0,0.0,0.0,0.0,0.0,0.0,0.0,0.0,0.0,0.0,0.0,0.0,0.0,0.0,2.6451,2.6681,2.6735,2.6748,2.6374,2.5688,2.5581,2.5945,2.6536,2.5455,0.0,0.0,0.0,0.0,0.0,0.0,0.0,0.0,0.0,0.0,0.0,0.0,0.0,0.0,0.0,0.0,0.0,0.0,0.0,0.0,0.0,0.0,0.0,0.0,2.7241,2.677,0.0,0.0,0.0,0.0,0.0,0.0,0.0,0.0,0.0,0.0,0.0,0.0,2.7983,2.9493,3.0637,3.07,3.0704,3.0726,3.0796,3.0799,3.0797,3.0801,3.0127,2.9567,0.0,0.0,0.0,0.0,0.0,0.0,0.0,0.0,0.0,0.0,0.0,0.0,0.0,0.0,0.0,0.0,0.0,0.0,0.0,0.0,0.0,0.0,0.0,0.0,0.0,0.0,0.0,0.0,0.0,0.0,0.0,0.0,2.2322,2.3745,0.0,0.0,0.0,0.0,0.0,0.0,0.0,0.0,0.0,0.0,0.0,0.0,0.0,2.6172,2.6022,2.7015,2.7631,2.7866,2.8477,2.8832,2.8892,2.8949,2.8951,2.882,2.745,0.0,2.7485,2.8051,0.0,0.0,0.0,0.0,0.0,0.0,0.0,0.0,0.0,0.0,0.0,0.0,0.0,0.0,0.0,0.0,0.0,0.0,0.0,0.0,0.0,0.0,2.9314,2.9542,2.8438,2.7755,0.0,2.7279,2.5685,2.7313,2.6463,0.0,0.0,0.0,0.0,0.0,0.0,0.0,2.7094,2.9096,3.0637,3.07,3.0706,3.0723,3.0799,3.08,3.0804,3.0801,3.0696,2.9928,2.8338,2.9641,0.0,0.0,0.0,0.0,0.0,0.0,0.0,0.0,0.0,0.0,0.0,0.0,0.0,0.0,0.0,0.0,0.0,0.0,0.0,0.0,0.0,0.0,0.0,0.0,0.0,0.0,0.0,0.0,0.0,2.3398,2.4118,2.5335,2.556,2.517,0.0,0.0,0.0,0.0,0.0,0.0,0.0,0.0,0.0,2.5751,2.6631,2.6968,2.6772,2.8078,2.8823,2.8935,2.9698,3.0092,3.0204,3.0498,3.0713,3.0809,3.0068,2.987,2.9973,2.8608,2.8103,2.8025,0.0,0.0,0.0,0.0,2.4638,2.5233,2.5658,2.6584,0.0,2.7593,0.0,0.0,0.0,0.0,0.0,0.0,0.0,0.0,0.0,0.0,0.0,2.9791,2.9374,2.9033,2.9737,2.8108,2.686,0.0,2.7141,2.6194,2.6704,0.0,0.0,0.0,0.0,2.8714,2.826,2.9613,3.0626,3.0683,3.07,3.0735,3.0792,3.08,3.0806,3.0804,3.0798,3.0431,2.9649,3.0198,2.9364,0.0,0.0,0.0,0.0,0.0,0.0,0.0,0.0,0.0,0.0,0.0,0.0,0.0,0.0,0.0,0.0,0.0,0.0,0.0,0.0,0.0,0.0,0.0,0.0,0.0,0.0,0.0,0.0,2.4849,2.5408,2.6618,2.6736,2.6299,0.0,0.0,0.0,0.0,0.0,0.0,2.6303,2.6311,2.6356,2.6484,2.7643,2.8241,2.8152,2.9472,3.0179,3.0229,3.0819,3.1148,3.1268,3.1683,3.1942,3.2072,3.1863,3.1843,3.1755,2.9528,2.8616,2.8597,2.7975,2.6928,2.5758,2.5701,2.5565,2.5494,2.6103,2.6997,2.7869,2.7886,0.0,2.8097,2.7077,0.0,0.0,0.0,0.0,2.7363,2.8088,2.8641,2.9147,2.9687,2.9855,2.9888,2.9888,2.8651,2.7871,0.0,2.7937,2.6962,2.7337,0.0,0.0,0.0,0.0,2.9297,2.9003,2.9945,3.0649,3.0698,3.0725,3.0758,3.0799,3.08,3.0806,3.0802,3.0784,3.0769,3.0748,3.0603,2.9945,2.8706,0.0,0.0,0.0,0.0,0.0,0.0,0.0,0.0,0.0,0.0,0.0,0.0,0.0,0.0,0.0,0.0,0.0,0.0,0.0,0.0,0.0,0.0,0.0,0.0,0.0,0.0,0.0,0.0,0.0,2.6945,2.7424,0.0,0.0,0.0,0.0,2.6411,2.6237,2.6725,2.8019,2.8189,2.8883,3.0176,3.0508,3.1011,3.183,3.1846,3.1969,3.2159,3.2124,3.2158,3.226,3.2444,3.2542,3.2521,3.1941,3.1739,3.1812,3.1838,3.1938,3.1789,2.9119,2.8108,2.7809,2.5185,2.519,2.654,2.6634,2.7727,2.9122,2.9184,2.8163,2.6619,2.5035,2.4568,0.0,0.0,2.5705,2.6916,2.6897,2.8222,2.957,2.9607,2.9751,2.9888,2.9888,2.8696,2.8084,0.0,2.8694,2.7873,2.8809,0.0,2.8489,2.6858,2.8194,2.9076,2.8182,2.9598,3.0698,3.0697,3.0763,3.0804,3.0801,3.0792,3.0801,3.0804,3.0736,3.0683,3.0618,3.0593,3.0501,3.0287,2.861,0.0,0.0,0.0,0.0,0.0,0.0,0.0,0.0,0.0,0.0,0.0,0.0,0.0,0.0,0.0,0.0,0.0,0.0,0.0,0.0,0.0,0.0,0.0,0.0,0.0,0.0,0.0,0.0,2.7209,2.7332,0.0,2.7128,2.7278,2.7129,2.6536,2.7658,2.86,2.9084,2.9648,3.0374,3.1227,3.1517,3.1953,3.2601,3.3151,3.3512,3.3659,3.4289,3.4673,3.4905,3.5194,3.5473,3.5687,3.5402,3.5466,3.5714,3.58,3.4037,3.1176,3.0179,2.9868,2.9838,2.8846,2.8973,2.9604,2.9599,3.006,3.0674,3.0761,3.0398,2.9734,2.8662,2.8225,2.803,2.7657,2.7894,2.8273,2.838,2.8927,2.9415,2.9415,2.957,2.9698,2.9698,2.9385,2.944,3.063,2.9146,2.7975,2.8936,2.9997,3.0335,2.9261,3.0189,3.0896,3.0558,3.0618,3.0723,3.0753,3.0743,3.0747,3.0739,3.0738,3.0726,3.0664,3.0642,3.061,3.0548,3.0492,3.0482,3.0462,2.927,2.7819,0.0,0.0,0.0,0.0,0.0,0.0,0.0,0.0,0.0,0.0,0.0,0.0,0.0,0.0,0.0,0.0,0.0,0.0,0.0,0.0,0.0,0.0,0.0,0.0,0.0,0.0,2.5684,2.7303,2.7717,2.7913,2.7997,2.8452,2.8494,2.8002,2.9277,3.0186,3.0333,3.0905,3.1686,3.268,3.2994,3.3523,3.4435,3.5044,3.5388,3.5463,3.6113,3.6542,3.671,3.7068,3.7032,3.679,3.7088,3.7108,3.6912,3.7124,3.5332,3.2433,3.2273,3.2098,3.1953,3.1583,3.1384,3.1265,3.1021,3.1083,3.1265,3.1341,3.1391,3.1348,3.0862,3.0582,3.0375,3.001,2.9811,2.9716,2.9839,2.9913,2.9961,2.9961,3.0379,3.0787,3.0827,3.0527,3.0614,3.1908,3.0403,2.9072,2.941,3.0417,3.0806,2.9784,3.0152,3.0567,3.0614,3.0676,3.0723,3.0798,3.1027,3.1167,3.1172,3.0313,3.0036,3.0634,2.9979,2.9844,3.0443,2.9811,2.949,2.9522,2.8368,2.7056,2.5617,0.0,0.0,0.0,0.0,0.0,0.0,0.0,0.0,0.0,0.0,0.0,0.0,0.0,0.0,0.0,0.0,0.0,0.0,0.0,0.0,0.0,0.0,0.0,2.3186,2.5403,2.7075,2.7357,2.8723,2.9721,2.9842,3.0413,3.0738,3.0849,3.1083,3.1378,3.1854,3.2075,3.2945,3.4593,3.4947,3.5835,3.7402,3.7468,3.7519,3.7519,3.7519,3.7502,3.7502,3.7696,3.7047,3.5774,3.6746,3.6403,3.5147,3.5788,3.6034,3.5977,3.5344,3.4773,3.4153,3.3013,3.2119,3.1326,3.0738,3.0701,3.0959,3.099,3.1,3.1028,3.1084,3.1138,3.1138,3.1138,3.112,3.1138,3.1075,3.1209,3.1371,3.1371,3.2207,3.3059,3.3259,3.2084,3.1582,3.3486,3.258,3.1249,3.0405,3.0368,2.9879,2.8324,2.8104,0.0,2.8281,2.973,3.0755,3.0837,3.1549,3.203,3.2059,2.9581,2.8838,3.0678,2.8848,2.8502,3.0298,2.8629,2.7631,2.7606,2.597,2.5492,2.6254,0.0,0.0,0.0,0.0,0.0,0.0,0.0,0.0,0.0,0.0,0.0,0.0,0.0,0.0,0.0,0.0,0.0,0.0,0.0,0.0,0.0,0.0,2.7125,2.6688,2.6471,2.7064,2.8953,3.0028,3.0729,3.1083,3.1359,3.151,3.15,3.2691,3.3405,3.3468,3.36,3.3844,3.4084,3.4399,3.4693,3.5037,3.6675,3.7551,3.764,3.7535,3.7571,3.7659,3.7831,3.792,3.7961,3.8753,3.9146,3.9244,3.926,3.902,3.8487,3.6665,3.5968,3.5861,3.5144,3.4517,3.3949,3.3202,3.3473,3.4046,3.3486,3.3319,3.3165,3.2061,3.1748,3.1748,3.1693,3.1693,3.1809,3.2373,3.2577,3.2618,3.2618,3.2974,3.335,3.3552,3.3496,3.3808,3.5087,3.4661,3.3642,3.2187,3.2584,3.2987,3.2528,3.2546,0.0,3.2665,3.2069,3.1629,3.1604,3.073,3.035,3.0891,2.9705,2.9394,3.0433,3.0056,2.9708,2.9535,2.9022,2.8439,2.7761,2.6096,2.5327,0.0,0.0,0.0,0.0,0.0,0.0,0.0,0.0,0.0,0.0,0.0,0.0,0.0,0.0,0.0,0.0,0.0,0.0,0.0,0.0,0.0,0.0,2.7369,2.8841,2.9666,2.8831,2.8796,3.0506,3.1623,3.2434,3.2761,3.3349,3.351,3.2982,3.3973,3.4473,3.4115,3.4029,3.3994,3.3989,3.4302,3.4835,3.5565,3.7187,3.8311,3.8956,3.89,3.8844,3.8811,3.9011,3.8846,0.0,3.9487,3.9783,3.9418,3.9965,4.0251,0.0,0.0,0.0,0.0,0.0,3.6022,3.5774,3.4624,3.4641,3.5134,3.4738,3.4643,3.4548,3.3714,3.3273,3.2913,3.2523,3.22,3.2157,3.2906,3.3104,3.3283,3.3948,3.4483,3.4897,3.5086,3.4833,3.4996,3.6522,3.5769,0.0,3.4675,3.4041,3.3352,3.2736,3.269,3.2733,3.2809,3.2314,3.1942,3.1937,3.1415,3.1246,3.1683,3.0229,0.0,0.0,0.0,2.9021,2.8106,2.7999,0.0,0.0,0.0,2.4178,2.4159,0.0,0.0,0.0,2.0784,2.0002,0.0,0.0,0.0,0.0,0.0,0.0,0.0,0.0,0.0,0.0,0.0,0.0,0.0,0.0,0.0,0.0,2.8367,2.9495,3.2158,3.1925,3.1641,3.1999,3.3271,3.4262,3.4492,3.5476,3.5648,3.4558,3.4778,3.4756,3.4272,0.0,0.0,0.0,0.0,3.5561,3.7307,3.8035,3.9118,4.0426,4.0345,4.0286,4.0232,4.0426,3.9503,3.7889,3.9594,3.9251,3.7669,3.9209,4.0338,4.1138,4.0271,3.9411,3.8463,3.724,3.694,3.6978,3.5498,0.0,0.0,3.526,3.5312,3.5328,3.5393,3.4972,3.4317,3.3629,3.2996,3.2715,3.3396,3.3562,3.3952,3.537,3.6299,3.6937,3.7158,3.6121,3.5781,3.779,3.6475,3.556,3.7356,3.5221,3.2842,3.1516,3.129,3.1309,3.1448,3.205,3.2438,3.2415,0.0,0.0,3.3379,3.105,3.0622,3.3059,2.9916,2.7624,2.6795,2.6485,2.526,2.3015,2.2977,2.2953,2.2871,2.2028,2.1243,2.0533,1.985,1.9609,0.0,0.0,0.0,0.0,0.0,0.0,0.0,0.0,0.0,0.0,0.0,0.0,0.0,0.0,0.0,3.0128,3.1951,3.337,3.3795,3.4452,3.4482,3.3473,3.3997,3.4472,3.4587,3.4423,3.4132,3.3759,3.4425,3.4896,3.5,3.4394,3.4367,3.5007,3.4923,3.5095,3.5475,3.6674,3.7865,3.8893,0.0,0.0,3.9138,3.909,3.9001,3.8972,4.0105,4.0238,3.9736,4.0251,4.0755,4.1239,4.1321,4.0621,3.9388,3.8695,3.8136,3.7638,3.6808,3.6685,3.6748,3.6054,3.5862,3.5811,3.519,3.4924,0.0,3.5368,3.5439,3.551,3.6291,3.6504,3.6575,3.695,3.7165,3.7381,3.7682,3.7645,3.7783,3.8656,3.807,3.7657,3.8419,3.758,3.6719,3.643,3.6459,3.6581,3.6717,3.6267,3.5687,3.5056,3.3936,3.3223,3.3169,3.2124,3.196,3.312,3.067,2.8958,2.8472,2.7227,2.6304,2.5831,2.5139,2.4524,2.3993,2.2442,2.1609,2.1407,1.9843,1.8766,0.0,0.0,0.0,0.0,0.0,0.0,0.0,0.0,0.0,0.0,0.0,2.7405,0.0,0.0,2.943,3.1196,3.228,3.3401,3.4907,3.534,3.5341,3.4865,3.5013,3.5133,3.5003,3.5214,3.5003,3.428,3.5016,3.5398,3.5186,3.462,3.4373,3.4491,3.4564,3.4835,3.5419,3.6409,3.7537,3.8805,3.8335,3.845,3.9075,3.8997,3.8975,3.9006,4.0113,4.0384,4.0031,4.0912,4.1208,4.117,4.1904,4.1593,4.0672,4.0084,3.9502,3.8858,3.7848,3.7607,3.7584,3.6808,3.6582,3.6549,3.618,3.5864,3.5545,3.5509,3.5243,3.5173,3.5916,3.6111,3.6305,3.714,3.7392,3.7466,3.7613,3.781,3.808,3.8529,3.8477,3.8513,3.8794,3.8855,3.8612,3.7915,3.7865,3.779,3.752,3.6775,3.5979,3.5229,3.4406,3.3898,3.3901,3.3096,3.242,3.2016,3.0309,2.8888,2.7931,2.708,2.6273,2.5459,2.502,2.4206,2.2993,2.1721,2.0658,1.9773,1.8455,1.828,0.0,0.0,0.0,0.0,0.0,0.0,0.0,0.0,2.7878,2.7904,2.8185,2.871,2.9532,2.9297,2.9854,3.2416,3.2592,3.3232,3.5568,3.5685,3.5507,3.5538,3.5538,3.5429,3.5309,3.5859,3.5863,3.4868,3.5454,3.5681,3.5185,3.4809,3.4543,3.4285,3.4474,3.5012,3.5868,3.6418,3.7445,3.8827,3.8827,3.906,3.9508,3.9589,3.9484,3.933,4.0315,4.0556,4.0345,4.145,4.1648,4.1338,4.2241,4.2245,4.1727,4.1206,4.0775,4.0339,3.9068,3.8601,3.8462,3.7928,3.7545,3.732,3.7432,3.6923,3.6199,3.5526,3.4942,3.4641,3.5172,3.5295,3.5576,3.692,3.7279,3.7354,3.7392,3.7647,3.7953,3.8122,3.8465,3.8756,3.8794,3.9308,3.9331,3.8309,3.8228,3.8082,3.7555,3.681,3.6067,3.5376,3.5173,3.5006,3.471,3.3639,3.2323,3.0817,2.9411,2.8085,2.6849,2.6397,2.5573,2.4276,2.3925,2.2998,2.1459,2.0495,1.9286,1.7911,1.7258,1.7845,2.7108,2.5241,2.4145,2.4581,2.5437,2.6316,0.0,0.0,2.9698,2.9992,3.0476,3.138,3.3144,3.3174,3.3435,3.5299,3.5979,3.6158,3.572,3.6043,3.5746,3.4382,3.4129,3.4254,3.4874,3.4484,3.429,3.4538,3.4649,3.4865,3.5137,3.5164,3.5421,3.6133,3.6011,3.6033,3.6173,3.6201,3.6749,3.7849,3.7878,3.8743,4.0383,4.0414,4.0788,4.1431,4.1444,4.1719,4.2162,4.1994,4.2021,4.2168,4.2498,4.2176,4.1629,4.1643,4.1819,4.1886,4.1094,4.0587,4.02,4.0155,3.9171,3.797,3.8028,3.7501,3.6907,3.6781,3.6693,3.6679,3.6728,3.6685,3.6641,3.6974,3.7069,3.7185,3.7297,3.8053,3.8526,3.8088,3.851,3.8834,3.8436,3.867,3.9036,3.935,3.9697,3.9946,3.9991,3.9355,3.8605,3.788,3.726,3.6317,3.4822,3.3124,3.1654,3.0524,2.8303,2.6859,2.6402,2.503,2.4225,2.4041,2.2574,2.1421,2.0633,1.9051,1.8185,1.7985,1.7891,1.7173,2.7181,2.6487,2.6422,2.7014,2.8299,2.9437,2.9765,3.0637,3.1513,3.2072,3.2396,3.3078,3.4868,3.4186,3.4075,0.0,3.5505,3.4996,3.5936,3.5699,3.5107,3.4311,3.3466,3.2946,3.3087,3.4203,3.4663,3.3833,3.4375,3.4726,3.4763,3.4776,3.4736,3.4641,3.5008,3.5269,3.5424,3.5391,3.5981,3.704,3.7054,3.7565,3.846,3.9005,4.0115,4.1504,4.1473,4.1669,4.2077,4.1938,4.2173,4.2593,4.2863,4.2921,4.286,4.2004,4.1521,4.1202,4.0457,4.0266,4.0202,3.9704,3.9153,3.8713,3.8754,3.8128,3.7352,3.7434,3.712,3.6748,3.6806,3.6708,3.6667,3.6788,3.6788,3.6771,3.6811,3.7664,3.8341,3.8105,3.8503,3.8776,3.842,3.8394,3.8479,3.8793,3.9529,3.989,3.9561,3.8994,3.8141,3.6996,3.6615,3.5741,3.4036,3.1807,2.9849,2.8392,2.5924,2.4478,2.4379,2.3713,2.2914,2.1991,2.1268,2.028,1.8974,1.7813,1.7248,1.7232,1.6722,1.6091,2.7656,2.7646,2.8035,2.9202,3.0647,3.188,3.2156,3.2684,3.3321,3.4137,3.4191,3.4548,3.605,3.5084,3.4683,3.6521,3.5272,3.4485,3.5849,3.5239,3.4441,3.3858,3.2987,3.2123,3.1199,3.3445,3.4727,3.4039,3.4512,3.467,3.4525,3.4446,3.4179,3.3672,3.4379,3.4913,3.5151,3.5244,3.5701,3.6533,3.6609,3.6828,3.7302,3.8502,3.9905,4.1584,4.1568,4.1807,4.2054,4.1724,4.2045,4.2684,4.2543,4.2863,4.3335,4.2038,4.1478,4.1238,4.047,4.0374,4.0538,3.9933,3.9546,3.9286,3.9364,3.8877,3.82,3.8061,3.7783,3.7394,3.7019,3.6873,3.6762,3.6637,3.6544,3.6502,3.6502,3.7539,3.8374,3.8123,3.8709,3.9025,3.8297,3.8151,3.8045,3.7757,3.8517,3.9059,3.8804,3.8185,3.7353,3.6311,3.5371,3.4217,3.2713,2.9946,2.7653,2.6137,2.3821,2.2543,2.261,2.2344,2.1533,2.0133,1.991,1.9052,1.7575,1.6746,1.6332,1.6333,1.5691,1.5403,2.8829,2.8073,2.7262,2.9834,3.115,3.2074,3.3176,3.4202,3.5195,3.606,3.5867,3.5872,3.6885,3.6556,3.624,3.6644,3.6492,3.6001,3.5154,3.4852,3.4086,3.2482,3.2772,3.2114,0.0,3.1707,3.39,3.5506,3.4901,3.4525,3.4525,3.4286,3.4206,3.4193,3.5144,3.5696,3.5696,3.6111,3.6363,3.6443,3.6615,3.7144,3.8065,3.9914,4.128,4.2145,4.2331,4.2528,4.2692,4.1339,4.1446,4.2201,4.1054,4.1302,4.2301,4.1799,4.2183,4.2896,4.2173,4.1977,4.2036,4.1948,4.0905,3.9698,3.9698,3.9772,3.969,3.8911,3.9284,3.9633,3.7975,3.7577,3.7343,3.6515,3.6402,3.6502,3.6502,3.7958,3.9024,3.8163,3.9333,3.9841,3.7945,3.7954,3.7749,3.6447,3.6798,3.7516,3.8414,3.7544,3.6864,3.6967,3.4061,3.1742,3.086,2.7543,2.5139,2.4242,2.2527,2.1578,2.1641,2.0827,1.9993,1.9151,1.8387,1.7574,1.672,1.5853,1.5449,1.5449,1.541,1.5408,2.749,2.8576,3.0053,3.1738,3.2911,3.4044,3.5514,3.5717,3.5916,3.6658,3.5937,3.538,3.6226,3.5031,3.4248,3.5229,3.3623,3.2855,3.4536,3.3101,3.2327,3.3729,3.3078,0.0,0.0,0.0,0.0,3.354,3.3688,3.3965,3.4273,3.3754,3.337,3.337,3.4113,3.4821,3.5364,3.5377,3.5898,3.6772,3.7442,3.8201,3.905,4.0216,4.1323,4.2137,4.2203,4.2216,4.2317,4.1866,4.1778,4.1938,4.2188,4.2028,4.1697,4.1983,4.1938,4.1743,4.1189,4.1067,4.1076,4.1016,4.0714,4.0367,4.0444,4.0006,3.9371,3.9127,3.8934,3.8717,3.8139,3.8047,3.8084,3.787,3.7325,3.685,3.6877,3.7369,3.7776,3.7595,3.7897,3.8069,3.75,3.6977,3.6468,3.6046,3.7153,3.7988,3.7852,3.8238,3.7683,3.5511,3.326,3.0632,2.7446,2.5064,2.3103,2.1621,2.0462,1.9853,1.9864,1.9072,1.8277,1.7514,1.7194,1.6634,1.5839,1.5542,1.539,1.5401,1.5401,1.5302,2.8621,3.0335,3.2218,3.3963,3.5066,3.6024,3.6962,3.6808,3.6577,3.7044,3.6222,3.5412,3.5621,3.4317,3.3466,3.4316,3.2631,3.2009,3.445,3.3185,3.265,3.4285,3.3498,3.324,0.0,0.0,0.0,3.3009,3.3095,3.3258,3.3554,3.2974,3.2882,3.3304,3.3979,3.4687,3.5377,3.5298,3.5819,3.6772,3.7335,3.8206,3.9415,3.9977,4.0651,4.141,4.1889,4.1831,4.1448,4.1695,4.1796,4.1881,4.2217,4.22,4.2042,4.2141,4.1885,4.1401,4.0631,4.0442,4.0491,4.0261,4.0272,4.0392,4.0455,4.0201,3.9782,3.9494,3.9404,3.9194,3.8618,3.8623,3.8694,3.8511,3.7809,3.717,3.6927,3.7,3.7085,3.6939,3.7138,3.7223,3.6962,3.6256,3.5838,3.6109,3.7487,3.8277,3.7776,3.7598,3.6573,3.4159,3.1307,2.8203,2.4812,2.2668,2.101,1.9838,1.902,1.8699,1.8988,1.8255,1.7593,1.7103,1.6767,1.6208,1.5402,1.5405,1.541,1.5406,1.5407,1.5272,3.1941,3.3048,3.3615,3.6324,3.7392,3.7744,3.7546,3.7416,3.729,3.7177,3.6546,3.5732,0.0,0.0,3.3568,3.3834,3.3122,3.3059,3.4545,3.4795,3.4599,0.0,0.0,0.0,0.0,0.0,0.0,3.3923,0.0,3.2782,3.2568,3.2312,3.275,3.3911,3.4738,3.5344,3.571,3.5871,3.6138,3.6405,3.654,3.7484,3.9226,3.9297,3.9648,4.0263,4.1541,4.1381,4.0249,4.0887,4.1571,4.2085,4.1187,4.1752,4.3023,4.2189,4.1933,4.1773,4.0475,4.0175,4.0309,3.9833,3.9707,3.9673,3.9701,4.0285,4.0776,4.0086,4.0595,4.0968,3.9411,3.9251,3.9255,3.8457,3.7953,3.7494,3.6771,3.6882,3.6952,3.6302,3.6961,3.7292,3.6329,3.5887,3.5869,3.6412,3.755,3.8287,3.8128,3.5759,3.3763,3.2938,2.8319,2.4571,2.2792,2.036,1.8924,1.889,1.8208,1.8114,1.8853,1.8218,1.778,1.7679,1.6924,1.6159,1.5402,1.5402,1.5402,1.5404,1.5403,1.5319,3.1292,3.3322,3.548,3.6653,3.7161,3.74,3.7361,3.74,3.6945,3.5146,3.3939,3.2788,3.1273,0.0,0.0,3.0373,2.8552,0.0,3.1958,3.1488,0.0,3.3688,0.0,3.4353,3.5371,3.575,0.0,0.0,3.4005,3.3953,3.4151,3.3607,3.3631,3.4518,3.5169,3.5581,3.5723,3.6138,3.6312,3.6405,3.7854,3.8767,3.9268,4.0728,4.142,4.1613,4.1947,4.1903,4.1599,4.1773,4.1703,4.1389,4.1203,4.1431,4.1705,4.0608,4.0842,4.1459,3.9917,3.9657,4.0002,3.9811,3.9768,3.9715,3.9703,3.9877,3.9964,3.9692,3.9932,4.0189,3.9648,3.98,3.9965,3.9563,3.8991,3.842,3.8053,3.6987,3.6092,3.6122,3.6158,3.6004,3.5477,3.5102,3.503,3.5428,3.6715,3.7856,3.8402,3.5816,3.32,3.1201,2.6523,2.233,1.9343,1.849,1.7854,1.7253,1.7581,1.7625,1.7223,1.7027,1.6645,1.602,1.5812,1.5607,1.5402,1.5402,1.5406,1.541,1.5408,1.5243,3.3599,3.5221,3.6722,3.7391,3.7439,3.7161,3.6529,3.6003,3.488,3.2482,3.1318,3.0254,2.8565,2.6907,2.647,0.0,0.0,0.0,3.1216,3.1033,3.1375,0.0,3.4099,0.0,3.6456,3.6522,3.6073,0.0,3.4647,3.4246,3.4004,3.3539,3.3831,3.4895,3.5381,3.5765,3.6103,3.6195,3.6325,3.6405,3.7536,3.8319,3.8871,3.992,4.0349,4.0278,0.0,4.0833,4.0697,4.1343,4.1517,4.1549,4.1248,4.1249,4.124,4.0356,4.0289,4.06,3.9778,3.9451,3.9566,3.9604,3.9408,3.9141,3.9151,3.9048,3.8898,3.8805,3.9077,3.9345,3.9292,3.9504,3.9713,3.9661,3.9239,3.8683,3.8231,3.7157,3.616,3.5626,3.5061,3.4796,3.5259,3.4802,3.5022,3.6894,3.5664,3.5119,3.673,3.4426,3.0928,2.6406,2.2748,1.9708,1.7454,1.6948,1.6695,1.6611,1.668,1.6708,1.6592,1.6263,1.6025,1.5938,1.5582,1.5395,1.54,1.5401,1.5405,1.5409,1.5369,1.5224,3.6721,3.7443,3.7614,3.8189,3.7857,3.6967,3.5691,3.4134,3.2319,2.9971,2.8957,2.8078,2.667,2.6018,2.6291,2.8078,0.0,2.8502,3.0799,3.1583,3.2275,3.3281,3.4126,3.5101,3.6375,3.6235,3.6109,3.5938,3.5169,3.418,3.3212,3.3186,3.3873,3.5272,3.561,3.6129,3.6727,3.6402,3.6234,3.6405,3.6777,3.74,3.836,3.851,3.8396,3.8246,3.9169,0.0,3.9159,4.0256,4.1131,4.1773,4.1192,4.1057,4.1114,4.0516,4.0079,3.967,3.9651,3.9349,3.9073,3.9237,3.8938,3.8477,3.845,3.822,3.7897,3.7897,3.8107,3.8383,3.8623,3.8788,3.8952,3.9082,3.9007,3.8625,3.7845,3.7339,3.6612,3.4984,3.3964,3.3773,3.5086,3.4355,3.4929,3.8635,3.4355,3.1411,3.3375,3.1465,2.7492,2.1093,1.8775,1.7329,1.6467,1.5874,1.5794,1.6386,1.5883,1.5827,1.6424,1.5869,1.5835,1.6435,1.5769,1.5394,1.5394,1.5383,1.5386,1.5387,1.5316,1.5216,3.592,3.6999,3.8173,3.8017,3.7713,3.7227,3.6238,3.4169,3.171,2.9274,2.7446,2.6168,2.5641,2.5259,2.5409,2.6525,2.6669,2.6671,2.6639,2.8964,3.0801,0.0,3.2685,3.4414,3.575,3.5547,0.0,0.0,0.0,3.5033,3.4219,3.4192,3.4897,3.6524,3.6815,3.7039,3.7365,3.692,3.6619,3.6405,3.7461,3.8232,3.8582,3.9398,3.9729,3.9706,3.9923,0.0,3.988,4.0097,4.0336,4.0437,4.0321,4.0632,4.1039,3.9839,3.9771,4.0009,3.8885,3.8575,3.8634,3.8868,3.8948,3.8925,3.8788,3.8314,3.7825,3.7825,3.7463,3.7263,3.7822,3.8092,3.8133,3.7921,3.8367,3.8535,3.7652,3.7116,3.6302,3.4549,3.381,3.3541,3.3764,3.2359,3.2284,3.5487,3.2415,2.9182,2.758,2.5284,2.3106,2.124,1.899,1.6976,1.5409,1.5916,1.6072,1.5565,1.607,1.6164,1.5638,1.6117,1.614,1.5611,1.5461,1.5407,1.5391,1.5332,1.5328,1.5309,1.5196,1.5096,3.6403,3.7515,3.8574,3.785,3.7384,3.6339,3.3452,3.1651,2.9544,2.5963,2.4936,2.446,2.3858,2.4013,0.0,2.5846,2.6176,2.647,2.69,2.8665,3.0161,3.0632,3.2462,3.3866,3.4431,3.4807,3.4765,0.0,0.0,3.4551,3.4397,3.4494,3.5284,3.683,3.6511,3.6872,3.8075,3.7099,3.6819,3.7195,3.7706,3.8082,3.8236,3.877,3.8977,3.8977,3.8808,0.0,3.9006,3.9324,3.9735,4.0089,3.9946,4.0246,4.0455,3.9329,3.8957,3.8986,3.8379,3.8366,3.8516,3.8575,3.8557,3.8447,3.8292,3.7933,3.7456,3.7185,3.6978,3.6846,3.6923,3.7294,3.7531,3.7294,3.7413,3.7413,3.6951,3.63,3.5748,3.5464,3.4254,3.3316,3.3593,3.1667,3.1546,3.5943,3.0101,2.5984,2.8042,2.3223,1.9344,1.8588,1.7555,1.6555,1.5652,1.5663,1.5592,1.5312,1.5625,1.5696,1.5412,1.5763,1.5783,1.5416,1.5401,1.5376,1.535,1.5311,1.5278,1.5234,1.5115,1.5036,3.6919,3.7826,3.8323,3.7465,3.6734,3.5233,3.1348,2.9475,2.746,2.3681,2.3043,2.3128,2.2881,2.3406,2.434,0.0,2.6144,2.6631,2.7523,2.8661,2.9686,0.0,3.2112,0.0,3.3392,3.387,0.0,0.0,0.0,0.0,3.4384,3.4778,3.5597,3.683,3.6324,3.6901,3.8655,3.7401,3.7118,3.7774,3.7692,3.7701,3.7853,3.7929,3.7929,3.7929,3.7763,0.0,0.0,3.864,3.9165,3.9538,3.9801,3.9873,3.9842,3.896,3.8408,3.804,3.8034,3.8202,3.8366,3.8441,3.8238,3.803,3.7886,3.7573,3.7094,3.6576,3.6461,3.6395,3.6049,3.6442,3.697,3.6815,3.6368,3.5993,3.6259,3.5675,3.5294,3.5954,3.4229,3.2658,3.2911,3.0773,3.07,3.5754,2.7857,2.3375,2.9142,2.2476,1.7105,1.678,1.6759,1.6582,1.6125,1.5576,1.5245,1.5236,1.5169,1.5188,1.5348,1.5366,1.5381,1.5385,1.5387,1.5348,1.5291,1.5257,1.5204,1.514,1.5025,1.4983,3.6555,3.71,3.7028,3.6617,3.5675,3.456,3.3239,3.0119,2.704,2.5656,2.3555,2.2483,2.4158,2.4509,2.4891,2.6008,0.0,2.6394,2.5577,2.7569,2.9173,2.9564,0.0,0.0,3.3467,3.2585,0.0,0.0,0.0,0.0,3.434,3.5328,3.6178,3.6844,3.7704,3.8247,3.8423,3.8141,3.7786,3.737,3.7537,3.7625,3.7625,3.7991,3.8202,3.8202,3.8127,0.0,0.0,3.8696,3.8551,3.7723,3.9436,3.977,3.9276,3.8972,3.8759,3.846,3.7887,3.7749,3.7962,3.8202,3.8457,3.862,3.825,3.7531,3.673,3.6673,3.6008,3.5265,3.5064,3.5716,3.6381,3.6475,3.5484,3.4765,3.5706,3.5867,3.552,3.4603,3.275,3.1087,3.0293,2.8448,2.8155,3.1485,2.5888,2.2849,2.7064,2.1583,1.7785,1.904,1.8653,1.7675,1.6145,1.6053,1.578,1.5064,1.5129,1.5201,1.5214,1.5273,1.5305,1.5303,1.5308,1.5312,1.5292,1.5109,1.5014,1.5028,1.4943,1.4902,3.3512,3.5033,3.6092,3.4873,3.479,3.4005,3.0271,2.8333,2.6535,2.3632,2.308,2.3307,2.3981,2.4737,2.5433,2.5942,0.0,0.0,2.6574,2.794,2.9135,2.9889,3.0834,0.0,0.0,0.0,0.0,0.0,0.0,0.0,3.3529,3.4109,3.4754,3.5595,3.5973,3.6616,3.7506,3.7107,3.7097,3.7289,3.738,3.7457,3.761,3.8052,3.8202,3.8202,3.8202,0.0,0.0,3.8072,3.8304,3.7912,3.8529,3.9073,3.9434,3.8345,3.7904,3.7784,3.7758,3.7901,3.8052,3.8037,3.8188,3.8427,3.8113,3.7713,3.7229,3.6481,3.5972,3.547,3.4944,3.5011,3.5111,3.4831,3.4216,3.3754,3.4163,3.4633,3.4792,3.4388,3.335,3.1961,3.03,2.8642,2.8052,2.9538,2.4655,2.1928,2.5135,2.0696,1.7649,1.873,1.8638,1.8198,1.7454,1.6552,1.5977,1.584,1.5328,1.5085,1.5246,1.5292,1.5272,1.5235,1.5249,1.5204,1.5124,1.5042,1.4998,1.4991,1.4966,1.5005,3.1394,3.323,3.4686,3.3428,3.3524,3.2707,2.8277,2.7028,2.5861,2.2458,2.2799,2.3703,2.377,2.4416,2.5137,0.0,0.0,2.5823,2.7024,2.806,2.9073,3.0092,0.0,3.1177,0.0,3.1776,0.0,0.0,0.0,0.0,3.2579,3.2888,3.3659,3.4617,3.4893,3.5594,3.6856,3.6454,3.6457,3.7112,3.7209,3.7204,3.711,3.789,3.8101,3.7941,3.813,0.0,0.0,3.797,3.8275,3.7984,3.8211,3.8649,3.9075,3.7862,3.738,3.738,3.7596,3.7825,3.7976,3.7962,3.7962,3.8037,3.7734,3.7505,3.7175,3.6227,3.5745,3.5377,3.4816,3.4279,3.3884,3.3633,3.3213,3.296,3.3003,3.3393,3.3787,3.3682,3.304,3.1931,2.9926,2.8554,2.7632,2.7414,2.3412,2.1053,2.2799,1.9421,1.727,1.8324,1.848,1.8453,1.8379,1.7311,1.6562,1.6375,1.5676,1.5256,1.5272,1.5249,1.5247,1.5233,1.5195,1.5123,1.5061,1.5014,1.5014,1.5022,1.5033,1.5085,3.0997,3.2062,3.2533,3.2517,3.1663,3.0406,2.8677,2.685,2.501,2.3252,2.2891,2.3123,2.3868,2.3567,2.3722,2.5158,2.5567,0.0,2.6145,2.7567,2.8926,0.0,0.0,3.0698,3.3023,0.0,0.0,0.0,0.0,0.0,3.1688,3.2218,3.3169,3.4642,3.5164,3.5912,3.6869,3.6507,3.6372,3.6592,3.7116,3.6824,3.6093,3.7537,3.7883,0.0,0.0,0.0,0.0,3.8667,3.8449,3.7433,3.8696,3.8659,3.7868,3.7701,3.7457,3.7303,3.7303,3.7457,3.761,3.7825,3.7886,3.781,3.7211,3.6587,3.6031,3.6017,3.5129,3.4298,3.4589,3.3772,3.2901,3.3156,3.2704,3.2286,3.255,3.2583,3.2464,3.2,3.1246,3.0218,2.8513,2.7594,2.6442,2.4559,2.2055,2.0273,1.9885,1.765,1.6718,1.8323,1.8504,1.8495,1.8502,1.8416,1.7791,1.6387,1.6166,1.5815,1.5229,1.514,1.5151,1.5292,1.517,1.5139,1.5198,1.5057,1.5019,1.5101,1.5093,1.5139,2.6669,2.7965,2.8791,2.8099,2.8351,2.8129,2.5664,2.4829,2.4015,2.2164,2.231,2.2867,2.3318,2.3379,2.3779,2.5127,2.5101,0.0,0.0,0.0,0.0,3.0292,3.1248,3.1784,0.0,0.0,0.0,0.0,0.0,0.0,3.1575,3.2139,3.2666,3.318,3.3983,3.4548,3.4829,3.5005,3.4983,3.4878,3.5902,3.5693,3.4578,3.6632,3.7163,0.0,0.0,0.0,0.0,3.7886,3.7925,3.776,3.7844,3.799,3.8069,3.7628,3.7303,3.7148,3.7226,3.7457,3.7548,3.7366,3.7275,3.7134,3.6536,3.6443,3.635,3.5951,3.5426,3.4982,3.4849,3.4032,3.3284,3.3197,3.244,3.1823,3.1893,3.2047,3.1969,3.1132,3.1284,3.0957,2.9191,2.8278,2.6905,2.4231,2.1849,1.9795,1.8017,1.6764,1.6223,1.6741,1.7853,1.8781,1.9338,1.8814,1.809,1.7248,1.6624,1.6005,1.5367,1.527,1.5238,1.5239,1.5679,1.5656,1.512,1.5598,1.5607,1.5175,1.5221,1.5225,2.4163,2.5612,2.6644,2.6012,2.6319,2.6248,2.4215,2.3671,2.3175,2.1725,2.2411,2.3254,2.3157,2.3449,2.3914,2.4605,2.4874,0.0,0.0,0.0,0.0,2.9496,0.0,0.0,0.0,0.0,0.0,0.0,0.0,0.0,3.1586,3.2026,3.2331,3.2331,3.3221,3.3742,3.3911,3.4125,3.4326,3.4414,3.5118,3.494,3.4025,3.5985,3.6429,0.0,0.0,0.0,0.0,3.7553,3.7701,3.7853,3.7625,3.7713,3.7855,3.7445,3.7148,3.6978,3.7148,3.7303,3.7303,3.6993,3.6758,3.6615,3.6058,3.6045,3.6111,3.5642,3.548,3.5265,3.4832,3.4214,3.3584,3.3227,3.2314,3.1583,3.1429,3.142,3.1181,3.0543,3.0838,3.0729,2.9347,2.8588,2.7223,2.4553,2.1991,1.9709,1.7787,1.643,1.5731,1.6013,1.7047,1.8186,1.9333,1.9168,1.8763,1.8159,1.7311,1.6537,1.5871,1.5465,1.5245,1.5246,1.5954,1.6106,1.5632,1.6089,1.6106,1.5671,1.542,1.5275,0.0,2.4566,2.5696,2.5711,2.5289,2.4679,2.3984,2.3241,0.0,2.1882,2.3093,2.4048,2.3382,2.3811,2.4148,2.3784,2.4891,0.0,0.0,2.6479,0.0,0.0,2.994,0.0,0.0,0.0,0.0,0.0,0.0,0.0,3.1597,3.1823,3.2015,3.2015,3.2857,3.3424,3.3875,3.3875,3.4117,3.4677,3.4678,3.4422,3.4017,3.5394,3.5675,0.0,0.0,0.0,0.0,3.7586,3.7653,3.7853,3.782,3.7577,3.7303,3.7268,3.7176,3.6978,3.6978,3.6978,3.6915,3.6707,3.6405,3.6072,3.5804,3.5562,3.5399,3.5236,3.5318,3.5265,3.4727,3.4283,3.3863,3.3233,3.2388,3.1516,3.1048,3.0624,3.0251,3.0062,2.9972,2.982,2.9151,2.8542,2.7414,2.5461,2.2478,2.0031,1.8776,1.642,1.5184,1.595,1.615,1.6912,1.8581,1.9402,1.9629,1.9134,1.8102,1.7266,1.6726,1.5737,1.5249,1.5303,1.6036,1.6471,1.6599,1.6581,1.6567,1.6474,1.5721,1.5353,2.0693,0.0,2.2859,2.2747,2.263,2.2495,0.0,0.0,0.0,0.0,0.0,0.0,0.0,2.4328,2.4382,2.3228,0.0,0.0,2.543,0.0,0.0,2.7683,0.0,0.0,0.0,0.0,0.0,0.0,0.0,3.1691,3.1618,3.1823,3.2015,3.2015,3.2443,3.2801,3.3097,3.3581,3.3302,3.244,3.3987,3.3539,3.1363,3.392,3.4451,0.0,0.0,0.0,3.6874,3.7101,3.7386,3.7577,3.7073,3.6896,3.7035,3.678,3.683,3.6978,3.6978,3.6915,3.6707,3.6325,3.6166,3.6072,3.5804,3.5629,3.5642,3.5562,3.5562,3.5602,3.5466,3.5126,3.4648,3.352,3.2671,3.1801,3.0784,3.0196,2.9948,2.9856,2.9907,2.9933,2.9764,2.9194,2.8128,2.6294,2.3218,2.0506,1.8827,1.5951,1.4355,1.5106,1.5397,1.6179,1.7826,1.8635,1.9356,2.0022,1.8604,1.7713,1.7677,1.6181,1.537,1.5373,1.6093,1.6797,1.7413,1.7411,1.7105,1.6495,1.6315,1.583,1.9673,2.057,2.2036,2.2626,2.2233,2.1936,2.2644,0.0,0.0,0.0,0.0,0.0,0.0,0.0,0.0,0.0,2.3856,0.0,0.0,0.0,2.8759,2.8376,0.0,0.0,0.0,0.0,0.0,0.0,0.0,3.1873,3.1607,3.1721,3.1823,3.1823,3.1917,3.233,3.3081,3.3151,3.2881,3.2286,3.316,3.2616,3.1051,3.3003,3.3461,0.0,0.0,0.0,3.5613,3.5899,3.627,3.6707,3.6566,3.6525,3.6536,3.6373,3.6552,3.6803,3.6856,3.6707,3.6484,3.6166,3.5992,3.5898,3.5723,3.571,3.571,3.571,3.571,3.571,3.571,3.5087,3.4265,3.3165,3.2236,3.1263,3.0193,2.9922,2.9792,2.9792,2.9884,2.9915,2.9894,2.932,2.8484,2.7131,2.3772,2.0791,1.9107,1.6007,1.4078,1.4412,1.4603,1.5519,1.7561,1.8086,1.9084,2.0923,1.9391,1.8613,1.9138,1.7111,1.6137,1.6449,1.6854,1.7633,1.8793,1.807,1.7469,1.7034,1.6284,1.5682,1.9661,2.0652,2.2249,2.3699,2.2891,2.2198,2.3846,0.0,0.0,0.0,0.0,0.0,0.0,2.3161,0.0,0.0,0.0,0.0,2.6516,2.7853,2.8786,2.9227,0.0,0.0,0.0,0.0,0.0,0.0,0.0,3.2049,3.1597,3.1494,3.1483,3.1483,3.1282,3.1739,3.3021,3.265,3.2506,3.2568,3.2352,3.2034,3.1565,3.2422,3.2665,3.2556,0.0,0.0,3.4216,3.4439,3.4969,3.571,3.606,3.6219,3.6066,3.6066,3.6246,3.651,3.6598,3.6494,3.6188,3.5965,3.5669,3.5507,3.5521,3.5548,3.571,3.571,3.5575,3.5521,3.5696,3.482,3.3697,3.2841,3.1803,3.0726,2.9885,2.9681,2.9666,2.9767,2.9792,2.9792,2.9792,2.9301,2.869,2.7864,2.4241,2.1297,2.0348,1.7117,1.4902,1.4835,1.4843,1.5558,1.7353,1.7651,1.8822,2.1411,2.0026,1.9418,2.009,1.7917,1.7026,1.7693,1.7732,1.8465,1.9936,1.8574,1.7907,1.7861,1.6362,1.5605,2.0511,2.1204,2.235,2.3873,2.309,2.2371,2.3938,2.3056,0.0,0.0,0.0,0.0,0.0,2.5944,2.603,0.0,0.0,2.6027,0.0,0.0,0.0,0.0,0.0,0.0,0.0,0.0,0.0,0.0,0.0,3.1644,3.1618,3.1203,3.1036,3.1036,3.0536,3.0849,3.1931,3.2137,3.1774,3.0959,3.24,3.2406,3.1036,3.2123,3.2136,3.1526,0.0,3.2705,3.2946,3.3606,3.4504,3.5359,3.5115,3.5534,3.6066,3.6066,3.6246,3.651,3.6438,3.6124,3.5517,3.4899,3.4807,3.49,3.4653,3.5141,3.571,3.571,3.5197,3.4847,3.5507,3.5235,3.4516,3.3607,3.2711,3.169,3.0637,2.9669,2.9189,2.9679,2.9792,2.9792,2.9792,2.9731,2.9164,2.7908,2.4578,2.2885,2.4576,2.1203,1.8753,1.9027,1.8812,1.7993,1.6328,1.7169,1.8595,2.05,1.9714,1.8932,1.8418,1.7304,1.7031,1.7772,1.7842,1.8299,1.9173,1.8973,1.886,1.8787,1.7799,1.6969,2.0558,2.1321,2.2584,2.4463,2.3292,2.2435,2.5324,2.3484,0.0,0.0,0.0,0.0,0.0,0.0,2.4303,2.3545,0.0,0.0,0.0,0.0,0.0,0.0,0.0,0.0,0.0,0.0,0.0,0.0,0.0,0.0,3.088,3.0611,3.052,3.0467,3.0028,3.0087,3.0678,3.0838,3.1043,3.1234,3.1857,3.1711,3.073,3.1508,3.1633,3.1306,0.0,3.1789,3.2152,3.2611,3.3212,3.3907,3.4056,3.4359,3.4706,3.4792,3.5292,3.5872,3.5345,3.5155,3.5128,3.4393,3.414,3.4073,3.4126,3.4445,3.4828,3.514,3.5196,3.521,3.5561,3.4807,3.371,3.2871,3.1582,3.0322,2.9451,2.905,2.8963,2.9252,2.9578,2.9792,2.9792,2.9792,2.9315,2.7823,2.546,2.4192,2.5057,2.272,2.1396,2.2593,2.1628,2.0437,1.9251,1.9184,1.9764,2.1074,2.0804,2.0233,1.9449,1.8572,1.8222,1.8494,1.8578,1.8973,1.9705,1.8861,1.8644,1.8977,1.7703,1.7126,2.0801,2.147,2.2595,2.4669,0.0,2.2573,2.6375,2.3846,0.0,0.0,0.0,0.0,0.0,2.3238,0.0,2.4944,0.0,0.0,0.0,0.0,0.0,0.0,0.0,0.0,0.0,0.0,0.0,0.0,0.0,0.0,3.0224,3.0092,3.0044,3.0033,2.958,2.9569,2.9882,2.9903,3.041,3.1363,3.127,3.0992,3.0636,3.1039,3.1193,3.1223,3.0993,3.1165,3.1448,3.1539,3.1958,3.2487,3.2995,3.3319,3.3596,3.3709,3.443,3.5292,3.4326,3.4233,3.4446,3.374,3.3211,3.2992,3.3344,3.367,3.3934,3.4627,3.5006,3.5291,3.5412,3.4338,3.3076,3.2027,3.0721,2.9411,2.8524,2.8621,2.8987,2.8913,2.939,2.9869,2.9792,2.9792,2.9249,2.7718,2.6106,2.5167,2.5418,2.4448,2.4218,2.5572,2.4878,2.3645,2.2036,2.06,2.026,2.1407,2.1484,2.1227,2.0611,1.9756,1.9235,1.9121,1.8986,1.9288,2.0033,1.8585,1.8382,1.9292,1.7823,1.7444,2.1814,2.1957,2.2209,2.3801,2.3162,0.0,2.6043,2.3946,0.0,2.5349,0.0,0.0,0.0,2.4765,2.4773,2.6452,0.0,0.0,0.0,0.0,0.0,0.0,0.0,0.0,0.0,0.0,0.0,0.0,0.0,0.0,3.0195,2.978,2.9575,2.9531,2.9107,2.9234,2.9922,2.9931,3.0079,3.0352,3.0796,3.0962,3.0925,3.096,3.1057,3.098,3.1032,3.085,3.0668,3.0711,3.1069,3.1725,3.2025,3.2723,3.362,3.3521,3.4208,3.5143,3.4165,3.3542,3.3014,3.2447,3.1775,3.131,3.2047,3.2859,3.3699,3.4564,3.4322,3.3976,3.4485,3.4251,3.3468,3.1963,3.1368,3.0737,2.9256,2.9027,2.9125,2.8925,2.9542,3.0011,2.9869,2.9792,2.9249,2.7718,2.6106,2.579,2.7778,2.8137,2.8152,2.7911,2.9644,2.8398,2.2412,1.9506,1.8702,2.0383,2.0563,2.0601,2.0599,1.975,1.9262,1.9188,1.8456,1.8471,1.9277,1.8285,1.866,2.026,1.9221,1.8764,2.2141,2.1974,2.2205,2.4354,2.3309,0.0,0.0,2.4044,2.2701,2.6419,2.4993,0.0,0.0,0.0,2.6803,2.7568,0.0,0.0,0.0,0.0,0.0,0.0,0.0,0.0,0.0,0.0,0.0,0.0,0.0,0.0,2.9706,2.942,2.9294,2.9535,2.9146,2.9157,2.9673,2.9498,2.9648,3.0068,3.0554,3.0734,3.0722,3.0726,3.0738,3.0746,3.0944,3.0974,3.0885,3.0866,3.1015,3.1217,3.1359,3.1613,3.1977,3.1568,3.2386,3.3584,3.2352,3.1935,3.1867,3.1327,3.0788,3.0381,3.083,3.1604,3.2495,3.3175,3.3162,3.3229,3.4362,3.3772,3.2774,3.2345,3.1516,3.05,2.9645,2.965,2.9645,2.9138,2.9745,3.0228,3.0011,3.0011,2.9466,2.7817,2.6981,2.6972,2.8075,2.8326,2.9341,3.1602,3.0604,2.8073,2.3917,2.1024,1.9476,1.9636,2.0692,2.1328,2.1341,2.1038,2.0354,1.9271,1.8964,1.8689,1.8457,1.8093,1.8503,1.9574,1.9197,1.9269,2.2254,2.1915,2.2034,2.4223,0.0,0.0,2.5858,2.446,2.3326,2.6703,2.5537,0.0,0.0,0.0,0.0,0.0,0.0,0.0,0.0,0.0,0.0,0.0,0.0,0.0,0.0,0.0,0.0,0.0,0.0,0.0,0.0,2.9128,2.9073,2.9312,2.9073,2.9128,2.9398,2.9223,2.934,2.976,3.0171,3.0408,3.0519,3.0443,3.0512,3.0626,3.0804,3.0902,3.0909,3.0913,3.0859,3.0859,3.0648,3.0601,3.0566,3.0039,3.0749,3.1845,3.0698,3.0437,3.0599,3.0259,2.964,2.9148,2.999,3.0599,3.1237,3.2203,3.2328,3.2471,3.3783,3.3329,3.2377,3.2017,3.1456,3.0692,2.9902,3.0184,3.038,2.9535,3.0183,3.0735,3.0432,3.0139,2.9466,2.8136,2.7483,2.7155,2.7262,2.7894,2.9798,3.3696,3.0837,2.7924,2.6048,2.3314,2.0958,1.9246,2.1065,2.2083,2.1816,2.1534,2.0863,1.9721,1.9179,1.8603,1.7994,1.7674,1.7938,1.8718,1.8673,1.9071,2.2168,2.1831,2.1649,0.0,0.0,0.0,2.615,2.528,2.4127,2.5943,2.7512,2.8568,2.8675,0.0,0.0,0.0,0.0,0.0,0.0,0.0,0.0,0.0,0.0,0.0,0.0,0.0,0.0,0.0,0.0,0.0,0.0,2.8829,2.8845,2.8845,2.8845,2.8932,2.9124,2.9112,2.925,2.9513,2.9749,2.9954,3.0216,3.0216,3.0352,3.0626,3.0626,3.0626,3.0626,3.0626,3.0568,3.0519,3.0008,2.9811,2.9741,2.9253,2.9628,3.0262,2.9506,2.9232,2.9289,2.9244,2.8361,2.769,2.9545,2.9936,3.0164,3.1977,3.1934,3.1514,3.2514,3.2887,3.255,3.0857,3.1248,3.1658,2.998,3.0788,3.1369,3.0069,3.085,3.1616,3.1044,3.0141,2.9353,2.8749,2.7366,2.6142,2.5384,2.7051,2.9798,3.3648,3.0797,2.8665,2.8717,2.6139,2.293,1.925,2.1578,2.2669,2.1812,2.0956,2.0534,2.0592,1.8882,1.8004,1.7994,1.6992,1.6985,1.7896,1.7761,1.8125,2.3368,2.2373,0.0,2.3059,0.0,0.0,0.0,2.4747,0.0,0.0,2.8958,2.948,2.842,0.0,0.0,0.0,0.0,0.0,0.0,0.0,0.0,0.0,0.0,0.0,0.0,0.0,0.0,0.0,0.0,0.0,0.0,2.9139,2.9084,2.9324,2.9084,2.9013,2.9124,2.8588,2.8483,2.8768,2.8618,2.9033,2.9966,3.0102,3.0227,3.0352,3.0352,3.0352,3.0352,3.0352,3.0076,2.9827,2.9676,2.9358,2.8959,2.8464,2.8856,2.9494,2.8883,2.8998,2.9211,2.8438,2.8347,2.8578,2.8864,2.9434,3.0237,3.1192,3.1254,3.1163,3.1633,3.1748,3.179,3.1807,3.2208,3.2321,3.1523,3.1942,3.2218,3.1389,3.1642,3.1909,3.1603,3.105,3.0151,2.869,2.8602,2.8222,2.6914,2.763,2.9245,3.1774,3.1112,3.063,3.1003,2.7006,2.351,2.1199,2.0527,2.0113,1.9912,2.0873,2.0859,1.9644,1.8555,1.7691,1.7079,1.6785,1.6785,1.7061,1.7553,1.7905,2.3292,2.2428,0.0,2.3916,2.3701,2.3258,2.4537,0.0,0.0,0.0,0.0,3.0321,2.9817,3.0339,0.0,0.0,0.0,0.0,0.0,0.0,0.0,0.0,0.0,0.0,0.0,0.0,0.0,0.0,0.0,0.0,0.0,2.8462,2.8462,2.8609,2.8462,2.8347,2.8347,2.7977,2.782,2.7925,2.7903,2.8339,2.9194,2.9418,2.9713,2.992,2.9926,2.9947,2.9926,2.9673,2.9408,2.9132,2.8948,2.8717,2.8356,2.7862,2.7998,2.842,2.8503,2.853,2.845,2.8211,2.8155,2.8264,2.8579,2.9093,2.9769,3.0732,3.0986,3.1061,3.1272,3.1272,3.1408,3.2082,3.2359,3.2503,3.2345,3.2561,3.2632,3.2128,3.2359,3.2349,3.1744,3.1132,3.0371,2.9118,2.869,2.8001,2.6661,2.6837,2.783,2.9856,3.0773,3.1388,3.1691,2.895,2.575,2.2349,2.0823,1.9353,1.7802,2.0,2.0747,1.9702,1.8881,1.7882,1.6665,1.669,1.6525,1.6193,1.6615,1.6972,2.2645,0.0,0.0,2.485,2.3951,0.0,2.5587,2.6437,2.7573,3.0729,0.0,3.1197,3.2312,0.0,0.0,0.0,0.0,0.0,0.0,0.0,0.0,0.0,0.0,0.0,0.0,0.0,0.0,0.0,0.0,0.0,0.0,2.7278,2.7278,2.7278,2.7278,2.7278,2.7278,2.7233,2.7258,2.725,2.7442,2.7633,2.7883,2.8396,2.895,2.9466,2.9392,2.9416,2.9381,2.8889,2.8665,2.8586,2.8149,2.7954,2.7862,2.7392,2.7231,2.7301,2.8235,2.8007,2.7452,2.8235,2.7799,2.7302,2.8676,2.8991,2.9123,3.0646,3.1061,3.1123,3.1347,3.1421,3.1495,3.1877,3.2109,3.2228,3.2563,3.2804,3.2846,3.2489,3.2818,3.2835,3.1763,3.0759,3.0038,2.9734,2.7932,2.6321,2.5584,2.5407,2.6071,2.8071,2.99,3.1142,3.156,3.1258,2.8658,2.3051,2.1945,1.9703,1.5706,1.8596,2.0276,2.0277,1.9487,1.8336,1.6841,1.6653,1.62,1.5526,1.5368,1.5694,2.4049,2.3126,0.0,0.0,2.2354,2.3406,2.7752,2.7963,2.8195,3.1517,3.1651,3.1647,0.0,0.0,0.0,0.0,0.0,0.0,0.0,0.0,0.0,0.0,0.0,0.0,0.0,0.0,0.0,0.0,0.0,0.0,2.7026,2.6896,2.6863,2.6863,2.7004,2.7004,2.6863,2.6794,2.6701,0.0,2.6517,2.655,2.6646,2.7854,2.8642,2.8877,2.8902,2.8867,2.8902,2.8763,2.8522,2.8126,2.8023,2.7736,2.738,2.7265,2.7231,2.7301,2.8235,2.8383,2.8235,2.8223,2.8162,2.8285,2.888,2.9108,2.9466,3.1336,3.1776,3.1776,3.2273,3.2417,3.2489,3.2704,3.2372,3.1901,3.1856,3.2173,3.2632,3.2846,3.2471,3.2097,3.1958,3.1029,3.0055,2.964,2.7702,2.6439,2.6793,2.5978,2.6058,2.8044,2.8615,3.0264,3.3594,3.1023,2.7725,2.4345,2.2048,1.8847,1.4463,1.7567,1.9371,1.9372,1.8532,1.8274,1.8639,1.66,1.5877,1.6403,1.5706,1.5468,2.3219,0.0,0.0,2.3333,0.0,2.5394,2.7878,2.8269,2.8811,3.1194,3.1575,3.1917,0.0,0.0,0.0,0.0,0.0,0.0,0.0,0.0,0.0,0.0,0.0,0.0,0.0,0.0,0.0,0.0,0.0,2.6304,2.6168,2.6062,2.5955,2.5955,2.6073,2.6092,2.6012,2.5964,2.589,2.5782,2.5884,2.6124,2.6595,2.7685,2.8356,2.8684,2.8526,2.8538,2.8514,2.8103,2.7851,2.7621,2.7621,2.7461,2.7231,2.7301,2.7371,2.7534,2.8924,2.8858,2.8327,2.8924,2.8741,2.8348,2.9151,2.9426,2.9808,3.1536,3.1996,3.1982,3.2345,3.2561,3.2621,3.2485,3.2439,3.2349,3.2189,3.2425,3.2704,3.2846,3.2441,3.1985,3.1611,3.0502,2.949,2.8824,2.7613,2.679,2.6816,2.5893,2.5648,2.6611,2.76,2.9082,3.1267,2.8732,2.5999,2.3631,2.0352,1.7008,1.3646,1.5853,1.7229,1.7472,1.7671,1.7561,1.7195,1.6281,1.5876,1.5961,1.5521,1.524,2.204,0.0,2.3673,2.5133,2.615,0.0,2.7311,2.8025,2.9047,3.0537,3.1197,0.0,0.0,0.0,0.0,0.0,0.0,0.0,0.0,0.0,0.0,0.0,0.0,0.0,0.0,0.0,0.0,0.0,0.0,2.5466,2.5274,2.5263,2.5167,2.5167,2.5263,2.5243,2.5167,2.5253,2.5296,2.5306,2.5505,2.6102,2.6985,2.7573,2.809,2.8504,2.8256,2.8101,2.8066,2.7474,2.7231,2.7231,2.7231,2.7231,2.7301,2.7441,2.7522,2.7834,2.9626,2.9341,2.8339,3.0012,2.9406,2.8339,2.9626,2.9858,3.0088,3.1716,3.2228,3.2318,3.2208,3.2552,3.2639,3.2125,3.2528,3.2905,3.2693,3.2763,3.2846,3.2704,3.2407,3.1812,3.0678,2.9717,2.876,2.7855,2.763,2.7297,2.6427,2.5804,2.5382,2.5253,2.6569,2.7586,2.7917,2.6586,2.4689,2.2256,1.8988,1.5876,1.3171,1.4018,1.4833,1.5397,1.6716,1.6739,1.543,1.5861,1.5849,1.5363,1.5234,1.505,0.0,0.0,2.3436,0.0,2.4529,2.4762,0.0,0.0,2.8125,0.0,0.0,0.0,0.0,0.0,0.0,0.0,0.0,0.0,0.0,0.0,0.0,0.0,0.0,0.0,0.0,0.0,0.0,0.0,2.5647,2.5605,2.553,2.5295,2.5167,2.5167,2.5412,2.5477,2.52,2.5616,2.5754,2.5561,2.5749,2.629,2.7185,2.7254,2.7557,2.7987,2.7545,2.7452,2.7615,2.7464,2.7371,2.7231,2.7231,2.7301,2.7441,2.7522,2.7615,2.8111,2.9704,2.9704,2.9238,3.0833,3.0228,2.9238,3.0758,3.067,3.0367,3.2503,3.3157,3.3073,3.2829,3.2958,3.3078,3.3006,3.2968,3.2823,3.2483,3.2471,3.2489,3.2704,3.185,3.0707,2.9278,2.9067,2.8772,2.7442,2.7564,2.7577,2.6973,2.6277,2.5791,2.5791,2.5429,2.5896,2.7597,2.7507,2.5684,2.1668,2.1011,1.8412,1.3044,1.2831,1.3272,1.4206,1.5483,1.6481,1.7168,1.5602,1.5263,1.6058,1.5342,1.5034,2.3697,2.306,2.2731,0.0,2.4388,2.3688,2.7258,0.0,2.7173,2.9752,0.0,0.0,0.0,0.0,0.0,0.0,0.0,0.0,0.0,0.0,0.0,0.0,0.0,0.0,0.0,0.0,0.0,0.0,2.555,2.5498,2.5423,2.5264,2.5168,2.52,2.5317,2.5317,2.52,2.5423,2.5518,2.5644,2.5728,2.6135,2.6775,2.6775,2.736,2.8203,2.7926,2.7846,2.7846,2.7777,2.7615,2.7371,2.7371,2.7371,2.7383,2.7626,2.78,2.8122,2.9484,2.9704,2.9626,3.0833,3.067,3.0291,3.1341,3.1189,3.0924,3.2333,3.2593,3.239,3.2255,3.2382,3.2528,3.2397,3.2654,3.2844,3.256,3.2779,3.3002,3.2917,3.2079,3.1153,3.029,2.9789,2.9331,2.8929,2.8407,2.7994,2.7571,2.6684,2.5873,2.5324,2.4992,2.5063,2.5847,2.4982,2.3311,2.0815,1.9195,1.6906,1.3613,1.318,1.3222,1.3729,1.4303,1.5019,1.5821,1.4968,1.4757,1.517,1.4907,1.4748,0.0,0.0,2.2475,2.5353,2.4115,2.3032,0.0,0.0,2.6286,0.0,0.0,0.0,0.0,0.0,0.0,0.0,0.0,0.0,0.0,0.0,0.0,0.0,0.0,0.0,0.0,0.0,0.0,0.0,2.5346,2.5378,2.5408,2.5389,2.54,2.5408,2.5408,2.5408,2.5408,2.5408,2.5525,2.5663,2.5706,2.5968,2.6528,2.661,2.7267,2.8351,2.8191,2.8179,2.8179,2.803,2.7869,2.7615,2.7615,2.7534,2.7545,2.8099,2.8339,2.8498,2.9626,3.0152,3.0443,3.1044,3.1088,3.1116,3.1784,3.1507,3.117,3.1968,3.1994,3.1809,3.1588,3.1675,3.1818,3.161,3.2014,3.2553,3.2661,3.303,3.3157,3.2789,3.2203,3.1705,3.1202,3.0599,3.0124,3.0102,2.9356,2.8664,2.8443,2.7259,2.6223,2.554,2.5004,2.4646,2.449,2.3217,2.1743,2.0217,1.8123,1.6168,1.4526,1.3835,1.3614,1.3846,1.3556,1.3771,1.4455,1.4281,1.4178,1.4194,1.4113,1.4124,0.0,2.3329,0.0,2.388,2.3178,0.0,0.0,0.0,0.0,0.0,0.0,0.0,0.0,0.0,0.0,0.0,0.0,0.0,0.0,0.0,0.0,0.0,0.0,0.0,0.0,0.0,0.0,0.0,2.4962,2.5187,2.579,2.5895,2.5895,2.5884,2.5884,2.5884,2.5884,2.5884,2.5895,2.5895,2.5895,2.6135,2.6528,2.694,2.7441,2.7962,2.7881,2.803,2.8179,2.8179,2.803,2.7881,2.7881,2.795,2.8247,2.8991,2.9459,2.9704,3.0519,3.1341,3.2001,3.2001,3.1765,3.1527,3.2316,3.1718,3.0867,3.1669,3.2076,3.1983,3.1254,3.116,3.1286,3.116,3.131,3.1741,3.2765,3.2676,3.2359,3.2023,3.1936,3.1734,3.1141,3.0936,3.072,3.0198,2.991,2.9701,2.9701,2.8254,2.7193,2.7193,2.5541,2.449,2.449,2.4215,2.2898,2.0065,1.9787,1.8465,1.5707,1.4442,1.4091,1.4706,1.3541,1.3426,1.4395,1.3649,1.3396,1.3631,1.2999,1.3028,0.0,0.0,0.0,2.3832,2.2419,2.1233,2.3569,2.4127,0.0,0.0,0.0,0.0,0.0,0.0,0.0,0.0,0.0,0.0,0.0,0.0,0.0,0.0,0.0,0.0,0.0,0.0,0.0,0.0,0.0,2.4541,2.4622,2.4724,2.4946,2.5261,2.5587,2.5738,2.5673,2.5738,2.5676,2.5676,2.5247,2.5074,2.5218,2.5652,2.5916,2.6165,2.6636,2.7482,2.8419,2.8419,2.8259,2.8111,2.8111,2.803,2.8111,2.9081,2.9447,2.9537,2.9999,3.067,3.1275,3.0977,3.1141,3.1474,3.2012,3.1659,3.1148,3.1446,3.1272,3.0898,3.0606,3.0563,3.0654,3.1197,3.0849,3.0705,3.1626,3.1623,3.1362,3.1241,3.1341,3.1375,3.115,3.115,3.1183,3.1055,3.0552,3.0098,2.9869,2.8524,2.7384,2.6816,2.5696,2.4897,2.4562,2.4418,2.3304,2.0646,2.0228,1.8971,1.6384,1.5622,1.5232,1.5378,1.4567,1.41,1.4088,1.3387,1.309,1.315,1.2542,1.2482,2.2702,0.0,0.0,0.0,0.0,2.0497,2.233,0.0,0.0,0.0,0.0,0.0,0.0,0.0,0.0,0.0,0.0,0.0,0.0,0.0,0.0,0.0,0.0,0.0,0.0,0.0,0.0,0.0,0.0,0.0,2.4252,2.4115,2.4186,2.4416,2.4759,2.4826,2.4762,2.4826,2.4775,2.4764,2.4341,2.409,2.408,2.4483,2.4747,2.4837,2.5604,2.6788,2.8155,2.8155,2.8183,2.8339,2.8339,2.8191,2.8203,2.916,2.9679,2.9909,2.9781,3.0367,3.1201,3.0585,3.078,3.1227,3.1754,3.1524,3.1036,3.1112,3.0794,3.0507,3.0568,3.056,3.062,3.127,3.0733,3.0233,3.0699,3.0568,3.0454,3.0454,3.0631,3.0882,3.1254,3.1145,3.1259,3.173,3.1103,3.0558,3.0325,2.8877,2.7746,2.71,2.5948,2.5111,2.4706,2.4562,2.3606,2.1467,2.0775,1.9486,1.7407,1.659,1.6095,1.589,1.5355,1.4759,1.4129,1.3335,1.2984,1.2938,1.2355,1.2046,0.0,0.0,0.0,0.0,0.0,0.0,1.9839,0.0,0.0,0.0,0.0,0.0,0.0,0.0,0.0,0.0,0.0,0.0,0.0,0.0,0.0,0.0,0.0,0.0,0.0,0.0,0.0,0.0,2.4491,2.4314,2.4971,2.4219,2.3684,2.3545,2.3545,2.3384,2.3223,2.3223,2.3223,2.3223,2.3132,2.3122,2.3202,2.3652,2.3982,2.4162,2.4859,2.5922,2.7281,2.7359,2.7758,2.8486,2.8486,2.8498,2.859,2.9406,3.0228,3.082,2.9999,3.082,3.2001,3.1167,3.0793,3.0879,3.1664,3.1272,3.0642,3.0762,3.0821,3.0821,3.1014,3.1197,3.1338,3.1354,3.0993,3.0507,3.01,2.9845,2.9626,2.9626,2.9768,3.0291,3.1206,3.0983,3.0908,3.1896,3.1482,3.0986,3.0986,2.9394,2.8255,2.817,2.6334,2.5135,2.5123,2.4778,2.3899,2.2435,2.1386,2.0213,1.8793,1.7368,1.6598,1.6379,1.5778,1.525,1.4675,1.3508,1.3003,1.3089,1.2413,1.1716,2.1323,0.0,0.0,0.0,0.0,0.0,0.0,0.0,0.0,0.0,0.0,0.0,0.0,0.0,0.0,0.0,0.0,0.0,0.0,0.0,0.0,0.0,0.0,0.0,0.0,0.0,0.0,0.0,2.4991,2.4578,2.4363,2.4071,2.3827,2.3486,2.3625,2.3625,2.3416,2.3234,2.3223,2.3223,2.2592,2.229,2.228,2.2325,2.2478,2.2719,2.3199,2.4004,2.5065,2.5904,2.6745,2.7451,2.7451,2.7925,2.859,2.9406,3.0228,3.0895,3.0807,3.1328,3.2078,3.1785,3.1323,3.1024,3.1665,3.1221,3.0642,3.0762,3.0702,3.0702,3.0702,3.1014,3.1338,3.1565,3.124,3.0828,3.0478,2.9666,2.8743,2.7995,2.8462,2.8991,2.9303,3.0075,3.0607,3.0771,3.1035,3.1123,3.0986,2.9889,2.8832,2.8049,2.6954,2.5829,2.4741,2.4838,2.3936,2.1617,2.184,2.1121,1.9029,1.8574,1.8212,1.8054,1.6738,1.6065,1.602,1.4387,1.3418,1.3185,1.2447,1.195,0.0,0.0,0.0,0.0,0.0,0.0,1.9945,2.114,0.0,0.0,0.0,0.0,0.0,0.0,0.0,0.0,0.0,0.0,0.0,0.0,0.0,0.0,0.0,0.0,0.0,2.6609,2.6215,2.551,2.5209,2.4824,2.4362,2.3519,2.3078,2.3122,2.2977,2.2752,2.2536,2.2436,2.2357,2.2347,2.1865,2.1597,2.1509,2.1403,2.1502,2.1731,2.2069,2.2595,2.334,2.4093,2.5264,2.6569,2.6874,2.7415,2.8119,2.8785,2.9845,3.0895,3.0732,3.1402,3.2236,3.2262,3.1763,3.1264,3.1907,3.1431,3.0702,3.0895,3.0895,3.0762,3.0642,3.1203,3.1795,3.1817,3.2022,3.1867,3.0803,2.9935,2.8942,2.7603,2.7696,2.8075,2.8462,2.9081,2.9614,2.9781,3.033,3.0646,3.0495,2.9881,2.8923,2.7508,2.6541,2.5441,2.42,2.3998,2.3352,2.1797,2.1628,2.0949,1.9413,1.9,1.8755,1.8705,1.7794,1.7187,1.6826,1.501,1.3847,1.3307,1.2863,1.2543,0.0,0.0,0.0,0.0,0.0,0.0,1.9581,2.131,2.2996,0.0,0.0,0.0,0.0,0.0,0.0,0.0,0.0,0.0,0.0,0.0,0.0,0.0,0.0,0.0,2.5597,2.5484,2.5421,2.5358,2.5197,2.4932,2.4625,2.287,2.2113,2.2585,2.1939,2.1436,2.1282,2.1205,2.1205,2.1205,2.1205,2.1138,2.0906,2.0994,2.1071,2.1292,2.1466,2.1752,2.2155,2.2338,2.3643,2.5628,2.6267,2.6863,2.7321,2.785,2.9229,3.0654,3.0126,3.0961,3.2327,3.2494,3.204,3.1448,3.2148,3.1675,3.0821,3.1014,3.1014,3.0969,3.0789,3.1598,3.2399,3.2054,3.2794,3.2917,3.0904,3.0303,2.9628,2.7822,2.7371,2.7464,2.8235,2.8315,2.8407,2.8846,2.9471,2.9871,2.9704,2.9328,2.8462,2.6875,2.5604,2.4437,2.3497,2.2798,2.2424,2.2328,2.1063,2.0168,1.977,1.9078,1.8735,1.8829,1.866,1.7976,1.6883,1.5341,1.4253,1.362,1.3492,1.3219,0.0,0.0,0.0,0.0,0.0,0.0,1.969,2.004,2.067,0.0,0.0,0.0,0.0,0.0,0.0,0.0,0.0,0.0,0.0,0.0,0.0,0.0,0.0,0.0,2.6356,2.6294,2.6047,2.5471,2.4858,2.4274,2.3735,2.2883,2.2304,2.2014,2.1807,2.1731,2.1655,2.1512,2.1436,2.1436,2.1282,2.1205,2.1138,2.1275,2.1527,2.166,2.1902,2.2025,2.2098,2.2507,2.3221,2.419,2.4528,2.5489,2.668,2.6997,2.8147,2.9715,2.9774,3.0463,3.1459,3.1889,3.1696,3.1375,3.1653,3.1257,3.0642,3.0702,3.0702,3.0819,3.1206,3.1792,3.2227,3.2019,3.2444,3.239,3.0506,3.005,2.9512,2.7822,2.7371,2.7219,2.7464,2.8007,2.8383,2.8119,2.8767,2.9394,2.9626,2.8448,2.7287,2.68,2.5391,2.4011,2.2724,2.282,2.2264,2.073,2.111,2.0811,1.9444,1.9457,1.9466,1.9226,1.7751,1.659,1.5721,1.5089,1.4651,1.4382,1.3605,1.3212,0.0,0.0,0.0,1.9705,0.0,0.0,0.0,1.9937,2.0524,2.1145,2.1582,2.1903,2.1888,0.0,0.0,0.0,0.0,0.0,0.0,0.0,0.0,0.0,0.0,0.0,2.577,2.5724,2.5608,2.5476,2.4406,2.3859,2.4025,2.3096,2.2379,2.2041,2.1975,2.1959,2.1959,2.1731,2.1731,2.1807,2.1589,2.1436,2.1359,2.1476,2.164,2.1783,2.1922,2.2076,2.2248,2.2453,2.2778,2.3205,2.3918,2.4664,2.5442,2.6451,2.7627,2.8832,2.949,3.0268,3.1103,3.1404,3.1131,3.073,3.1093,3.0835,3.0447,3.0341,3.0266,3.0262,3.0578,3.0906,3.1191,3.1144,3.1466,3.1375,2.9795,2.9487,2.9032,2.7592,2.7301,2.7231,2.7231,2.7534,2.7684,2.7267,2.7891,2.8342,2.7975,2.7411,2.6551,2.5127,2.4171,2.3177,2.1894,2.1461,2.0981,2.0275,2.0207,1.9818,1.9008,1.9127,1.9199,1.9199,1.8046,1.6989,1.6171,1.5362,1.451,1.3763,1.3302,1.3096,0.0,0.0,0.0,0.0,0.0,1.9654,0.0,0.0,0.0,2.0628,2.1269,0.0,0.0,0.0,0.0,0.0,0.0,0.0,0.0,0.0,0.0,0.0,0.0,0.0,0.0,2.4311,2.4506,2.5042,2.3806,2.3343,2.4126,2.2776,2.2116,2.233,2.2062,2.2017,2.2176,2.2035,2.2035,2.2176,2.1949,2.1807,2.1665,2.1686,2.1859,2.2022,2.1994,2.2157,2.2454,2.2476,2.2499,2.2488,2.3663,2.4047,2.4225,2.5712,2.6848,2.7748,2.8743,2.9554,3.0246,3.053,3.0275,2.9953,3.0391,3.0397,3.019,3.0097,2.9898,2.9837,2.9888,3.0076,3.0159,3.0198,3.0362,3.0277,2.902,2.8863,2.8573,2.7452,2.7231,2.7313,2.7231,2.7231,2.7033,2.6427,2.6955,2.699,2.6052,2.6152,2.5451,2.3403,2.2812,2.217,2.1118,2.0255,1.9863,2.0051,1.9222,1.8699,1.8515,1.8497,1.869,1.9008,1.8175,1.7418,1.6811,1.5421,1.4172,1.3082,1.2948,1.2948,0.0,0.0,0.0,0.0,1.9413,0.0,0.0,0.0,1.9447,1.9319,0.0,0.0,0.0,0.0,0.0,0.0,0.0,0.0,0.0,0.0,0.0,0.0,0.0,0.0,0.0,2.2369,2.2882,2.3803,2.2687,2.2146,2.2641,2.1383,2.114,2.2358,2.1816,2.1755,2.2327,2.2327,2.2327,2.2402,2.2327,2.2338,2.2294,2.2507,2.2571,2.2637,2.28,2.2777,2.2649,2.2852,2.2713,2.2403,2.2735,2.3307,2.3865,2.4243,2.4962,2.59,2.6647,2.7127,2.765,2.8313,2.8807,2.9236,2.9761,2.986,2.987,2.9822,2.9822,2.9874,3.0298,3.0314,3.0198,3.0026,2.9866,2.9397,2.8247,2.8339,2.8259,2.7394,2.7557,2.7719,2.7231,2.7231,2.6826,2.5806,2.5739,2.5619,2.5295,2.4115,2.3278,2.3185,2.2087,2.1091,2.042,2.0411,2.0167,1.945,1.9301,1.8886,1.8132,1.8052,1.8259,1.8623,1.6988,1.6203,1.6331,1.4561,1.3717,1.37,1.2983,1.2625,0.0,0.0,0.0,0.0,0.0,0.0,2.0455,0.0,1.913,0.0,0.0,0.0,0.0,0.0,0.0,0.0,1.8595,0.0,0.0,0.0,0.0,0.0,0.0,0.0,0.0,0.0,0.0,0.0,2.2191,2.1386,2.121,2.1172,2.1206,2.1251,2.129,2.1602,2.2135,2.2061,2.22,2.2553,2.2499,2.2424,2.2424,2.2486,2.2562,2.2682,2.2756,2.2872,2.2894,2.299,2.2894,2.2787,2.2842,2.2886,2.3057,2.3974,2.4454,2.4823,2.5648,2.6017,2.6287,2.686,2.7817,2.8716,2.8834,2.9141,2.9387,2.9387,2.9338,2.921,2.9318,2.9072,2.88,2.865,2.8431,2.8051,2.7626,2.7638,2.7626,2.7149,2.7138,2.7046,2.6343,2.6541,2.6473,2.5613,2.5256,2.4801,2.3894,2.2977,2.2278,2.1912,2.1131,2.0586,2.0342,2.0108,1.9784,1.9301,1.8834,1.8353,1.804,1.804,1.794,1.7787,1.6924,1.6097,1.5457,1.4726,1.4043,1.363,1.3193,1.29,2.0316,0.0,0.0,0.0,0.0,0.0,0.0,0.0,0.0,0.0,0.0,0.0,0.0,0.0,0.0,0.0,0.0,1.8517,0.0,0.0,0.0,0.0,0.0,0.0,0.0,0.0,0.0,2.2376,2.1562,2.0847,2.0333,2.0867,2.1095,2.075,2.1013,2.1334,2.1797,2.1865,2.2091,2.2509,2.2585,2.2574,2.2553,2.2563,2.2606,2.2787,2.2787,2.2883,2.3001,2.3001,2.3001,2.3001,2.3097,2.2863,2.2649,2.369,2.4048,2.4213,2.49,2.5233,2.5501,2.6128,2.7054,2.8014,2.8158,2.8557,2.8867,2.8639,2.8457,2.8295,2.8173,2.7659,2.7322,2.7512,2.7258,2.6977,2.7196,2.7231,2.7103,2.671,2.6606,2.6366,2.5378,2.5813,2.5893,2.4974,2.4555,2.3916,2.2667,2.2283,2.1761,2.0906,2.0644,2.0342,2.0108,1.9803,1.9478,1.9152,1.8434,1.804,1.804,1.804,1.778,1.7178,1.6904,1.6203,1.5166,1.4969,1.4408,1.3673,1.3433,1.3273,0.0,0.0,0.0,2.0782,0.0,0.0,0.0,0.0,1.876,0.0,0.0,0.0,0.0,0.0,0.0,0.0,0.0,0.0,0.0,0.0,0.0,0.0,0.0,0.0,0.0,0.0,0.0,2.0716,2.0518,2.0399,2.0291,2.0134,2.0534,2.1529,2.0928,2.0849,2.1323,2.1941,2.2158,2.2013,2.2698,2.3001,2.3001,2.3001,2.3001,2.3001,2.3001,2.3001,2.3001,2.3001,2.3001,2.3012,2.3216,2.313,2.3001,2.3012,2.3453,2.41,2.41,2.4596,2.5281,2.6262,2.6648,2.6881,2.796,2.8314,2.8166,2.7474,2.7264,2.72,2.7099,2.6308,2.5956,2.7311,2.6937,2.6382,2.7035,2.7231,2.6919,2.6095,2.5914,2.5596,2.4711,2.5098,2.5007,2.352,2.3281,2.2878,2.1956,2.1828,2.1512,2.0722,2.0789,2.0557,1.9715,1.9645,1.9329,1.878,1.8282,1.804,1.804,1.804,1.778,1.7178,1.6646,1.6218,1.598,1.5064,1.4408,1.4095,1.3859,1.3645,0.0,0.0,2.1639,2.2248,0.0,0.0,0.0,0.0,0.0,0.0,0.0,0.0,0.0,0.0,0.0,0.0,0.0,0.0,0.0,0.0,0.0,0.0,0.0,0.0,0.0,0.0,0.0,2.0158,1.9651,1.9218,1.9024,1.958,2.0028,2.0205,2.025,2.0487,2.1032,2.1265,2.168,2.223,2.2464,2.268,2.3001,2.3001,2.3001,2.3001,2.3001,2.3001,2.3001,2.3001,2.3001,2.3001,2.3097,2.3169,2.3205,2.3224,2.3238,2.3345,2.3345,2.3932,2.4767,2.5444,2.6176,2.6967,2.7666,2.7669,2.7442,2.7563,2.7008,2.6347,2.6364,2.5902,2.5552,2.5721,2.5574,2.5532,2.578,2.5814,2.561,2.5114,2.5001,2.4609,2.3581,2.3556,2.3634,2.3225,2.2915,2.2431,2.1904,2.1578,2.1272,2.0867,2.0479,2.0098,1.9784,1.9399,1.9082,1.87,1.8282,1.804,1.804,1.804,1.7581,1.6638,1.642,1.5904,1.5064,1.4393,1.3976,1.3892,1.3495,1.3033,2.1807,2.189,0.0,2.2538,2.194,0.0,2.1963,0.0,0.0,0.0,0.0,0.0,0.0,0.0,0.0,0.0,0.0,0.0,0.0,1.8683,0.0,0.0,0.0,0.0,0.0,0.0,1.9114,1.9363,1.9008,1.8645,0.0,0.0,1.9444,1.9233,1.9633,1.9976,2.0292,2.0686,2.1109,2.1588,2.1894,2.225,2.2669,2.2691,2.2872,2.3001,2.3001,2.3001,2.3001,2.3001,2.3001,2.3001,2.3097,2.3169,2.3216,2.3224,2.3108,2.3012,2.3323,2.3646,2.4021,2.4615,2.555,2.6389,2.6718,2.6958,2.7092,2.6922,2.6401,2.591,2.5951,2.5392,2.4909,2.5077,2.488,2.4704,2.4882,2.4915,2.4792,2.4135,2.4024,2.3716,2.2636,2.2397,2.2475,2.2706,2.2442,2.2101,2.1807,2.1578,2.1272,2.0944,2.0479,2.0089,1.9627,1.924,1.8843,1.8612,1.8201,1.804,1.8121,1.7789,1.7254,1.6492,1.6122,1.5622,1.4832,1.4156,1.3708,1.3509,1.3151,1.2561]},{"header":{"parameterUnit":"m.s-1","parameterCategory":1,"la1":30.6,"la2":29.2853,"lo1":-89.7004,"lo2":-87.6739,"dy":0.0162,"dx":0.0183,"nx":112,"ny":82,"refTime":"2023-09-13T00:00:00:Z","depth":0,"parameterNumber":3,"parameterNumberName":"V-component_of_WINDS"},"data":[0.0,0.0,0.0,0.0,0.0,0.0,0.0,0.0,0.0,0.0,0.0,0.0,0.0,0.0,0.0,0.0,0.0,0.0,0.0,0.0,0.0,0.0,0.0,0.0,0.0,0.0,0.0,0.0,0.0,0.0,0.0,0.0,0.0,0.0,0.0,0.0,0.0,0.0,0.0,0.0,0.0,0.0,0.0,0.0,0.0,0.0,0.0,0.0,0.0,0.0,0.0,0.0,0.0,0.0,0.0,0.0,0.0,0.0,0.0,0.0,0.0,0.0,0.0,0.0,0.0,0.0,0.0,0.0,0.0,0.0,0.0,0.0,0.0,0.0,0.0,0.0,0.0,0.0,0.0,0.0,0.0,0.0,0.0,0.0,0.0,0.0,0.0,0.0,0.0,0.0,-0.222,-0.1083,0.0336,0.1081,0.0905,0.0905,0.0877,0.076,0.0,0.0,0.0,0.0,0.0,0.0,0.0,0.0,0.0,0.0,0.0,0.0,0.0,0.0,0.0,0.0,0.0,0.0,0.0,0.0,0.0,0.0,0.0,0.0,0.0,0.0,0.0,0.0,0.0,0.0,0.0,0.0,0.0,0.0,0.0,0.0,0.0,0.0,0.0,0.0,0.0,0.0,0.0,0.0,0.0,0.0,0.0,0.0,0.0,0.0,0.0,0.0,0.0,0.0,0.0,0.0,0.0,0.0,0.0,0.0,0.0,0.0,0.0,0.0,0.0,0.0,0.0,0.0,0.0,0.0,0.0,0.0,0.0,0.0,0.0,0.0,0.0,0.0,0.0,0.0,0.0,0.0,0.0,0.0,0.0,0.0,0.0,0.0,0.0,0.0,0.0,0.0,0.0,0.0,0.0,0.0,0.0,0.0,0.0,0.0,0.0,0.0,0.0,0.0,-0.2701,-0.1318,0.0182,0.1025,0.0997,0.0936,0.0787,0.0558,0.0,0.0,0.0,0.0,0.0,0.0,0.0,0.0,0.0,0.0,0.0,0.0,0.0,0.0,0.0,0.0,0.0,0.0,0.0,0.0,0.0,0.0,0.0,0.0,0.0,0.0,0.0,0.0,0.0,0.0,0.0,0.0,0.0,0.0,0.0,0.0,0.0,0.0,0.0,0.0,0.0,0.0,0.0,0.0,0.0,0.0,0.0,0.0,0.0,0.0,0.0,0.0,0.0,0.0,0.0,0.0,0.0,0.0,0.0,0.0,0.0,0.0,0.0,0.0,0.0,0.0,0.0,0.0,0.0,0.0,0.0,0.0,0.0,0.0,0.0,0.0,0.0,0.0,0.0,0.0,0.0,0.0,0.0,0.0,0.0,0.0,0.0,0.0,0.0,0.0,0.0,0.0,0.0,0.0,0.0,0.0,0.0,0.0,0.0,0.0,0.0,0.0,0.0,-0.1461,-0.1014,-0.0123,0.0679,0.1106,0.1029,0.0967,0.0935,0.1022,0.147,0.0,0.0,0.0,0.0,0.0,0.0,0.0,0.0,0.0,0.0,0.0,0.0,0.0,0.0,0.0,0.0,0.0,0.0,0.0,0.0,0.0,0.0,0.0,0.0,0.0,0.0,0.0,0.0,0.0,0.0,0.0,0.0,0.0,0.0,0.0,0.0,0.0,0.0,0.0,0.0,0.0,0.0,0.0,0.0,0.0,0.0,0.0,0.0,0.0,0.0,0.0,0.0,0.0,0.0,0.0,0.0,0.0,0.0,0.0,0.0,0.0,0.0,0.0,0.0,0.0,0.0,0.0,0.0,0.0,0.0,0.0,0.0,0.0,0.0,0.0,0.0,0.0,0.0,0.0,0.0,0.0,0.0,0.0,0.0,0.0,0.0,0.0,0.0,0.0,0.0,0.0,0.0,0.0,0.0,0.0,0.0,0.0,0.0,0.0,0.0,0.0,0.0,-0.0299,0.0124,0.0378,0.0946,0.1195,0.1062,0.0811,0.1031,0.1748,0.2131,0.0,0.0,0.0,0.0,0.0,0.0,0.0,0.0,0.0,0.0,0.0,0.0,0.0,0.0,0.0,0.0,0.0,0.0,0.0,0.0,0.0,0.0,0.0,0.0,0.0,0.0,0.0,0.0,0.0,0.0,0.0,0.0,0.0,0.0,0.0,0.0,0.0,0.0,0.0,0.0,0.0,0.0,0.0,0.0,0.0,0.0,0.0,0.0,0.0,0.0,0.0,0.0,0.0,0.0,0.0,0.0,0.0,0.0,0.0,0.0,0.0,0.0,0.0,0.0,0.0,0.0,0.0,0.0,0.0,0.0,0.0,0.0,0.0,0.0,0.0,0.0,0.0,0.0,0.0,0.0,0.0,0.0,0.0,0.0,0.0,0.0,0.0,0.0,0.0,0.0,0.0,0.0,0.0,0.0,0.0,0.0,0.0,0.0,0.0,0.0,0.0,0.0,-0.1166,-0.1195,-0.1196,0.0201,0.1128,0.1098,0.0451,0.0805,0.2482,0.3413,0.0,0.0,0.0,0.0,0.0,0.0,0.0,0.0,0.0,0.0,0.0,0.0,0.0,0.0,0.0,0.0,0.0,0.0,0.0,0.0,0.0,0.0,0.0,0.0,0.0,0.0,0.0,0.0,0.0,0.0,0.0,0.0,0.0,0.0,0.0,0.0,0.0,0.0,0.0,0.0,0.0,0.0,0.0,0.0,0.0,0.0,0.0,0.0,0.0,0.0,0.0,0.0,0.0,0.0,0.0,0.0,0.0,0.0,0.0,0.0,0.0,0.0,0.0,0.0,0.0,0.0,0.0,0.0,0.0,0.0,0.0,0.0,0.0,0.0,0.0,0.0,0.0,0.0,0.0,0.0,0.0,0.0,0.0,0.0,0.0,0.0,0.0,0.0,0.0,0.0,0.0,0.0,0.0,0.0,0.0,0.0,0.0,0.0,0.0,0.0,0.0,0.0,-0.0889,-0.1049,0.0,0.0134,0.0804,0.1063,0.0398,0.0772,0.2569,0.0,0.0,0.0,0.0,0.0,0.0,0.0,0.0,0.0,0.0,0.0,0.0,0.0,0.0,0.0,0.0,0.0,0.0,0.0,0.0,0.0,0.0,0.0,0.0,0.0,0.0,0.0,0.0,0.0,0.0,0.0,0.0,0.0,0.0,0.0,0.0,0.0,0.0,0.0,0.0,0.0,0.0,0.0,0.0,0.0,0.0,0.0,0.0,0.0,0.0,0.0,0.0,0.0,0.0,0.0,0.0,0.0,0.0,0.0,0.0,0.0,0.0,0.0,0.0,0.0,0.0,0.0,0.0,0.0,0.0,0.0,0.0,0.0,0.0,0.0,0.0,0.0,0.0,0.0,0.0,0.0,0.0,0.0,0.0,0.0,0.0,0.0,0.0,0.0,0.0,0.0,0.0,0.0,0.0,0.0,0.0,0.0,0.0,0.0,0.0,0.0,0.0,-0.0246,-0.0971,-0.1409,0.0,-0.0134,0.0538,0.0741,0.027,0.0723,0.2407,0.0,0.0,0.0,0.0,0.0,0.0,0.0,0.0,0.0,0.0,0.0,0.0,0.0,0.0,0.0,0.0,0.0,0.0,0.0,0.0,0.0,0.0,0.0,0.0,0.0,0.0,0.0,0.0,0.0,0.0,0.0,0.0,0.0,0.0,0.0,0.0,0.0,0.0,0.0,0.0,0.0,0.0,0.0,0.0,0.0,0.0,0.0,0.0,0.0,0.0,0.0,0.0,0.0,0.0,0.0,0.0,0.0,0.0,0.0,0.0,0.0,0.0,0.0,0.0,0.0,0.0,0.0,0.0,0.0,0.0,0.0,0.0,0.0,0.0,0.0,0.0,0.0,0.0,0.0,0.0,0.0,0.0,0.0,0.0,0.0,0.0,0.0,0.0,0.0,0.0,0.0,0.0,0.0,0.0,0.0,0.0,0.0,0.0,0.0,0.0,0.0,0.0,-0.0431,-0.1555,-0.2487,-0.2693,-0.0806,0.0336,0.0067,0.0,0.0657,0.0,0.0,0.0,0.0,0.0,0.0,0.0,0.0,0.0,0.0,0.0,0.0,0.0,0.0,0.0,0.0,0.0,0.0,0.0,0.0,0.0,0.0,0.0,0.0,0.0,0.0,0.0,0.0,0.0,0.0,0.0,0.0,0.0,0.0,0.0,0.0,0.0,0.0,0.0,0.0,0.0,0.0,0.0,0.0,0.0,0.0,0.0,0.0,0.0,0.0,0.0,0.0,0.0,0.0,0.0,0.0,0.0,0.0,0.0,0.0,0.0,0.0,0.0,0.0,0.0,0.0,0.0,0.0,0.0,0.0,0.0,0.0,0.0,0.0,0.0,0.0,0.0,0.0,0.0,0.0,0.0,0.0,0.0,0.0,0.0,0.0,0.0,0.0,0.0,0.0,0.0,0.0,0.0,0.0,0.0,0.0,0.0,0.0,0.0,0.0,0.0,0.0,0.0,-0.0675,-0.2138,-0.3228,-0.3299,-0.1411,0.0134,0.074,0.0807,0.1574,0.3331,0.0,0.0,0.0,0.0,0.0,0.0,0.0,0.0,0.0,0.0,0.0,0.0,0.0,0.0,0.0,0.0,0.0,0.0,0.0,0.0,0.0,0.0,0.0,0.0,0.0,0.0,0.0,0.0,0.0,0.0,0.0,0.0,0.0,0.0,0.0,0.0,0.0,0.0,0.0,0.0,0.0,0.0,0.0,0.0,0.0,0.0,0.0,0.0,0.0,0.0,0.0,0.0,0.0,0.0,0.0,0.0,0.0,0.0,0.0,0.0,0.0,0.0,0.0,0.0,0.0,0.0,0.0,0.0,0.0,0.0,0.0,0.0,0.0,0.0,0.0,0.0,0.0,0.0,0.0,0.0,0.0,0.0,0.0,0.0,0.0,0.0,0.0,0.0,0.0,0.0,0.0,0.0,0.0,0.0,0.0,0.0,0.0,0.0,0.0,0.0,0.0,0.0,-0.0798,-0.2334,-0.3498,-0.3567,-0.2083,-0.0403,0.1143,0.1278,0.1847,0.3205,0.0,0.0,0.0,0.0,0.0,0.0,0.0,0.0,0.0,0.0,0.0,0.0,0.0,0.0,0.0,0.0,0.0,0.0,0.0,0.0,0.0,0.0,0.0,0.0,0.0,0.0,0.0,0.0,0.0,0.0,0.0,0.0,0.0,0.0,0.0,0.0,0.0,0.0,0.0,0.0,0.0,0.0,0.0,0.0,0.0,0.0,0.0,0.0,0.0,0.0,0.0,0.0,0.0,0.0,0.0,0.0,0.0,0.0,0.0,0.0,0.0,0.0,0.0,0.0,0.0,0.0,0.0,0.0,0.0,0.0,0.0,0.0,0.0,0.0,0.0,0.0,0.0,0.0,0.0,0.0,0.0,0.0,0.0,0.0,0.0,0.0,0.0,0.0,0.0,0.0,0.0,0.0,0.0,0.0,0.0,0.0,0.0,0.0,0.0,0.0,0.0,0.0,-0.08,-0.2334,-0.3498,-0.3632,-0.2619,-0.1073,0.1143,0.1482,0.1798,0.2197,0.0,0.0,0.0,0.0,0.0,0.0,0.0,0.0,0.0,0.0,0.0,0.0,0.0,0.0,0.0,0.0,0.0,0.0,0.0,0.0,0.0,0.0,0.0,0.0,0.0,0.0,0.0,0.0,0.0,0.0,0.0,0.0,0.0,0.0,0.0,0.0,0.0,0.0,0.0,0.0,0.0,0.0,0.0,0.0,0.0,0.0,0.0,0.0,0.0,0.0,0.0,0.0,0.0,0.0,0.0,0.0,0.0,0.0,0.0,0.0,-0.3902,0.0,0.0,0.0,0.0,0.0,0.0,0.0,0.0,0.0,0.0,0.0,0.0,0.0,0.0,0.0,0.0,0.0,0.0,0.0,0.0,0.0,0.0,0.0,0.0,0.0,0.0,0.0,0.0,0.0,0.0,0.0,0.0,0.0,0.0,0.0,0.0,0.0,0.0,0.0,0.0,0.0,-0.0859,-0.24,-0.3563,-0.3761,-0.228,-0.1139,-0.0737,0.0739,0.1795,0.2197,0.2242,0.0,0.0,0.0,0.0,0.0,0.0,0.0,0.0,0.0,0.0,0.0,0.0,0.0,0.0,0.0,0.0,0.0,0.0,0.0,0.0,0.0,0.0,0.0,0.0,0.0,0.0,0.0,0.0,0.0,0.0,0.0,0.0,0.0,0.0,0.0,0.0,0.0,0.0,0.0,0.0,0.0,0.0,0.0,0.0,0.0,0.0,0.0,0.0,0.0,0.0,0.0,0.0,0.0,0.0,0.0,0.0,0.0,0.0,0.0,0.0,-0.4234,0.0,0.0,0.0,0.0,0.0,0.0,0.0,0.0,0.0,0.0,0.0,0.0,0.0,0.0,0.0,0.0,0.0,0.0,0.0,0.0,0.0,0.0,0.0,0.0,0.0,0.0,0.0,0.0,0.0,0.0,0.0,0.0,0.0,0.0,0.0,0.0,0.0,0.0,0.0,0.0,-0.1351,-0.2724,-0.3627,-0.3627,-0.2616,-0.1677,-0.1276,0.0067,0.1069,0.1646,0.1948,0.0,0.0,0.0,0.0,0.0,0.0,0.0,0.0,0.0,0.0,0.0,0.0,0.0,0.0,0.0,0.0,0.0,0.0,0.0,0.0,0.0,0.0,0.0,0.0,0.0,0.0,0.0,0.0,0.0,0.0,0.0,0.0,0.0,0.0,0.0,0.0,0.0,0.0,0.0,0.0,0.0,0.0,0.0,0.0,0.0,0.0,0.0,0.0,0.0,0.0,0.0,0.0,0.0,-0.6534,-0.616,-0.6604,-0.6793,-0.6759,-0.6524,-0.5437,-0.5693,-0.6678,-0.4089,0.0,0.0,0.0,0.0,0.0,0.0,0.0,0.0,0.0,0.0,0.0,0.0,0.0,0.0,0.0,0.0,0.0,0.0,0.0,0.0,0.0,0.0,0.0,0.0,-0.6164,-0.6119,0.0,0.0,0.0,0.0,0.0,0.0,0.0,0.0,0.0,0.0,0.0,0.0,-0.1895,-0.3035,-0.3694,-0.3498,-0.2889,-0.2149,-0.121,-0.0336,0.047,0.1076,0.1711,0.2197,0.0,0.0,0.0,0.0,0.0,0.0,0.0,0.0,0.0,0.0,0.0,0.0,0.0,0.0,0.0,0.0,0.0,0.0,0.0,0.0,0.0,0.0,0.0,0.0,0.0,0.0,0.0,0.0,0.0,0.0,0.0,0.0,-0.7145,-0.7945,0.0,0.0,0.0,0.0,0.0,0.0,0.0,0.0,0.0,0.0,0.0,0.0,0.0,-0.8441,-0.8833,-0.9368,-0.9379,-0.8786,-0.9184,-0.9229,-0.904,-0.8989,-0.8851,-0.8743,-0.7936,0.0,-0.5967,-0.5643,0.0,0.0,0.0,0.0,0.0,0.0,0.0,0.0,0.0,0.0,0.0,0.0,0.0,0.0,0.0,0.0,0.0,0.0,0.0,0.0,0.0,0.0,-0.7241,-0.7297,-0.6959,-0.6792,0.0,-0.6173,-0.5226,-0.5743,-0.4905,0.0,0.0,0.0,0.0,0.0,0.0,0.0,-0.2251,-0.3251,-0.3694,-0.3498,-0.2417,-0.1543,-0.1143,0.0134,0.1008,0.1076,0.1273,0.1765,0.2604,0.3115,0.0,0.0,0.0,0.0,0.0,0.0,0.0,0.0,0.0,0.0,0.0,0.0,0.0,0.0,0.0,0.0,0.0,0.0,0.0,0.0,0.0,0.0,0.0,0.0,0.0,0.0,0.0,0.0,0.0,-0.7434,-0.8541,-0.8909,-0.8676,-0.8239,0.0,0.0,0.0,0.0,0.0,0.0,0.0,0.0,0.0,-1.1064,-1.1441,-1.1937,-1.2555,-1.2944,-1.2908,-1.2656,-1.1251,-1.0804,-1.1068,-1.0651,-1.0202,-0.9714,-0.9336,-0.8706,-0.7821,-0.667,-0.5973,-0.5575,0.0,0.0,0.0,0.0,-0.4678,-0.5191,-0.5162,-0.5409,0.0,-0.5739,0.0,0.0,0.0,0.0,0.0,0.0,0.0,0.0,0.0,0.0,0.0,-0.7428,-0.7324,-0.7239,-0.7483,-0.6748,-0.6078,0.0,-0.5893,-0.4855,-0.1984,0.0,0.0,0.0,0.0,-0.2071,-0.3345,-0.3702,-0.3625,-0.3293,-0.2484,-0.1678,-0.0739,0.0134,0.0941,0.148,0.1614,0.1861,0.2399,0.3241,0.3801,0.0,0.0,0.0,0.0,0.0,0.0,0.0,0.0,0.0,0.0,0.0,0.0,0.0,0.0,0.0,0.0,0.0,0.0,0.0,0.0,0.0,0.0,0.0,0.0,0.0,0.0,0.0,0.0,-0.9106,-0.9945,-0.9952,-1.0464,-1.0293,0.0,0.0,0.0,0.0,0.0,0.0,-1.2405,-1.248,-1.2926,-1.3714,-1.4237,-1.478,-1.5524,-1.567,-1.5626,-1.5486,-1.332,-1.2584,-1.3112,-1.256,-1.1943,-1.1357,-1.1127,-1.0887,-1.0471,-0.805,-0.7135,-0.713,-0.6459,-0.6217,-0.6243,-0.623,-0.6374,-0.6653,-0.6872,-0.7234,-0.7598,-0.7537,0.0,-0.6875,-0.6688,0.0,0.0,0.0,0.0,-0.7524,-0.7461,-0.7274,-0.7267,-0.7678,-0.7652,-0.7521,-0.7521,-0.7077,-0.6563,0.0,-0.645,-0.5977,-0.3781,0.0,0.0,0.0,0.0,-0.3209,-0.4141,-0.3876,-0.3424,-0.2956,-0.2418,-0.1612,-0.0336,0.0269,0.0941,0.1884,0.2153,0.2354,0.2622,0.3487,0.3876,0.3715,0.0,0.0,0.0,0.0,0.0,0.0,0.0,0.0,0.0,0.0,0.0,0.0,0.0,0.0,0.0,0.0,0.0,0.0,0.0,0.0,0.0,0.0,0.0,0.0,0.0,0.0,0.0,0.0,0.0,-1.1299,-1.2354,0.0,0.0,0.0,0.0,-1.2175,-1.2726,-1.3544,-1.4741,-1.4753,-1.5196,-1.6299,-1.5966,-1.5886,-1.6044,-1.6227,-1.6027,-1.5598,-1.5581,-1.5511,-1.5387,-1.5043,-1.483,-1.4735,-1.3971,-1.3554,-1.3177,-1.0345,-0.8932,-0.8592,-0.835,-0.8193,-0.8171,-0.8001,-0.8428,-0.9009,-0.8976,-0.9277,-0.9603,-0.9412,-0.9015,-0.8457,-0.7894,-0.7687,0.0,0.0,-0.8043,-0.8487,-0.8739,-0.8628,-0.8409,-0.842,-0.7972,-0.7521,-0.7521,-0.6889,-0.6419,0.0,-0.6559,-0.5925,-0.4756,0.0,-0.3561,-0.3536,-0.3712,-0.3893,-0.4086,-0.3503,-0.2956,-0.2753,-0.1882,-0.1008,-0.0067,0.0739,0.1547,0.2154,0.2757,0.3293,0.3692,0.3892,0.4422,0.5272,0.5109,0.0,0.0,0.0,0.0,0.0,0.0,0.0,0.0,0.0,0.0,0.0,0.0,0.0,0.0,0.0,0.0,0.0,0.0,0.0,0.0,0.0,0.0,0.0,0.0,0.0,0.0,0.0,0.0,-1.2543,-1.3553,0.0,-1.3304,-1.4049,-1.4501,-1.4408,-1.5648,-1.6596,-1.7046,-1.7203,-1.7625,-1.8486,-1.8105,-1.817,-1.8728,-1.8947,-1.8864,-1.8561,-1.8424,-1.8243,-1.7881,-1.7261,-1.6635,-1.6076,-1.5947,-1.5513,-1.4884,-1.3832,-1.2641,-1.1424,-1.1359,-1.1242,-1.1156,-1.1073,-1.0905,-1.0775,-1.0846,-1.0719,-1.0562,-1.0367,-1.0097,-0.9805,-0.9313,-0.9513,-0.972,-0.9053,-0.9333,-0.9735,-0.9358,-0.919,-0.9134,-0.9134,-0.8619,-0.8166,-0.8166,-0.7599,-0.7136,-0.7283,-0.6595,-0.5628,-0.4583,-0.4751,-0.4737,-0.3982,-0.3974,-0.4136,-0.4159,-0.3692,-0.3094,-0.2555,-0.188,-0.0939,0.0402,0.1208,0.2149,0.3291,0.3491,0.3758,0.409,0.4353,0.4556,0.4688,0.4964,0.5093,0.0,0.0,0.0,0.0,0.0,0.0,0.0,0.0,0.0,0.0,0.0,0.0,0.0,0.0,0.0,0.0,0.0,0.0,0.0,0.0,0.0,0.0,0.0,0.0,0.0,0.0,-1.2876,-1.3391,-1.4893,-1.5712,-1.536,-1.6344,-1.7121,-1.7328,-1.8383,-1.9138,-1.9417,-1.95,-1.9799,-2.042,-2.0021,-2.0242,-2.0998,-2.1161,-2.1158,-2.0994,-2.085,-2.0569,-2.0349,-1.9606,-1.8869,-1.8043,-1.8189,-1.77,-1.6919,-1.7114,-1.6475,-1.5296,-1.4285,-1.3707,-1.3399,-1.3569,-1.3241,-1.2711,-1.2533,-1.2166,-1.169,-1.1485,-1.1348,-1.1178,-1.0853,-1.1056,-1.1281,-1.0627,-1.0777,-1.1036,-1.064,-1.0373,-1.0171,-1.0171,-0.9651,-0.912,-0.8912,-0.8394,-0.7917,-0.7734,-0.688,-0.5915,-0.5186,-0.5432,-0.5363,-0.4053,-0.4103,-0.4092,-0.3556,-0.336,-0.3094,-0.2491,-0.2034,-0.1225,0.0136,0.1522,0.2694,0.3558,0.4213,0.446,0.4414,0.4922,0.5067,0.4874,0.513,0.5137,0.4863,0.0,0.0,0.0,0.0,0.0,0.0,0.0,0.0,0.0,0.0,0.0,0.0,0.0,0.0,0.0,0.0,0.0,0.0,0.0,0.0,0.0,0.0,0.0,-1.1184,-1.3083,-1.4396,-1.3939,-1.65,-1.8035,-1.7491,-1.8364,-1.9582,-2.0906,-2.0769,-2.1065,-2.1893,-2.1533,-2.16,-2.2145,-2.1731,-2.1852,-2.2584,-2.2625,-2.2655,-2.2655,-2.2655,-2.2645,-2.2645,-2.2205,-2.1497,-2.0654,-2.0684,-2.0178,-1.9382,-1.9837,-2.0077,-1.9737,-1.6953,-1.5391,-1.4762,-1.5394,-1.532,-1.4942,-1.4171,-1.3589,-1.3141,-1.2916,-1.2841,-1.2773,-1.248,-1.2344,-1.2344,-1.2344,-1.2337,-1.2344,-1.2555,-1.2058,-1.1573,-1.1573,-1.109,-1.0503,-0.9852,-0.9276,-0.8684,-0.8271,-0.7522,-0.6856,-0.6602,-0.6109,-0.5336,-0.3918,-0.4075,0.0,-0.235,-0.2601,-0.2758,-0.2495,-0.2137,-0.1609,-0.084,0.168,0.3095,0.2954,0.4763,0.5476,0.4596,0.5435,0.5936,0.5868,0.5579,0.5477,0.5461,0.0,0.0,0.0,0.0,0.0,0.0,0.0,0.0,0.0,0.0,0.0,0.0,0.0,0.0,0.0,0.0,0.0,0.0,0.0,0.0,0.0,0.0,-1.4959,-1.4415,-1.5283,-1.6504,-1.8092,-1.9314,-2.0243,-2.0769,-2.0953,-2.1254,-2.165,-2.1947,-2.232,-2.2681,-2.2451,-2.2507,-2.299,-2.2553,-2.253,-2.2862,-2.3817,-2.4154,-2.3979,-2.4143,-2.4051,-2.3876,-2.3639,-2.301,-2.2138,-2.2487,-2.2035,-2.1087,-2.1427,-2.1296,-2.068,-1.8985,-1.8031,-1.7587,-1.7141,-1.6464,-1.5651,-1.5218,-1.4903,-1.4715,-1.4387,-1.4229,-1.3992,-1.3444,-1.3231,-1.3231,-1.3209,-1.3209,-1.3338,-1.3658,-1.3577,-1.3427,-1.3427,-1.2906,-1.2303,-1.1799,-1.0803,-0.9854,-0.9566,-0.8562,-0.7612,-0.7136,-0.6481,-0.5817,-0.537,-0.5009,0.0,-0.4011,-0.3371,-0.2628,-0.1518,-0.0872,0.0265,0.2296,0.2664,0.3219,0.4209,0.4224,0.4175,0.4282,0.4662,0.4951,0.5083,0.4955,0.4923,0.0,0.0,0.0,0.0,0.0,0.0,0.0,0.0,0.0,0.0,0.0,0.0,0.0,0.0,0.0,0.0,0.0,0.0,0.0,0.0,0.0,0.0,-1.5484,-1.7415,-1.7825,-1.8103,-1.888,-2.0577,-2.133,-2.2083,-2.3153,-2.3028,-2.3139,-2.3853,-2.401,-2.4251,-2.4786,-2.4837,-2.4585,-2.4021,-2.4694,-2.4619,-2.3764,-2.5201,-2.5841,-2.5541,-2.5625,-2.571,-2.5689,-2.5456,-2.4629,0.0,-2.4079,-2.3434,-2.2188,-2.2611,-2.2541,0.0,0.0,0.0,0.0,0.0,-1.7569,-1.6682,-1.6237,-1.597,-1.5734,-1.5375,-1.5153,-1.4932,-1.4398,-1.4038,-1.3886,-1.3805,-1.3668,-1.3567,-1.4053,-1.4137,-1.4214,-1.4498,-1.4283,-1.3834,-1.3293,-1.2335,-1.1371,-1.0732,-0.9584,0.0,-0.8085,-0.7158,-0.6106,-0.5185,-0.5104,-0.4819,-0.3956,-0.3468,-0.2865,-0.1883,-0.0823,0.0477,0.1868,0.2246,0.0,0.0,0.0,0.4014,0.4326,0.4748,0.0,0.0,0.0,0.4372,0.4369,0.0,0.0,0.0,0.4134,0.4526,0.0,0.0,0.0,0.0,0.0,0.0,0.0,0.0,0.0,0.0,0.0,0.0,0.0,0.0,0.0,0.0,-1.7812,-1.9523,-2.0983,-2.1231,-2.1443,-2.1992,-2.2866,-2.3768,-2.4831,-2.4725,-2.5194,-2.6637,-2.6446,-2.6669,-2.7506,0.0,0.0,0.0,0.0,-2.7287,-2.5164,-2.6757,-2.739,-2.714,-2.7085,-2.7173,-2.7393,-2.714,-2.6271,-2.4959,-2.5346,-2.4646,-2.3197,-2.3559,-2.3761,-2.3512,-2.1979,-2.1065,-2.0559,-1.9489,-1.8619,-1.7836,-1.7218,0.0,0.0,-1.5976,-1.5814,-1.5729,-1.5389,-1.4935,-1.4478,-1.4448,-1.4091,-1.3803,-1.4348,-1.4506,-1.4587,-1.5196,-1.5408,-1.53,-1.4543,-1.3866,-1.2935,-1.1734,-1.0545,-0.9611,-0.9055,-0.7889,-0.6384,-0.4499,-0.4956,-0.4959,-0.3305,-0.3369,-0.3409,-0.2836,0.0,0.0,0.0,0.122,0.194,0.2094,0.3475,0.4375,0.4604,0.5208,0.5254,0.463,0.4207,0.3893,0.3674,0.3243,0.2938,0.2794,0.4492,0.5071,0.0,0.0,0.0,0.0,0.0,0.0,0.0,0.0,0.0,0.0,0.0,0.0,0.0,0.0,0.0,-1.7658,-1.9965,-2.1878,-2.2368,-2.3457,-2.4033,-2.3329,-2.4814,-2.5977,-2.6182,-2.6653,-2.715,-2.7582,-2.7753,-2.8258,-2.9238,-2.8988,-2.8837,-2.8986,-2.8533,-2.8041,-2.7591,-2.7761,-2.7764,-2.7742,0.0,0.0,-2.7532,-2.7498,-2.7182,-2.6535,-2.6671,-2.6006,-2.483,-2.4666,-2.4246,-2.357,-2.2787,-2.1826,-2.0943,-2.0036,-1.9327,-1.8663,-1.8052,-1.7498,-1.7136,-1.7004,-1.6818,-1.6604,-1.6223,-1.6008,0.0,-1.6305,-1.6244,-1.6276,-1.6635,-1.6732,-1.6765,-1.6742,-1.6742,-1.6545,-1.5898,-1.5114,-1.4221,-1.2747,-1.1821,-1.0887,-0.9312,-0.8074,-0.7221,-0.6752,-0.6593,-0.6122,-0.5242,-0.4936,-0.4066,-0.2375,-0.1407,-0.0072,0.1883,0.1684,0.1815,0.2607,0.2616,0.3427,0.5213,0.474,0.4343,0.4207,0.4207,0.372,0.284,0.2805,0.2701,0.2581,0.3187,0.3563,0.0,0.0,0.0,0.0,0.0,0.0,0.0,0.0,0.0,0.0,0.0,-1.4648,0.0,0.0,-1.8212,-1.9588,-2.1366,-2.2849,-2.3656,-2.5324,-2.6151,-2.5447,-2.6265,-2.7203,-2.8093,-2.8516,-2.9112,-2.9931,-3.0305,-3.0907,-3.1821,-3.1863,-3.1497,-3.0784,-3.1258,-3.0955,-2.9589,-3.0415,-3.0397,-2.9508,-2.9415,-2.8974,-2.8259,-2.8333,-2.7929,-2.7312,-2.7184,-2.6603,-2.5749,-2.5194,-2.4516,-2.3769,-2.3467,-2.2819,-2.1854,-2.1089,-2.0345,-1.9586,-1.8768,-1.824,-1.7927,-1.7557,-1.7351,-1.7238,-1.6967,-1.6628,-1.6481,-1.6558,-1.6434,-1.6308,-1.6748,-1.6839,-1.6929,-1.722,-1.7139,-1.6976,-1.6648,-1.6147,-1.5289,-1.3833,-1.3155,-1.2236,-1.0668,-0.9418,-0.8383,-0.7714,-0.736,-0.6919,-0.5943,-0.525,-0.4258,-0.2695,-0.1803,-0.074,0.0592,0.1373,0.1983,0.2449,0.3119,0.3675,0.405,0.3926,0.3634,0.3239,0.3128,0.2865,0.2467,0.2235,0.2262,0.2428,0.2266,0.2407,0.0,0.0,0.0,0.0,0.0,0.0,0.0,0.0,-1.459,-1.4915,-1.5865,-1.6911,-1.8009,-1.8754,-1.976,-2.1762,-2.2715,-2.3704,-2.5137,-2.6769,-2.7866,-2.7891,-2.7891,-2.8562,-3.0023,-3.0491,-3.1176,-3.2515,-3.2917,-3.3419,-3.4276,-3.4658,-3.4094,-3.2535,-3.4026,-3.381,-3.1733,-3.2935,-3.2838,-3.1441,-3.1441,-3.0931,-2.9907,-2.9832,-2.9484,-2.8838,-2.8098,-2.7227,-2.62,-2.54,-2.4655,-2.3987,-2.4021,-2.3537,-2.2656,-2.2141,-2.1453,-2.0554,-1.9692,-1.9141,-1.8759,-1.8294,-1.8009,-1.7801,-1.7654,-1.7315,-1.688,-1.666,-1.6294,-1.6062,-1.6494,-1.6646,-1.6874,-1.7413,-1.7383,-1.7221,-1.7139,-1.686,-1.6208,-1.492,-1.4573,-1.401,-1.2511,-1.1364,-1.0172,-0.8581,-0.8126,-0.7575,-0.6453,-0.5419,-0.4508,-0.3484,-0.2382,-0.1528,-0.106,0.0954,0.226,0.2493,0.3742,0.4072,0.3297,0.3593,0.3423,0.2766,0.2567,0.2417,0.2303,0.1928,0.1857,0.2041,0.151,0.1522,-0.9866,-0.9943,-1.0249,-1.1009,-1.2406,-1.3699,0.0,0.0,-1.7233,-1.8379,-1.9229,-2.0281,-2.2042,-2.28,-2.352,-2.426,-2.496,-2.5791,-2.6917,-2.7782,-2.8946,-3.0553,-3.0865,-3.125,-3.1817,-3.2581,-3.3404,-3.4238,-3.4348,-3.4713,-3.56,-3.5628,-3.5731,-3.5819,-3.508,-3.4495,-3.4177,-3.3317,-3.28,-3.2612,-3.2638,-3.2798,-3.2995,-3.3019,-3.3177,-3.3252,-3.0807,-2.8539,-2.6474,-2.5483,-2.4752,-2.4346,-2.4044,-2.362,-2.2957,-2.2728,-2.2236,-2.1688,-2.1051,-2.0236,-1.9607,-1.9476,-1.8999,-1.8519,-1.8445,-1.8189,-1.7802,-1.784,-1.7797,-1.7692,-1.7814,-1.7992,-1.8169,-1.7934,-1.7781,-1.7538,-1.7392,-1.7242,-1.6852,-1.5582,-1.6347,-1.6484,-1.4371,-1.3789,-1.2778,-1.0636,-0.9256,-0.8309,-0.7683,-0.6586,-0.5426,-0.4483,-0.326,-0.1903,-0.038,0.1157,0.2561,0.3816,0.3475,0.3954,0.5612,0.4809,0.4217,0.4023,0.4133,0.3585,0.2305,0.2381,0.1871,0.0903,0.082,0.1088,-1.1189,-1.138,-1.1626,-1.2453,-1.4109,-1.5652,-1.5743,-1.7599,-1.9596,-2.0432,-2.1544,-2.2734,-2.3852,-2.4048,-2.4306,0.0,-2.5796,-2.6612,-2.7825,-2.9559,-3.106,-3.1995,-3.2318,-3.2376,-3.1951,-3.3465,-3.4362,-3.4279,-3.498,-3.5647,-3.6155,-3.6169,-3.6127,-3.6029,-3.5781,-3.5579,-3.5424,-3.4931,-3.4295,-3.3645,-3.3658,-3.3234,-3.2559,-3.2729,-3.2921,-3.3162,-3.1967,-3.0833,-2.96,-2.8287,-2.7257,-2.6486,-2.5248,-2.4407,-2.3636,-2.3044,-2.2544,-2.2023,-2.1511,-2.0738,-2.0044,-1.9904,-1.9521,-1.9091,-1.9006,-1.8906,-1.8929,-1.8766,-1.8609,-1.8523,-1.8451,-1.8603,-1.8683,-1.8442,-1.8442,-1.8434,-1.8353,-1.8167,-1.7879,-1.7365,-1.7243,-1.7062,-1.6705,-1.5027,-1.3626,-1.3074,-1.0869,-0.9026,-0.8049,-0.6613,-0.4768,-0.2344,-0.1359,-0.0312,0.1337,0.2085,0.2808,0.3549,0.3298,0.3495,0.4244,0.3968,0.3527,0.3091,0.3178,0.2625,0.1368,0.1441,0.1623,0.1963,0.1096,0.0843,-1.2169,-1.2526,-1.285,-1.4085,-1.5954,-1.7581,-1.8008,-1.9931,-2.1846,-2.2275,-2.3389,-2.4416,-2.4892,-2.491,-2.5199,-2.6291,-2.67,-2.7553,-2.916,-3.1177,-3.2541,-3.2839,-3.3276,-3.2975,-3.161,-3.3591,-3.4879,-3.479,-3.5583,-3.6217,-3.6382,-3.6457,-3.6333,-3.5951,-3.6386,-3.6471,-3.6242,-3.6179,-3.5701,-3.482,-3.474,-3.4193,-3.3148,-3.3469,-3.3633,-3.3374,-3.3362,-3.281,-3.1979,-3.0593,-2.9304,-2.8118,-2.6455,-2.5248,-2.4269,-2.3905,-2.3467,-2.2976,-2.2549,-2.2036,-2.1441,-2.0788,-2.0259,-1.9909,-1.9841,-1.9809,-1.9886,-1.9603,-1.946,-1.9362,-1.9066,-1.9093,-1.9137,-1.8869,-1.8922,-1.9002,-1.9002,-1.8819,-1.8716,-1.8697,-1.8153,-1.7888,-1.8472,-1.6391,-1.4795,-1.5255,-1.2794,-1.0284,-0.878,-0.6476,-0.3926,-0.1109,0.0154,0.1195,0.2288,0.2818,0.3151,0.3325,0.3401,0.3369,0.3178,0.324,0.2978,0.2383,0.2093,0.1625,0.0883,0.0621,0.107,0.2078,0.0994,0.0471,-1.246,-1.272,-1.3297,-1.578,-1.7804,-1.9655,-2.1135,-2.2745,-2.3963,-2.4323,-2.4882,-2.5351,-2.5469,-2.6075,-2.6939,-2.7865,-2.8255,-2.9283,-3.1653,-3.2216,-3.2631,-3.3198,-3.3788,-3.3255,0.0,-3.2834,-3.4952,-3.6768,-3.6618,-3.6382,-3.6382,-3.6607,-3.6682,-3.6668,-3.6872,-3.6964,-3.6964,-3.6587,-3.6363,-3.6284,-3.6138,-3.6184,-3.6439,-3.6896,-3.6522,-3.5521,-3.5207,-3.4132,-3.2464,-3.1435,-3.0112,-2.8734,-2.7431,-2.5934,-2.4545,-2.524,-2.5472,-2.5268,-2.4842,-2.448,-2.4026,-2.2657,-2.175,-2.1108,-2.1108,-2.0925,-2.0661,-2.0256,-2.0341,-2.0303,-1.9769,-1.9561,-1.9543,-1.9314,-1.9152,-1.9002,-1.9002,-1.9029,-1.9033,-1.8924,-1.929,-1.954,-1.923,-1.8103,-1.7203,-1.6995,-1.4867,-1.2462,-1.0203,-0.6283,-0.3306,-0.218,0.0297,0.1872,0.1887,0.3077,0.3701,0.3623,0.3719,0.3708,0.3573,0.3345,0.2988,0.2521,0.1609,0.1229,0.1389,0.045,0.0034,0.0101,0.0034,-0.0269,-1.4234,-1.5274,-1.6403,-1.8232,-1.9971,-2.148,-2.2408,-2.3641,-2.4569,-2.5076,-2.4814,-2.4658,-2.5014,-2.5219,-2.569,-2.6789,-2.7594,-2.9067,-3.1925,-3.1965,-3.261,-3.4927,-3.4253,0.0,0.0,0.0,0.0,-3.443,-3.5345,-3.6105,-3.6593,-3.6356,-3.6258,-3.6258,-3.6742,-3.6694,-3.6144,-3.6158,-3.6055,-3.5978,-3.6157,-3.641,-3.6735,-3.7175,-3.7207,-3.7116,-3.7011,-3.6698,-3.5982,-3.4666,-3.3381,-3.2035,-2.9815,-2.8082,-2.695,-2.7656,-2.7758,-2.7238,-2.5488,-2.4675,-2.4317,-2.2853,-2.2106,-2.1803,-2.1618,-2.1609,-2.1712,-2.1466,-2.125,-2.0912,-2.0708,-2.055,-2.0357,-2.0136,-2.0161,-2.0217,-2.0127,-2.0079,-1.998,-1.9779,-2.0044,-2.0135,-1.9834,-1.9147,-1.759,-1.4381,-1.2251,-1.0357,-0.8652,-0.6399,-0.3961,-0.1085,-0.029,0.0869,0.2885,0.3244,0.3453,0.357,0.3516,0.3367,0.3057,0.2808,0.2569,0.2384,0.1769,0.1236,0.0795,0.0407,-0.0067,-0.0538,-0.0538,-0.1238,-1.6441,-1.7691,-1.8883,-2.0609,-2.2018,-2.3061,-2.3661,-2.4363,-2.5021,-2.5341,-2.4779,-2.4338,-2.4482,-2.4705,-2.5104,-2.5859,-2.7139,-2.9075,-3.1845,-3.2327,-3.3225,-3.5503,-3.4688,-3.4421,0.0,0.0,0.0,-3.3884,-3.4723,-3.551,-3.5982,-3.5827,-3.5885,-3.6345,-3.6919,-3.6874,-3.6158,-3.6235,-3.6133,-3.5978,-3.6212,-3.6574,-3.6917,-3.7116,-3.725,-3.7286,-3.7717,-3.7665,-3.7156,-3.6405,-3.554,-3.4371,-3.1958,-3.0101,-2.876,-2.9098,-2.9056,-2.8588,-2.7149,-2.6515,-2.6045,-2.4311,-2.3604,-2.332,-2.2656,-2.2629,-2.2853,-2.2687,-2.2294,-2.195,-2.1738,-2.1409,-2.1119,-2.0801,-2.1066,-2.1244,-2.0999,-2.1147,-2.1196,-2.0899,-2.0905,-2.0953,-2.07,-2.0201,-1.8756,-1.5701,-1.3091,-1.0705,-0.8634,-0.5955,-0.3683,-0.2014,-0.0273,0.1478,0.3212,0.3186,0.3187,0.3453,0.314,0.292,0.2838,0.2444,0.2238,0.2214,0.1725,0.1169,0.0504,0.0403,0.0134,-0.0336,-0.0841,-0.174,-1.8815,-1.9857,-2.0802,-2.2808,-2.3822,-2.4395,-2.4734,-2.5001,-2.5153,-2.5076,-2.465,-2.4215,0.0,0.0,-2.5066,-2.5036,-2.6941,-2.9248,-3.1655,-3.3019,-3.4149,0.0,0.0,0.0,0.0,0.0,0.0,-3.5282,0.0,-3.4697,-3.4925,-3.5109,-3.5741,-3.7008,-3.7415,-3.7408,-3.6978,-3.6822,-3.6615,-3.6405,-3.638,-3.6675,-3.7061,-3.7128,-3.6811,-3.6253,-3.7403,-3.726,-3.624,-3.6815,-3.6457,-3.547,-3.3801,-3.1893,-2.9985,-2.9678,-2.9498,-2.9522,-2.995,-2.9864,-2.9152,-2.6867,-2.6033,-2.5764,-2.4329,-2.3967,-2.4019,-2.3612,-2.3437,-2.3297,-2.2754,-2.2207,-2.176,-2.1427,-2.1802,-2.2086,-2.166,-2.2161,-2.2534,-2.2137,-2.199,-2.1967,-2.1829,-2.135,-2.0918,-2.0917,-1.7311,-1.3464,-1.0216,-0.5185,-0.2657,-0.4483,0.0309,0.3399,0.3001,0.2907,0.2997,0.3204,0.264,0.2465,0.2818,0.2277,0.1986,0.2014,0.1518,0.1024,0.0504,0.0504,0.0504,0.0437,-0.0908,-0.1678,-2.0128,-2.1951,-2.3819,-2.484,-2.5065,-2.499,-2.5082,-2.499,-2.4686,-2.393,-2.2892,-2.1908,-2.1393,0.0,0.0,-2.4377,-2.5821,0.0,-3.1542,-3.1764,0.0,-3.4885,0.0,-3.5574,-3.6627,-3.7021,0.0,0.0,-3.6148,-3.641,-3.7106,-3.6836,-3.7025,-3.767,-3.8213,-3.799,-3.6993,-3.6615,-3.647,-3.6405,-3.6715,-3.6949,-3.7102,-3.7484,-3.7624,-3.7469,-3.7769,-3.773,-3.7456,-3.7612,-3.7222,-3.6457,-3.4881,-3.3252,-3.1857,-3.187,-3.1057,-3.026,-3.1894,-3.1404,-2.9735,-2.8136,-2.6824,-2.5914,-2.5538,-2.4676,-2.3894,-2.3967,-2.3757,-2.3437,-2.3471,-2.2978,-2.2611,-2.2842,-2.2739,-2.2631,-2.2752,-2.2777,-2.2662,-2.2244,-2.2704,-2.3381,-2.3929,-2.5153,-2.5685,-2.4692,-1.9934,-1.5007,-1.1193,-0.6638,-0.3051,-0.1362,0.0,0.1219,0.2247,0.2599,0.2629,0.2271,0.2471,0.2438,0.2039,0.1865,0.1566,0.105,0.0933,0.075,0.0504,0.0504,0.037,0.0134,-0.0235,-0.1233,-2.2134,-2.3645,-2.5121,-2.5698,-2.5491,-2.5065,-2.4639,-2.4057,-2.3417,-2.2324,-2.1224,-2.0215,-1.9541,-2.0276,-2.1531,0.0,0.0,0.0,-3.0542,-3.1033,-3.2067,0.0,-3.5465,0.0,-3.7751,-3.7986,-3.7848,0.0,-3.6831,-3.6725,-3.7109,-3.6924,-3.7082,-3.7749,-3.8443,-3.8353,-3.7386,-3.6833,-3.6484,-3.6405,-3.6566,-3.6683,-3.6726,-3.7063,-3.6973,-3.6586,0.0,-3.7253,-3.6967,-3.7389,-3.7546,-3.7247,-3.6174,-3.4765,-3.3396,-3.312,-3.2335,-3.1436,-3.25,-3.2376,-3.1331,-2.9844,-2.8632,-2.7662,-2.7034,-2.5968,-2.502,-2.52,-2.4775,-2.4348,-2.4433,-2.409,-2.3744,-2.3831,-2.3811,-2.3821,-2.3773,-2.39,-2.382,-2.3246,-2.3427,-2.4026,-2.5034,-2.6705,-2.6995,-2.4304,-2.1113,-1.7414,-1.3007,-0.7948,-0.3387,0.0173,0.0496,0.086,0.1912,0.2043,0.2013,0.1893,0.1974,0.1904,0.1707,0.1459,0.1261,0.1114,0.0851,0.0672,0.0571,0.0538,0.0403,0.0202,-0.0268,-0.1232,-2.3961,-2.4783,-2.5371,-2.588,-2.5535,-2.4934,-2.3961,-2.2916,-2.18,-2.0599,-1.9624,-1.8761,-1.8159,-1.9606,-2.1006,-2.1448,0.0,-2.7166,-2.8973,-3.05,-3.2275,-3.4464,-3.5494,-3.6507,-3.7667,-3.8017,-3.8218,-3.8539,-3.7386,-3.6653,-3.6404,-3.6375,-3.6804,-3.7825,-3.8523,-3.8574,-3.8032,-3.7205,-3.6712,-3.6405,-3.6141,-3.6117,-3.6243,-3.6226,-3.5805,-3.5046,-3.6207,0.0,-3.5726,-3.6727,-3.7361,-3.7612,-3.709,-3.6006,-3.4652,-3.3997,-3.3333,-3.2847,-3.2686,-3.3018,-3.3224,-3.1773,-3.0834,-3.0062,-2.8843,-2.7641,-2.6783,-2.6783,-2.6313,-2.5768,-2.5443,-2.5189,-2.4935,-2.4659,-2.485,-2.5083,-2.4812,-2.5185,-2.5281,-2.461,-2.4226,-2.4425,-2.5608,-2.6962,-2.6441,-2.2418,-2.1572,-1.9723,-1.5122,-0.9097,-0.3803,-0.0092,0.0738,0.1098,0.1368,0.118,0.1208,0.1614,0.132,0.128,0.1618,0.1249,0.1177,0.151,0.0999,0.0706,0.0706,0.047,0.0369,0.0336,-0.0702,-0.1532,-2.3438,-2.4605,-2.587,-2.6373,-2.5678,-2.4757,-2.4443,-2.2723,-2.0989,-2.0026,-1.8512,-1.7402,-1.7623,-1.912,-2.0668,-2.1865,-2.4437,-2.6555,-2.7465,-2.9862,-3.1618,0.0,-3.4143,-3.5949,-3.7021,-3.7459,0.0,0.0,0.0,-3.8232,-3.7837,-3.7808,-3.825,-3.9167,-3.9136,-3.9031,-3.8693,-3.79,-3.7101,-3.6405,-3.6334,-3.6122,-3.5978,-3.6102,-3.6087,-3.5909,-3.6105,0.0,-3.6066,-3.6262,-3.6319,-3.641,-3.6305,-3.5633,-3.4742,-3.4938,-3.442,-3.3721,-3.3951,-3.3979,-3.3882,-3.3344,-3.2249,-3.1101,-3.0992,-2.9666,-2.8245,-2.8245,-2.7848,-2.7197,-2.6483,-2.6058,-2.5964,-2.6307,-2.5757,-2.5505,-2.6487,-2.6231,-2.5656,-2.5217,-2.5362,-2.5621,-2.5908,-2.6793,-2.6731,-2.4504,-2.2592,-2.0056,-1.6327,-1.0151,-0.5494,-0.3937,-0.187,-0.0741,-0.1111,-0.0278,0.0281,0.0238,0.0877,0.1237,0.1196,0.1552,0.1519,0.1023,0.0912,0.0841,0.0773,0.0033,-0.0334,-0.0334,-0.1329,-0.2189,-2.3303,-2.4246,-2.5411,-2.565,-2.4979,-2.3939,-2.267,-2.1149,-1.9555,-1.7844,-1.6819,-1.6267,-1.6321,-1.7688,0.0,-2.1306,-2.3673,-2.5785,-2.7374,-2.9554,-3.1232,-3.1998,-3.4059,-3.5688,-3.6283,-3.7163,-3.8106,0.0,0.0,-3.8037,-3.8202,-3.8142,-3.8505,-3.9496,-3.8644,-3.8517,-3.9256,-3.7752,-3.6819,-3.6551,-3.5939,-3.5512,-3.5345,-3.5371,-3.5404,-3.5404,-3.5561,0.0,-3.543,-3.5719,-3.5935,-3.6096,-3.6284,-3.5921,-3.5478,-3.5568,-3.5077,-3.434,-3.4405,-3.4243,-3.4076,-3.3979,-3.3077,-3.2118,-3.2273,-3.127,-3.0061,-2.9711,-2.9282,-2.8787,-2.795,-2.7221,-2.6894,-2.7221,-2.7058,-2.7058,-2.7718,-2.7478,-2.6816,-2.5885,-2.5812,-2.5913,-2.5777,-2.622,-2.566,-2.2788,-2.157,-1.9227,-1.4443,-1.0645,-0.7377,-0.4807,-0.3017,-0.2033,-0.2165,-0.137,-0.0647,-0.0134,0.0102,0.048,0.1078,0.1344,0.1346,0.101,0.0942,0.0671,0.0234,-0.0234,-0.0667,-0.1099,-0.2057,-0.2685,-2.3182,-2.3867,-2.465,-2.468,-2.4084,-2.299,-2.1144,-1.9694,-1.8175,-1.6199,-1.547,-1.5236,-1.5361,-1.6695,-1.8425,0.0,-2.2827,-2.5052,-2.7166,-2.9039,-3.074,0.0,-3.3987,0.0,-3.5652,-3.7125,0.0,0.0,0.0,0.0,-3.8188,-3.8121,-3.8509,-3.9496,-3.8445,-3.838,-3.9508,-3.7729,-3.6796,-3.6797,-3.5613,-3.5003,-3.4839,-3.4756,-3.4756,-3.4756,-3.4908,0.0,0.0,-3.5252,-3.5575,-3.56,-3.6153,-3.6218,-3.5874,-3.5857,-3.5504,-3.501,-3.4699,-3.4397,-3.4243,-3.416,-3.3682,-3.3059,-3.3225,-3.2662,-3.1962,-3.1516,-3.114,-3.0675,-2.9717,-2.8858,-2.8113,-2.7995,-2.8414,-2.8888,-2.8585,-2.8504,-2.8074,-2.6604,-2.6265,-2.621,-2.5829,-2.5707,-2.4749,-2.191,-2.0897,-1.8428,-1.2671,-1.0902,-0.8762,-0.517,-0.3985,-0.3336,-0.3025,-0.2537,-0.1804,-0.0732,-0.0895,-0.0464,0.0838,0.0873,0.0941,0.1177,0.084,0.0335,-0.0267,-0.07,-0.123,-0.1859,-0.2852,-0.3253,-2.2842,-2.3408,-2.3703,-2.4121,-2.3278,-2.2124,-2.1792,-1.928,-1.7061,-1.6901,-1.5224,-1.4254,-1.5838,-1.7402,-1.8927,-2.0229,0.0,-2.4505,-2.5688,-2.7811,-2.9686,-3.0614,0.0,0.0,-3.5421,-3.7485,0.0,0.0,0.0,0.0,-3.8306,-3.8385,-3.8796,-3.951,-3.9558,-3.9606,-3.9788,-3.8644,-3.7786,-3.7207,-3.5777,-3.5086,-3.5086,-3.466,-3.4397,-3.4397,-3.4481,0.0,0.0,-3.4842,-3.4711,-3.3966,-3.5508,-3.5809,-3.5365,-3.5555,-3.5672,-3.5708,-3.5176,-3.4895,-3.4634,-3.4397,-3.4024,-3.372,-3.4139,-3.4091,-3.3953,-3.39,-3.3726,-3.3319,-3.213,-3.1047,-2.999,-2.8626,-2.9512,-3.0355,-2.9303,-2.9045,-2.8635,-2.7279,-2.7117,-2.7024,-2.6449,-2.5615,-2.524,-2.561,-2.2704,-1.8585,-1.3346,-1.1116,-0.9062,-0.6556,-0.5658,-0.511,-0.4706,-0.4077,-0.3354,-0.2521,-0.2093,-0.1263,0.0133,0.0067,0.0468,0.144,0.0367,-0.0167,-0.0133,-0.1788,-0.258,-0.2616,-0.3519,-0.3923,-2.1042,-2.1998,-2.2772,-2.2755,-2.2164,-2.1248,-1.9658,-1.805,-1.6581,-1.5642,-1.4917,-1.4706,-1.5573,-1.6764,-1.8057,-1.9284,0.0,0.0,-2.4998,-2.7577,-2.9778,-3.0951,-3.3946,0.0,0.0,0.0,0.0,0.0,0.0,0.0,-4.0855,-4.083,-4.1053,-4.1492,-4.0304,-3.996,-4.0574,-3.8426,-3.7259,-3.7289,-3.594,-3.5236,-3.5072,-3.4564,-3.4397,-3.4397,-3.4397,0.0,0.0,-3.428,-3.4489,-3.4136,-3.4997,-3.5647,-3.5976,-3.5601,-3.5501,-3.5544,-3.5057,-3.4729,-3.4564,-3.4551,-3.4384,-3.4147,-3.4468,-3.4558,-3.4565,-3.4619,-3.4587,-3.4403,-3.3598,-3.2648,-3.1614,-3.0546,-3.0944,-3.1476,-3.1031,-3.0506,-2.9847,-2.86,-2.7984,-2.7297,-2.5993,-2.534,-2.4709,-2.3919,-2.1622,-1.8563,-1.4512,-1.1769,-0.9533,-0.7758,-0.6281,-0.5477,-0.5503,-0.4982,-0.4058,-0.2615,-0.2222,-0.1253,0.0499,0.0133,0.0167,0.0765,-0.0399,-0.123,-0.1656,-0.2416,-0.278,-0.2711,-0.3147,-0.3053,-1.9713,-2.0866,-2.178,-2.1502,-2.0948,-2.0043,-1.8101,-1.6971,-1.5925,-1.4654,-1.4595,-1.4883,-1.5216,-1.6084,-1.7115,0.0,0.0,-2.2153,-2.4014,-2.6979,-2.9456,-3.089,0.0,-3.5395,0.0,-3.8376,0.0,0.0,0.0,0.0,-4.3827,-4.3644,-4.3276,-4.294,-4.1217,-4.0588,-4.1113,-3.8752,-3.7587,-3.7437,-3.6089,-3.5305,-3.5063,-3.4568,-3.4306,-3.4162,-3.4332,0.0,0.0,-3.4188,-3.4463,-3.4201,-3.4708,-3.5416,-3.5963,-3.5461,-3.5318,-3.5318,-3.5059,-3.4812,-3.4647,-3.4634,-3.4634,-3.4551,-3.4881,-3.5127,-3.5278,-3.5446,-3.5434,-3.5223,-3.4513,-3.3833,-3.3009,-3.1917,-3.2074,-3.239,-3.229,-3.1688,-3.069,-2.9279,-2.8469,-2.7392,-2.5559,-2.5262,-2.4771,-2.3207,-2.108,-1.8708,-1.5964,-1.2373,-0.9573,-0.8302,-0.6499,-0.551,-0.5751,-0.55,-0.4593,-0.285,-0.2764,-0.1873,0.0233,-0.0366,-0.0466,0.0166,-0.1096,-0.1991,-0.2419,-0.258,-0.258,-0.2413,-0.2347,-0.1986,-1.9463,-2.0229,-2.0726,-2.0715,-1.9689,-1.8451,-1.7833,-1.6293,-1.4879,-1.4389,-1.4304,-1.4449,-1.4914,-1.5599,-1.638,-1.7291,-1.9618,0.0,-2.2528,-2.5595,-2.8302,0.0,0.0,-3.3064,-3.5568,0.0,0.0,0.0,0.0,0.0,-4.6759,-4.6442,-4.5236,-4.297,-4.2468,-4.1863,-4.1128,-4.0191,-3.9175,-3.7892,-3.6157,-3.5251,-3.4855,-3.4548,-3.411,0.0,0.0,0.0,0.0,-3.4816,-3.462,-3.3705,-3.4842,-3.5115,-3.4852,-3.5003,-3.5236,-3.5399,-3.5399,-3.5236,-3.5072,-3.4812,-3.4716,-3.4799,-3.5467,-3.6111,-3.6665,-3.6652,-3.6697,-3.6301,-3.474,-3.4367,-3.407,-3.2441,-3.2704,-3.3143,-3.2692,-3.216,-3.1077,-2.8939,-2.8258,-2.7328,-2.5338,-2.5508,-2.5646,-2.4882,-2.1863,-1.9154,-1.767,-1.2823,-0.9077,-0.7919,-0.6371,-0.5435,-0.5481,-0.563,-0.5059,-0.3596,-0.4106,-0.347,-0.1165,-0.1859,-0.1592,-0.0133,-0.1594,-0.2161,-0.1698,-0.2183,-0.2178,-0.1687,-0.1155,-0.1059,-1.699,-1.7645,-1.8166,-1.8161,-1.7544,-1.6818,-1.635,-1.5515,-1.4788,-1.4462,-1.4488,-1.485,-1.5655,-1.5844,-1.6573,-1.8678,-2.0055,0.0,0.0,0.0,0.0,-3.0557,-3.3218,-3.6084,0.0,0.0,0.0,0.0,0.0,0.0,-4.6811,-4.6545,-4.6008,-4.5252,-4.3889,-4.3046,-4.2819,-4.1532,-4.0421,-3.9422,-3.8839,-3.7778,-3.6278,-3.7115,-3.6361,0.0,0.0,0.0,0.0,-3.4716,-3.4905,-3.4449,-3.5136,-3.5581,-3.5811,-3.5397,-3.5399,-3.5562,-3.548,-3.5236,-3.5168,-3.5304,-3.5372,-3.5548,-3.6218,-3.6284,-3.635,-3.6744,-3.7007,-3.6864,-3.5773,-3.5395,-3.4921,-3.3782,-3.3593,-3.3534,-3.317,-3.2612,-3.225,-3.252,-3.0079,-2.7996,-2.7944,-2.6835,-2.5756,-2.5202,-2.2041,-1.9453,-1.8821,-1.4445,-1.084,-0.928,-0.7578,-0.6284,-0.5545,-0.5528,-0.4932,-0.3392,-0.3119,-0.2178,-0.0369,-0.1135,-0.13,-0.0665,-0.1406,-0.2131,-0.2871,-0.1639,-0.075,-0.0166,0.0631,0.0532,-1.5542,-1.6395,-1.7138,-1.6892,-1.6446,-1.5928,-1.5426,-1.5007,-1.4622,-1.4312,-1.4904,-1.5611,-1.6065,-1.6192,-1.6823,-1.8625,-1.9963,0.0,0.0,0.0,0.0,-3.0544,0.0,0.0,0.0,0.0,0.0,0.0,0.0,0.0,-4.6828,-4.6598,-4.6388,-4.6388,-4.5101,-4.4173,-4.3599,-4.2709,-4.1641,-4.0472,-4.0044,-3.8975,-3.7459,-3.8254,-3.7559,0.0,0.0,0.0,0.0,-3.5019,-3.5003,-3.4839,-3.5086,-3.5477,-3.5923,-3.5534,-3.5562,-3.571,-3.5562,-3.5399,-3.5399,-3.5723,-3.5965,-3.6138,-3.6693,-3.6679,-3.6587,-3.707,-3.7226,-3.7161,-3.6386,-3.5897,-3.539,-3.4407,-3.3903,-3.3573,-3.3557,-3.3109,-3.3146,-3.4522,-3.2638,-3.0729,-3.0389,-2.8339,-2.6635,-2.6215,-2.2476,-1.9623,-1.9411,-1.5056,-1.1377,-0.9717,-0.7994,-0.6395,-0.5045,-0.5136,-0.4591,-0.3079,-0.2936,-0.2177,-0.0485,-0.1149,-0.1434,-0.12,-0.1607,-0.2156,-0.2897,-0.0878,0.0492,0.1268,0.1451,0.1068,0.0,-1.6106,-1.7088,-1.6458,-1.5956,-1.5496,-1.4987,-1.4664,0.0,-1.4143,-1.543,-1.6528,-1.622,-1.6595,-1.7066,-1.7439,-1.9534,0.0,0.0,-2.5128,0.0,0.0,-3.2673,0.0,0.0,0.0,0.0,0.0,0.0,0.0,-4.6844,-4.6738,-4.6582,-4.6582,-4.6064,-4.517,-4.375,-4.375,-4.289,-4.1144,-4.0246,-3.9251,-3.8281,-3.8457,-3.809,0.0,0.0,0.0,0.0,-3.5668,-3.5112,-3.4839,-3.4961,-3.5194,-3.5399,-3.5521,-3.5589,-3.571,-3.571,-3.571,-3.5804,-3.6072,-3.6405,-3.6707,-3.6915,-3.7148,-3.7303,-3.7457,-3.738,-3.7161,-3.6594,-3.6127,-3.5529,-3.4564,-3.3833,-3.3502,-3.3883,-3.3715,-3.3893,-3.5198,-3.5404,-3.4608,-3.2518,-3.0077,-2.8264,-2.7664,-2.3175,-1.977,-1.9528,-1.498,-1.1133,-0.9442,-0.7833,-0.6072,-0.4077,-0.4435,-0.4128,-0.2647,-0.3396,-0.3083,-0.1316,-0.1619,-0.1771,-0.1642,-0.1933,-0.1913,-0.1635,0.0217,0.1559,0.2352,0.1375,0.0737,-1.3247,0.0,-1.4354,-1.4422,-1.4278,-1.4125,0.0,0.0,0.0,0.0,0.0,0.0,0.0,-1.7353,-1.7878,-1.8394,0.0,0.0,-2.3099,0.0,0.0,-3.0476,0.0,0.0,0.0,0.0,0.0,0.0,0.0,-4.6544,-4.6876,-4.6738,-4.6582,-4.6582,-4.6333,-4.5985,-4.5555,-4.5175,-4.3993,-4.1897,-4.2919,-4.1602,-3.8387,-4.0785,-4.0337,0.0,0.0,0.0,-3.6236,-3.6619,-3.6103,-3.5194,-3.6591,-3.6576,-3.5764,-3.6941,-3.667,-3.571,-3.571,-3.5804,-3.6072,-3.6484,-3.6642,-3.6707,-3.6915,-3.7056,-3.707,-3.7148,-3.7148,-3.7028,-3.6887,-3.6374,-3.5723,-3.5478,-3.4882,-3.4252,-3.3595,-3.4281,-3.5065,-3.5424,-3.4404,-3.3391,-3.3202,-3.1582,-2.9771,-2.8197,-2.436,-2.1142,-1.9667,-1.6445,-1.2925,-0.9439,-0.88,-0.7119,-0.3384,-0.3919,-0.3806,-0.2325,-0.2491,-0.2057,-0.081,-0.099,-0.1108,-0.1075,-0.0176,0.1138,0.2797,0.3266,0.2747,0.1262,0.1034,0.0553,-1.2776,-1.3041,-1.357,-1.4138,-1.4028,-1.3841,-1.4219,0.0,0.0,0.0,0.0,0.0,0.0,0.0,0.0,0.0,-2.1199,0.0,0.0,0.0,-3.0572,-3.1377,0.0,0.0,0.0,0.0,0.0,0.0,0.0,-4.6159,-4.686,-4.6807,-4.6738,-4.6738,-4.6223,-4.5959,-4.5952,-4.5419,-4.4235,-4.2459,-4.302,-4.1934,-3.9388,-4.1305,-4.1137,0.0,0.0,0.0,-3.7692,-3.7013,-3.6429,-3.6072,-3.7372,-3.7494,-3.7018,-3.7831,-3.7522,-3.6642,-3.606,-3.6072,-3.6325,-3.6642,-3.6786,-3.685,-3.6993,-3.6978,-3.6978,-3.6978,-3.6978,-3.6978,-3.6978,-3.6493,-3.5794,-3.541,-3.5179,-3.4874,-3.4127,-3.4727,-3.5504,-3.5504,-3.4682,-3.4112,-3.4389,-3.2995,-3.1358,-3.0132,-2.6402,-2.2989,-2.1035,-1.8253,-1.4642,-0.9859,-0.9393,-0.7611,-0.3096,-0.327,-0.3108,-0.1969,-0.2166,-0.1915,-0.0919,-0.0784,-0.0705,-0.0718,0.0221,0.1892,0.4295,0.4297,0.3673,0.2432,0.0889,0.0205,-1.2829,-1.3094,-1.3634,-1.4594,-1.4304,-1.3938,-1.4541,0.0,0.0,0.0,0.0,0.0,0.0,-1.8258,0.0,0.0,0.0,0.0,-2.7339,-2.9223,-3.0734,-3.2318,0.0,0.0,0.0,0.0,0.0,0.0,0.0,-4.5559,-4.6844,-4.6913,-4.6896,-4.6896,-4.616,-4.5752,-4.5658,-4.4938,-4.3929,-4.2636,-4.2162,-4.1372,-4.0401,-4.0944,-4.125,-4.1112,0.0,0.0,-3.9535,-3.7584,-3.6849,-3.6978,-3.7833,-3.8167,-3.8339,-3.8339,-3.8195,-3.7807,-3.6598,-3.6177,-3.6346,-3.6758,-3.6936,-3.693,-3.7106,-3.7134,-3.6978,-3.6978,-3.7,-3.6944,-3.6964,-3.6533,-3.5821,-3.4911,-3.486,-3.5037,-3.4836,-3.5061,-3.5355,-3.5474,-3.5504,-3.5504,-3.5504,-3.4307,-3.3004,-3.2195,-2.8509,-2.4936,-2.2599,-1.9953,-1.6121,-1.0582,-0.9918,-0.797,-0.3255,-0.2796,-0.2478,-0.1779,-0.2105,-0.1912,-0.1053,-0.0665,-0.0409,-0.027,0.031,0.1819,0.4283,0.4288,0.4052,0.3512,0.0893,-0.0034,-1.2879,-1.3058,-1.3429,-1.4345,-1.3942,-1.3508,-1.4313,-1.3922,0.0,0.0,0.0,0.0,0.0,-2.0088,-2.1267,0.0,0.0,-2.637,0.0,0.0,0.0,0.0,0.0,0.0,0.0,0.0,0.0,0.0,0.0,-4.6694,-4.6876,-4.6919,-4.689,-4.689,-4.6797,-4.6169,-4.4973,-4.4031,-4.294,-4.1648,-4.2224,-4.1478,-3.9724,-4.0931,-4.1318,-4.09,0.0,-4.0568,-3.9613,-3.9697,-3.8658,-3.726,-3.8659,-3.8779,-3.8339,-3.8339,-3.8195,-3.7807,-3.6758,-3.5967,-3.5828,-3.7425,-3.7163,-3.6457,-3.7652,-3.7519,-3.6978,-3.6978,-3.6767,-3.6561,-3.693,-3.6487,-3.5742,-3.4801,-3.3874,-3.3687,-3.5089,-3.4892,-3.4633,-3.537,-3.5504,-3.5504,-3.5504,-3.5275,-3.445,-3.2389,-2.9552,-2.6326,-2.2817,-2.0386,-1.6885,-1.1489,-1.0697,-0.8776,-0.4413,-0.3182,-0.2407,-0.1884,-0.1681,-0.1116,-0.0121,-0.0189,0.0111,0.0854,0.1561,0.2694,0.4295,0.4293,0.2903,0.0246,0.1089,0.037,-1.3097,-1.3129,-1.357,-1.5435,-1.4839,-1.4293,-1.6446,-1.5618,0.0,0.0,0.0,0.0,0.0,0.0,-2.1313,-2.186,0.0,0.0,0.0,0.0,0.0,0.0,0.0,0.0,0.0,0.0,0.0,0.0,0.0,0.0,-4.6876,-4.6912,-4.6551,-4.5814,-4.58,-4.5456,-4.4847,-4.3234,-4.2145,-4.1638,-4.1705,-4.0955,-3.9689,-4.0693,-4.104,-4.0799,0.0,-4.0324,-4.006,-3.9561,-3.9058,-3.8664,-3.9699,-3.9876,-3.9574,-3.9498,-3.8683,-3.7473,-3.6761,-3.6564,-3.6535,-3.6561,-3.661,-3.6699,-3.6596,-3.6297,-3.6065,-3.6388,-3.6606,-3.6781,-3.6986,-3.6519,-3.5835,-3.5096,-3.3868,-3.3091,-3.4179,-3.4316,-3.4364,-3.4861,-3.525,-3.5504,-3.5504,-3.5504,-3.4936,-3.3306,-3.1582,-2.8831,-2.4409,-2.2523,-1.935,-1.3441,-1.1199,-0.8886,-0.584,-0.334,-0.1773,-0.1289,-0.0817,-0.0265,0.0382,0.0284,0.0199,0.0242,0.1421,0.2036,0.1984,0.1982,0.2165,0.2498,0.2962,0.2483,-1.3188,-1.3222,-1.3779,-1.602,0.0,-1.487,-1.8382,-1.7087,0.0,0.0,0.0,0.0,0.0,-2.1387,0.0,-2.3879,0.0,0.0,0.0,0.0,0.0,0.0,0.0,0.0,0.0,0.0,0.0,0.0,0.0,0.0,-4.5881,-4.5898,-4.5391,-4.4317,-4.4269,-4.4253,-4.4302,-4.2508,-4.1664,-4.181,-4.1121,-4.0572,-4.0106,-4.0634,-4.0836,-4.069,-4.0029,-4.0069,-4.0615,-3.965,-3.9464,-3.994,-4.0383,-4.042,-4.0216,-4.0351,-3.9088,-3.719,-3.681,-3.6871,-3.6939,-3.6182,-3.6563,-3.7127,-3.623,-3.5793,-3.5759,-3.6014,-3.6409,-3.6704,-3.6831,-3.6344,-3.5626,-3.5105,-3.397,-3.3098,-3.325,-3.3809,-3.4241,-3.4457,-3.5026,-3.5439,-3.5504,-3.5504,-3.5168,-3.4076,-3.3115,-3.094,-2.6552,-2.4662,-2.1615,-1.6057,-1.2608,-0.9673,-0.6948,-0.3632,-0.1461,-0.0888,-0.0187,0.0371,0.0765,0.0604,0.0336,-0.0083,0.0829,0.1053,0.0481,0.0568,0.2054,0.481,0.4485,0.4228,-1.3107,-1.3324,-1.381,-1.48,-1.4124,0.0,-1.8748,-1.6845,0.0,-1.9805,0.0,0.0,0.0,-2.3811,-2.4558,-2.5212,0.0,0.0,0.0,0.0,0.0,0.0,0.0,0.0,0.0,0.0,0.0,0.0,0.0,0.0,-4.2924,-4.2928,-4.2832,-4.2768,-4.275,-4.2735,-4.2733,-4.1962,-4.1591,-4.1586,-4.0868,-4.0717,-4.1039,-4.1086,-4.0842,-4.0557,-4.0442,-4.0754,-4.1256,-4.1127,-4.0857,-4.0424,-4.0261,-3.9696,-3.9017,-4.0126,-3.9179,-3.7195,-3.696,-3.6445,-3.6187,-3.7656,-3.7868,-3.7646,-3.8023,-3.7634,-3.6937,-3.6264,-3.601,-3.596,-3.6339,-3.578,-3.4961,-3.4127,-3.3934,-3.3691,-3.2922,-3.3539,-3.4252,-3.4472,-3.4897,-3.5294,-3.5439,-3.5504,-3.5168,-3.4076,-3.3115,-3.1566,-2.889,-2.5783,-2.2494,-1.9183,-1.6011,-1.2127,-0.712,-0.4146,-0.2172,-0.1381,-0.0359,0.045,0.1034,0.0776,0.0757,0.109,0.0161,0.0443,0.1941,0.2205,0.3039,0.4353,0.4438,0.4418,-1.2977,-1.3334,-1.4146,-1.5967,-1.5065,0.0,0.0,-1.8201,-1.7736,-2.2266,-2.1441,0.0,0.0,0.0,-2.692,-2.6391,0.0,0.0,0.0,0.0,0.0,0.0,0.0,0.0,0.0,0.0,0.0,0.0,0.0,0.0,-4.2622,-4.2607,-4.2623,-4.2575,-4.2606,-4.2622,-4.2574,-4.1933,-4.1564,-4.1575,-4.1292,-4.1158,-4.1142,-4.1335,-4.135,-4.1174,-4.0878,-4.0733,-4.08,-4.0961,-4.0972,-4.0867,-4.0684,-4.0462,-4.02,-4.0224,-3.9113,-3.7463,-3.6728,-3.6575,-3.6659,-3.6197,-3.6529,-3.702,-3.6417,-3.5722,-3.5153,-3.5266,-3.5252,-3.5323,-3.6052,-3.5589,-3.4839,-3.4384,-3.3796,-3.3431,-3.336,-3.3513,-3.3803,-3.4267,-3.4673,-3.5082,-3.5294,-3.5294,-3.4961,-3.4046,-3.3617,-3.2287,-2.92,-2.7714,-2.5282,-2.1116,-1.5175,-1.001,-0.6353,-0.3471,-0.1704,-0.1416,-0.0677,-0.0,0.0512,0.0827,0.0844,0.0505,-0.0165,-0.0285,0.0121,0.0671,0.1619,0.2882,0.3906,0.4404,-1.2978,-1.343,-1.4446,-1.6339,0.0,0.0,-1.9752,-1.9197,-1.9143,-2.3729,-2.3503,0.0,0.0,0.0,0.0,0.0,0.0,0.0,0.0,0.0,0.0,0.0,0.0,0.0,0.0,0.0,0.0,0.0,0.0,0.0,0.0,-4.2381,-4.2301,-4.2254,-4.2301,-4.2381,-4.2575,-4.2125,-4.1901,-4.1916,-4.1718,-4.1472,-4.1245,-4.1519,-4.1614,-4.1578,-4.1252,-4.1008,-4.0831,-4.1024,-4.1138,-4.1138,-4.0857,-4.0794,-4.0747,-4.0044,-3.9005,-3.7784,-3.691,-3.6923,-3.7119,-3.5902,-3.644,-3.7307,-3.5899,-3.52,-3.4845,-3.4837,-3.4668,-3.4668,-3.5444,-3.5121,-3.4569,-3.4184,-3.3585,-3.3202,-3.3209,-3.3376,-3.3593,-3.3977,-3.4266,-3.4587,-3.4854,-3.4824,-3.45,-3.3681,-3.3638,-3.2795,-3.0277,-2.9266,-2.6948,-2.2092,-1.6053,-1.0859,-0.7224,-0.4321,-0.2388,-0.1642,-0.1104,-0.053,-0.0,0.0611,0.082,0.0473,-0.0084,-0.0609,-0.1101,-0.027,0.0626,0.1638,0.3083,0.3837,-1.3123,-1.3641,-1.4602,0.0,0.0,0.0,-2.0523,-1.9574,-1.902,-2.3668,-2.6337,-2.783,-2.7691,0.0,0.0,0.0,0.0,0.0,0.0,0.0,0.0,0.0,0.0,0.0,0.0,0.0,0.0,0.0,0.0,0.0,0.0,-4.1947,-4.158,-4.158,-4.158,-4.19,-4.2574,-4.2558,-4.2558,-4.2543,-4.19,-4.1609,-4.1588,-4.1588,-4.1586,-4.1578,-4.1578,-4.1578,-4.1578,-4.1578,-4.15,-4.1245,-4.0554,-4.0287,-4.0193,-3.9533,-3.8787,-3.8045,-3.7597,-3.7415,-3.732,-3.743,-3.8153,-3.8642,-3.7143,-3.6804,-3.6592,-3.5204,-3.4395,-3.4091,-3.4413,-3.4355,-3.4002,-3.3235,-3.3218,-3.3071,-3.2291,-3.2872,-3.3639,-3.3689,-3.3667,-3.3756,-3.4177,-3.4069,-3.3618,-3.2926,-3.3051,-3.3012,-3.249,-3.0309,-2.6948,-2.2166,-1.9525,-1.5807,-1.024,-0.7188,-0.4561,-0.2193,-0.1651,-0.1089,-0.0428,0.0183,0.0717,0.1169,0.0412,-0.0354,-0.1101,-0.0111,0.0482,0.0703,0.1984,0.2668,-1.3972,-1.4391,0.0,-1.548,0.0,0.0,0.0,-1.9685,0.0,0.0,-2.6651,-2.7611,-2.6969,0.0,0.0,0.0,0.0,0.0,0.0,0.0,0.0,0.0,0.0,0.0,0.0,0.0,0.0,0.0,0.0,0.0,0.0,-4.2397,-4.2317,-4.227,-4.2317,-4.2412,-4.2574,-4.0639,-4.0116,-4.1086,-4.0307,-4.0515,-4.1625,-4.1623,-4.1604,-4.1586,-4.1586,-4.1586,-4.1586,-4.1586,-4.1207,-4.0493,-4.0289,-4.0039,-3.9677,-3.8998,-3.8294,-3.7582,-3.6969,-3.6455,-3.6234,-3.6894,-3.6446,-3.5766,-3.6287,-3.5548,-3.4479,-3.4491,-3.4408,-3.4307,-3.422,-3.4194,-3.3941,-3.3226,-3.2919,-3.289,-3.293,-3.2933,-3.3073,-3.3514,-3.349,-3.3479,-3.3742,-3.3297,-3.2904,-3.3004,-3.2614,-3.2323,-3.236,-3.0286,-2.7632,-2.4491,-2.0012,-1.586,-1.2369,-0.8128,-0.5482,-0.5236,-0.3481,-0.2025,-0.1087,-0.0501,-0.0,0.0429,-0.004,-0.0386,-0.0596,-0.0623,-0.0623,-0.0559,0.046,0.0938,-1.5271,-1.5777,0.0,-1.7456,-1.8104,-1.8918,-2.0407,0.0,0.0,0.0,0.0,-2.8398,-2.8419,-2.9426,0.0,0.0,0.0,0.0,0.0,0.0,0.0,0.0,0.0,0.0,0.0,0.0,0.0,0.0,0.0,0.0,0.0,-4.2596,-4.2596,-4.2615,-4.2596,-4.2626,-4.2626,-4.0328,-3.9365,-3.9697,-3.9665,-4.0098,-4.0928,-4.0864,-4.1085,-4.1561,-4.1002,-4.0842,-4.1002,-4.0655,-4.0292,-3.9913,-3.9661,-3.9345,-3.9029,-3.8349,-3.7838,-3.7375,-3.6646,-3.6352,-3.6415,-3.66,-3.6199,-3.5692,-3.609,-3.545,-3.4549,-3.4432,-3.4414,-3.4346,-3.4128,-3.4128,-3.3977,-3.3368,-3.3072,-3.2931,-3.3058,-3.2846,-3.2775,-3.3269,-3.3072,-3.2918,-3.3016,-3.252,-3.2004,-3.1916,-3.1724,-3.1789,-3.2342,-3.1146,-2.9327,-2.6883,-2.2771,-1.8674,-1.4947,-1.011,-0.7202,-0.6993,-0.4237,-0.2634,-0.2581,-0.153,-0.077,-0.043,-0.0453,-0.0546,-0.0691,-0.0984,-0.1119,-0.1097,-0.0435,-0.0074,-1.668,0.0,0.0,-2.0303,-1.992,0.0,-2.2838,-2.3909,-2.5156,-2.8158,0.0,-2.9605,-3.1067,0.0,0.0,0.0,0.0,0.0,0.0,0.0,0.0,0.0,0.0,0.0,0.0,0.0,0.0,0.0,0.0,0.0,0.0,-4.2206,-4.2206,-4.2206,-4.2206,-4.2206,-4.2206,-4.0951,-3.9661,-3.838,-3.9558,-4.0019,-3.9822,-3.9626,-4.0214,-4.131,-4.0086,-3.9753,-4.007,-3.922,-3.9094,-3.9345,-3.8744,-3.8476,-3.8349,-3.7701,-3.748,-3.7405,-3.6631,-3.6831,-3.727,-3.6631,-3.689,-3.7235,-3.6212,-3.5961,-3.5804,-3.4639,-3.4346,-3.4264,-3.4059,-3.3991,-3.3922,-3.3591,-3.3396,-3.3227,-3.2706,-3.2519,-3.2561,-3.2917,-3.2533,-3.2126,-3.2041,-3.1713,-3.1106,-3.0257,-3.0751,-3.1507,-3.2308,-3.2373,-3.1486,-2.9069,-2.6805,-2.3255,-1.7674,-1.3188,-0.9938,-0.8219,-0.4966,-0.3652,-0.4877,-0.2821,-0.1507,-0.1196,-0.0979,-0.0921,-0.1067,-0.1238,-0.1275,-0.112,-0.0839,-0.0548,-1.7473,-1.7826,0.0,0.0,-1.9177,-2.0617,-2.4988,-2.5511,-2.5836,-2.8628,-2.9003,-2.9382,0.0,0.0,0.0,0.0,0.0,0.0,0.0,0.0,0.0,0.0,0.0,0.0,0.0,0.0,0.0,0.0,0.0,0.0,-3.9323,-3.9317,-3.9269,-3.9269,-3.9291,-3.9291,-3.9269,-3.8985,-3.8669,0.0,-3.8583,-3.8631,-3.8589,-3.9412,-3.9786,-3.9929,-3.9598,-3.955,-3.9598,-3.9408,-3.9077,-3.8713,-3.857,-3.8175,-3.7686,-3.7528,-3.748,-3.7405,-3.6631,-3.6492,-3.6631,-3.6616,-3.6045,-3.54,-3.5824,-3.5311,-3.45,-3.3751,-3.3632,-3.3632,-3.3129,-3.2988,-3.2917,-3.2704,-3.3086,-3.3325,-3.2417,-3.2597,-3.2775,-3.2561,-3.2189,-3.1818,-3.1681,-3.0759,-3.0187,-3.0294,-3.1037,-3.179,-3.2359,-3.2368,-3.1471,-2.904,-2.8367,-2.5734,-2.0086,-1.7552,-1.5368,-1.3081,-1.0575,-0.8939,-0.8308,-0.4218,-0.178,-0.127,-0.2112,-0.1961,-0.0692,-0.1818,-0.1949,-0.1183,-0.1064,-0.1116,-1.7576,0.0,0.0,-2.0463,0.0,-2.2965,-2.5546,-2.6246,-2.6867,-2.8836,-2.9316,-2.9894,0.0,0.0,0.0,0.0,0.0,0.0,0.0,0.0,0.0,0.0,0.0,0.0,0.0,0.0,0.0,0.0,0.0,-3.8633,-3.8796,-3.8821,-3.8845,-3.8845,-3.8837,-3.8683,-3.8383,-3.8675,-3.8748,-3.8585,-3.8375,-3.8189,-3.7982,-3.8814,-3.9029,-3.8764,-3.8905,-3.892,-3.8889,-3.8681,-3.8333,-3.8017,-3.8017,-3.7796,-3.748,-3.7405,-3.7329,-3.721,-3.6039,-3.6117,-3.6585,-3.6039,-3.5811,-3.5799,-3.5679,-3.5224,-3.4593,-3.3671,-3.3423,-3.3409,-3.3058,-3.2846,-3.2621,-3.2203,-3.2581,-3.2918,-3.2471,-3.2567,-3.2704,-3.2561,-3.2441,-3.2124,-3.1337,-3.0237,-2.9619,-3.0241,-3.0802,-3.1367,-3.1958,-3.2262,-3.1957,-3.0748,-2.9597,-2.7719,-2.4759,-2.1358,-1.8976,-1.797,-1.4317,-1.2076,-1.181,-0.7861,-0.4819,-0.2924,-0.2917,-0.2742,-0.2264,-0.2579,-0.2515,-0.2066,-0.1803,-0.2006,-1.7219,0.0,-2.0579,-2.2729,-2.3962,0.0,-2.5468,-2.6363,-2.7444,-2.8852,-2.9605,0.0,0.0,0.0,0.0,0.0,0.0,0.0,0.0,0.0,0.0,0.0,0.0,0.0,0.0,0.0,0.0,0.0,0.0,-3.9028,-3.9292,-3.9276,-3.9314,-3.9314,-3.9276,-3.9057,-3.857,-3.9073,-3.9139,-3.8782,-3.8535,-3.8157,-3.7658,-3.8125,-3.8135,-3.7826,-3.8012,-3.815,-3.8103,-3.7642,-3.748,-3.748,-3.748,-3.748,-3.7405,-3.7254,-3.7194,-3.6937,-3.5464,-3.5752,-3.66,-3.5139,-3.5672,-3.66,-3.5464,-3.527,-3.5073,-3.3716,-3.3227,-3.303,-3.2919,-3.2552,-3.2214,-3.1707,-3.1826,-3.2195,-3.2409,-3.2478,-3.2561,-3.2704,-3.2834,-3.2514,-3.1219,-3.0109,-2.9652,-3.0266,-3.0418,-3.0718,-3.1495,-3.2007,-3.2342,-3.2468,-3.0835,-2.9583,-2.9163,-2.49,-2.223,-2.2159,-1.7784,-1.5331,-1.5489,-1.2511,-0.9359,-0.626,-0.4401,-0.3634,-0.399,-0.3444,-0.3117,-0.3056,-0.2686,-0.2925,0.0,0.0,-2.0553,0.0,-2.2378,-2.299,0.0,0.0,-2.6342,0.0,0.0,0.0,0.0,0.0,0.0,0.0,0.0,0.0,0.0,0.0,0.0,0.0,0.0,0.0,0.0,0.0,0.0,0.0,-3.8933,-3.924,-3.9313,-3.9325,-3.9314,-3.9314,-3.9319,-3.9231,-3.9177,-3.9257,-3.9096,-3.8802,-3.8537,-3.8075,-3.7417,-3.7512,-3.7411,-3.714,-3.7395,-3.744,-3.732,-3.7285,-3.7329,-3.748,-3.748,-3.7405,-3.7254,-3.7194,-3.715,-3.68,-3.54,-3.54,-3.5785,-3.4394,-3.4927,-3.5785,-3.4461,-3.4514,-3.478,-3.2931,-3.23,-3.2078,-3.129,-3.0868,-3.0711,-3.0645,-3.0743,-3.1012,-3.1368,-3.2189,-3.2917,-3.2704,-3.2695,-3.2358,-3.1397,-3.0899,-3.0586,-3.0746,-3.0478,-3.0493,-3.1029,-3.1595,-3.1992,-3.1992,-3.2256,-3.1554,-2.9465,-2.8609,-2.6947,-2.4065,-2.3132,-2.1749,-1.9707,-1.7183,-1.4805,-1.2623,-0.8363,-0.5276,-0.3493,-0.4254,-0.4161,-0.3267,-0.3436,-0.3471,-1.6825,-1.826,-1.9847,0.0,-2.2445,-2.2479,-2.5754,0.0,-2.5899,-2.8233,0.0,0.0,0.0,0.0,0.0,0.0,0.0,0.0,0.0,0.0,0.0,0.0,0.0,0.0,0.0,0.0,0.0,0.0,-3.8786,-3.889,-3.8776,-3.8903,-3.8942,-3.8805,-3.8799,-3.8799,-3.8805,-3.8776,-3.8737,-3.856,-3.8504,-3.8205,-3.7711,-3.7711,-3.7314,-3.6754,-3.6892,-3.6952,-3.6952,-3.7029,-3.715,-3.7329,-3.7329,-3.7329,-3.7345,-3.7165,-3.706,-3.6816,-3.5608,-3.54,-3.5464,-3.4394,-3.4514,-3.4846,-3.3905,-3.3593,-3.3307,-3.2052,-3.1338,-3.0872,-3.0475,-3.0197,-3.0069,-3.021,-3.045,-3.0762,-3.1034,-3.1792,-3.2431,-3.2489,-3.2361,-3.212,-3.1919,-3.1667,-3.1454,-3.1295,-3.1137,-3.109,-3.1439,-3.1661,-3.1951,-3.2413,-3.2718,-3.2516,-3.1494,-3.0989,-2.9971,-2.8259,-2.6419,-2.483,-2.3579,-2.099,-1.8709,-1.6804,-1.1479,-0.7694,-0.5641,-0.6123,-0.5702,-0.4422,-0.4275,-0.4333,0.0,0.0,-1.861,-2.2039,-2.1904,-2.1666,0.0,0.0,-2.5273,0.0,0.0,0.0,0.0,0.0,0.0,0.0,0.0,0.0,0.0,0.0,0.0,0.0,0.0,0.0,0.0,0.0,0.0,0.0,-3.8476,-3.8525,-3.8388,-3.8541,-3.8557,-3.8388,-3.8388,-3.8388,-3.8388,-3.8388,-3.8381,-3.8407,-3.8472,-3.8319,-3.7886,-3.7828,-3.7358,-3.6616,-3.6739,-3.6723,-3.6723,-3.6862,-3.6984,-3.715,-3.715,-3.721,-3.7225,-3.6785,-3.66,-3.6476,-3.5464,-3.4993,-3.4714,-3.4177,-3.3926,-3.3661,-3.3058,-3.2484,-3.1858,-3.1142,-3.0495,-2.9923,-2.9845,-2.9667,-2.9542,-2.9736,-3.0247,-3.0757,-3.1267,-3.1757,-3.23,-3.2646,-3.2485,-3.2263,-3.2452,-3.2245,-3.2023,-3.1721,-3.1618,-3.1695,-3.1868,-3.1916,-3.2095,-3.269,-3.2882,-3.3005,-3.3096,-3.2549,-3.1933,-3.1281,-2.9003,-2.7448,-2.6894,-2.433,-2.2215,-2.0722,-1.5802,-1.1814,-0.8858,-0.8581,-0.7698,-0.6246,-0.5991,-0.5814,0.0,-1.5884,0.0,-1.908,-1.9535,0.0,0.0,0.0,0.0,0.0,0.0,0.0,0.0,0.0,0.0,0.0,0.0,0.0,0.0,0.0,0.0,0.0,0.0,0.0,0.0,0.0,0.0,0.0,-3.8074,-3.8417,-3.8415,-3.8391,-3.8391,-3.8375,-3.8375,-3.8375,-3.8375,-3.8375,-3.8391,-3.8391,-3.8391,-3.8205,-3.7886,-3.7594,-3.7254,-3.6938,-3.6999,-3.6862,-3.6723,-3.6723,-3.6862,-3.6999,-3.6999,-3.6923,-3.6646,-3.5961,-3.5578,-3.54,-3.4647,-3.3905,-3.3283,-3.3283,-3.2751,-3.2082,-3.1344,-3.1034,-3.0867,-3.0185,-2.9781,-2.9565,-2.9145,-2.893,-2.8794,-2.893,-2.9712,-3.0786,-3.2058,-3.2676,-3.3072,-3.3452,-3.3507,-3.3295,-3.2673,-3.2599,-3.2373,-3.1683,-3.1795,-3.199,-3.199,-3.2217,-3.2407,-3.2407,-3.2838,-3.3096,-3.3096,-3.3177,-3.2702,-3.1495,-3.1209,-3.058,-2.9386,-2.7161,-2.5685,-2.509,-2.2647,-1.8564,-1.2792,-1.1657,-1.0326,-0.881,-0.9187,-0.834,0.0,0.0,0.0,-1.8287,-1.8154,-1.8055,-2.0579,-2.1629,0.0,0.0,0.0,0.0,0.0,0.0,0.0,0.0,0.0,0.0,0.0,0.0,0.0,0.0,0.0,0.0,0.0,0.0,0.0,0.0,0.0,-3.6384,-3.7199,-3.7178,-3.7335,-3.7806,-3.8293,-3.852,-3.8423,-3.852,-3.8609,-3.8609,-3.8144,-3.7883,-3.7741,-3.6806,-3.6333,-3.6178,-3.5833,-3.5978,-3.6538,-3.6538,-3.6662,-3.68,-3.68,-3.6862,-3.68,-3.5913,-3.5563,-3.5514,-3.5124,-3.4514,-3.3833,-3.3364,-3.2673,-3.1888,-3.0645,-2.9912,-2.9429,-2.9196,-2.8781,-2.8437,-2.8292,-2.8252,-2.8585,-2.9605,-3.0581,-3.1657,-3.3182,-3.3616,-3.3779,-3.3945,-3.3905,-3.3794,-3.355,-3.355,-3.3439,-3.3157,-3.2906,-3.2846,-3.3028,-3.2526,-3.2348,-3.2821,-3.2742,-3.2742,-3.3043,-3.315,-3.2822,-3.2097,-3.16,-3.0958,-3.0175,-2.8922,-2.82,-2.8031,-2.5486,-2.1817,-1.6939,-1.5536,-1.4099,-1.2643,-1.1695,-1.0708,-1.4673,0.0,0.0,0.0,0.0,-1.6524,-1.8904,0.0,0.0,0.0,0.0,0.0,0.0,0.0,0.0,0.0,0.0,0.0,0.0,0.0,0.0,0.0,0.0,0.0,0.0,0.0,0.0,0.0,0.0,0.0,-3.6296,-3.6434,-3.6714,-3.7241,-3.7763,-3.8046,-3.7948,-3.8046,-3.815,-3.8133,-3.7662,-3.7452,-3.7436,-3.647,-3.6007,-3.5969,-3.5403,-3.5549,-3.6199,-3.6199,-3.6399,-3.66,-3.66,-3.6739,-3.6754,-3.5849,-3.537,-3.5175,-3.5335,-3.478,-3.3901,-3.3671,-3.272,-3.1501,-3.0265,-2.9141,-2.8315,-2.826,-2.7971,-2.759,-2.7523,-2.7881,-2.8679,-3.0065,-3.1274,-3.2563,-3.4095,-3.4551,-3.4574,-3.4574,-3.447,-3.4298,-3.3959,-3.4138,-3.4113,-3.373,-3.3647,-3.3642,-3.3827,-3.3073,-3.263,-3.3169,-3.2767,-3.2578,-3.2935,-3.3043,-3.2942,-3.2588,-3.1991,-3.149,-3.1083,-3.024,-2.9798,-2.9886,-2.7844,-2.5308,-2.2285,-1.9771,-1.7871,-1.6561,-1.5603,-1.4292,0.0,0.0,0.0,0.0,0.0,0.0,-1.6281,0.0,0.0,0.0,0.0,0.0,0.0,0.0,0.0,0.0,0.0,0.0,0.0,0.0,0.0,0.0,0.0,0.0,0.0,0.0,0.0,0.0,-3.4494,-3.5048,-3.5662,-3.6247,-3.6645,-3.6781,-3.6781,-3.6884,-3.6985,-3.6985,-3.6985,-3.6985,-3.7019,-3.7003,-3.6952,-3.6596,-3.6405,-3.6332,-3.5835,-3.5679,-3.5714,-3.5654,-3.6012,-3.6461,-3.6461,-3.6476,-3.6429,-3.5672,-3.4927,-3.438,-3.5124,-3.438,-3.3283,-3.4013,-3.2734,-3.0744,-3.0048,-2.8781,-2.7469,-2.7335,-2.7268,-2.7268,-2.7079,-2.7845,-2.8968,-3.0147,-3.1676,-3.3293,-3.4779,-3.5255,-3.5464,-3.5464,-3.532,-3.4846,-3.4056,-3.4259,-3.4327,-3.3465,-3.3908,-3.4414,-3.4414,-3.3814,-3.3376,-3.3423,-3.2959,-3.2609,-3.2594,-3.2881,-3.3045,-3.2951,-3.2618,-3.2348,-3.2225,-3.1172,-3.057,-3.0643,-2.9989,-2.9296,-2.8647,-2.4245,-2.1535,-2.0447,-2.0864,-1.9026,-1.4247,0.0,0.0,0.0,0.0,0.0,0.0,0.0,0.0,0.0,0.0,0.0,0.0,0.0,0.0,0.0,0.0,0.0,0.0,0.0,0.0,0.0,0.0,0.0,0.0,0.0,0.0,0.0,-3.2276,-3.2616,-3.3842,-3.486,-3.5828,-3.6865,-3.673,-3.673,-3.6933,-3.7002,-3.6985,-3.6985,-3.6688,-3.6552,-3.6536,-3.5727,-3.5284,-3.5153,-3.472,-3.4764,-3.514,-3.5329,-3.5654,-3.61,-3.61,-3.6229,-3.6429,-3.5672,-3.4927,-3.4312,-3.4365,-3.3891,-3.3073,-3.2486,-3.1598,-3.0487,-2.9016,-2.8111,-2.7469,-2.7335,-2.7403,-2.7403,-2.7403,-2.8048,-2.8968,-2.9954,-3.1377,-3.2915,-3.4449,-3.5355,-3.6134,-3.6815,-3.643,-3.5961,-3.5706,-3.5059,-3.4595,-3.4476,-3.4317,-3.4264,-3.4414,-3.4082,-3.3758,-3.3576,-3.3137,-3.2911,-3.2982,-3.2812,-3.2945,-3.3447,-3.2997,-3.2837,-3.3126,-3.2171,-3.1704,-3.1749,-3.0827,-3.0213,-2.9971,-2.6636,-2.4584,-2.3665,-2.2689,-2.1669,0.0,0.0,0.0,0.0,0.0,0.0,-1.6151,-1.6815,0.0,0.0,0.0,0.0,0.0,0.0,0.0,0.0,0.0,0.0,0.0,0.0,0.0,0.0,0.0,0.0,0.0,-2.9944,-3.029,-3.0809,-3.0855,-3.1489,-3.2924,-3.422,-3.5199,-3.5776,-3.5893,-3.6059,-3.624,-3.6256,-3.6305,-3.6288,-3.6033,-3.5944,-3.5974,-3.5445,-3.5088,-3.4947,-3.4642,-3.4628,-3.4767,-3.4892,-3.5094,-3.5419,-3.5826,-3.6053,-3.6153,-3.6026,-3.5255,-3.4312,-3.4432,-3.3822,-3.2947,-3.2262,-3.135,-3.0324,-2.8983,-2.8053,-2.7403,-2.7214,-2.7214,-2.7335,-2.7469,-2.8219,-2.9135,-2.98,-3.1058,-3.257,-3.4211,-3.505,-3.59,-3.7134,-3.7089,-3.6754,-3.643,-3.5913,-3.5449,-3.5335,-3.489,-3.4639,-3.4773,-3.4375,-3.4014,-3.397,-3.3667,-3.3457,-3.3309,-3.3335,-3.3505,-3.3888,-3.3625,-3.3363,-3.3288,-3.2579,-3.1999,-3.1597,-3.0976,-3.0534,-3.0355,-2.823,-2.7031,-2.6691,-2.5799,-2.502,0.0,0.0,0.0,0.0,0.0,0.0,-1.665,-1.7567,-1.8621,0.0,0.0,0.0,0.0,0.0,0.0,0.0,0.0,0.0,0.0,0.0,0.0,0.0,0.0,0.0,-2.8805,-2.8931,-2.8987,-2.9042,-3.0028,-3.1204,-3.2531,-3.3906,-3.4544,-3.4284,-3.4771,-3.5152,-3.5245,-3.5291,-3.5291,-3.5291,-3.5291,-3.5354,-3.5492,-3.5463,-3.5417,-3.5261,-3.5202,-3.498,-3.461,-3.4562,-3.4562,-3.4635,-3.5498,-3.581,-3.5929,-3.6459,-3.5616,-3.4345,-3.4809,-3.3936,-3.261,-3.2636,-3.1486,-3.0105,-2.9588,-2.8395,-2.7268,-2.7079,-2.7079,-2.7159,-2.7481,-2.8451,-2.9429,-2.9891,-3.0985,-3.2489,-3.4172,-3.4707,-3.531,-3.6921,-3.7329,-3.7285,-3.6631,-3.6569,-3.6523,-3.6102,-3.5593,-3.5285,-3.54,-3.4797,-3.4375,-3.4398,-3.4288,-3.4101,-3.3713,-3.4119,-3.4366,-3.4382,-3.4372,-3.4068,-3.3395,-3.2714,-3.1965,-3.1182,-3.1056,-3.0825,-3.0458,-2.9314,-2.8903,-2.9207,-2.9266,-2.851,0.0,0.0,0.0,0.0,0.0,0.0,-1.6522,-1.6742,-1.7267,0.0,0.0,0.0,0.0,0.0,0.0,0.0,0.0,0.0,0.0,0.0,0.0,0.0,0.0,0.0,-2.814,-2.8197,-2.8425,-2.8917,-2.9624,-3.0654,-3.2076,-3.2832,-3.3697,-3.4723,-3.4899,-3.4947,-3.4994,-3.5105,-3.5152,-3.5152,-3.5245,-3.5291,-3.5354,-3.5408,-3.5302,-3.5174,-3.5393,-3.5247,-3.4855,-3.4824,-3.4588,-3.4229,-3.4228,-3.5245,-3.6722,-3.6319,-3.5385,-3.4183,-3.395,-3.2668,-3.1186,-3.175,-3.0608,-2.913,-2.9776,-2.8768,-2.7469,-2.7403,-2.7403,-2.7507,-2.8098,-2.8878,-2.979,-3.092,-3.1883,-3.296,-3.4633,-3.5029,-3.5484,-3.6921,-3.7329,-3.7464,-3.7285,-3.6831,-3.6492,-3.6646,-3.6165,-3.5657,-3.5464,-3.5445,-3.5241,-3.4457,-3.4471,-3.445,-3.4333,-3.4152,-3.4447,-3.5369,-3.4961,-3.498,-3.5625,-3.3872,-3.3212,-3.3981,-3.321,-3.256,-3.2055,-3.0429,-2.9709,-2.9818,-3.0202,-3.0205,0.0,0.0,0.0,-1.6534,0.0,0.0,0.0,-1.7255,-1.792,-1.8544,-1.9347,-1.9895,-1.9882,0.0,0.0,0.0,0.0,0.0,0.0,0.0,0.0,0.0,0.0,0.0,-2.6919,-2.699,-2.7341,-2.8047,-2.8958,-2.9861,-3.0751,-3.2082,-3.3178,-3.394,-3.4493,-3.4804,-3.4804,-3.4947,-3.4947,-3.4899,-3.5058,-3.5152,-3.5198,-3.5218,-3.5141,-3.503,-3.5426,-3.533,-3.4922,-3.4906,-3.4578,-3.4081,-3.4158,-3.4899,-3.5999,-3.6574,-3.5521,-3.3758,-3.3627,-3.2743,-3.165,-3.1957,-3.1541,-3.0865,-3.0555,-2.9134,-2.7656,-2.7802,-2.7855,-2.7974,-2.8266,-2.9457,-3.0651,-3.128,-3.2442,-3.3794,-3.5195,-3.5454,-3.5852,-3.7118,-3.7405,-3.748,-3.748,-3.721,-3.7074,-3.7358,-3.6845,-3.6276,-3.5968,-3.5885,-3.5556,-3.4904,-3.5005,-3.5017,-3.4868,-3.5021,-3.5266,-3.5654,-3.5715,-3.5753,-3.5749,-3.4685,-3.4108,-3.4108,-3.3761,-3.3343,-3.2792,-3.2207,-3.1657,-3.1094,-3.1337,-3.1423,0.0,0.0,0.0,0.0,0.0,-1.6565,0.0,0.0,0.0,-1.8655,-1.9575,0.0,0.0,0.0,0.0,0.0,0.0,0.0,0.0,0.0,0.0,0.0,0.0,0.0,0.0,-2.5396,-2.5937,-2.6854,-2.775,-2.8571,-2.9267,-3.1205,-3.2482,-3.2951,-3.3973,-3.4559,-3.4643,-3.4756,-3.4756,-3.4643,-3.4787,-3.4899,-3.5011,-3.5044,-3.4982,-3.4903,-3.5197,-3.5117,-3.4742,-3.4775,-3.4481,-3.4137,-3.443,-3.4663,-3.492,-3.6382,-3.5307,-3.3216,-3.3654,-3.3258,-3.2577,-3.2739,-3.2895,-3.2688,-3.0926,-2.9226,-2.7908,-2.8066,-2.8249,-2.8314,-2.8487,-2.9945,-3.1505,-3.1683,-3.3134,-3.4677,-3.5837,-3.5963,-3.6244,-3.727,-3.748,-3.7421,-3.748,-3.748,-3.7551,-3.7742,-3.727,-3.681,-3.6356,-3.5995,-3.5681,-3.5359,-3.5465,-3.5479,-3.5321,-3.58,-3.6019,-3.5803,-3.6343,-3.6307,-3.5567,-3.5532,-3.4967,-3.3768,-3.4002,-3.4001,-3.3717,-3.3839,-3.3386,-3.2379,-3.2454,-3.2454,0.0,0.0,0.0,0.0,-1.6876,0.0,0.0,0.0,-1.7281,-1.7395,0.0,0.0,0.0,0.0,0.0,0.0,0.0,0.0,0.0,0.0,0.0,0.0,0.0,0.0,0.0,-2.3063,-2.4113,-2.5526,-2.5643,-2.6393,-2.8084,-2.9296,-3.0903,-3.2837,-3.3434,-3.3985,-3.4546,-3.4546,-3.4546,-3.4497,-3.4546,-3.4562,-3.466,-3.4824,-3.4923,-3.4857,-3.4447,-3.425,-3.4219,-3.4201,-3.4153,-3.417,-3.4676,-3.4554,-3.4242,-3.4622,-3.3889,-3.2854,-3.4106,-3.3649,-3.2661,-3.4194,-3.3728,-3.2046,-2.9374,-2.846,-2.8222,-2.83,-2.83,-2.8473,-2.9131,-3.0314,-3.1683,-3.2912,-3.4206,-3.5503,-3.6646,-3.66,-3.6662,-3.7361,-3.7241,-3.7121,-3.748,-3.748,-3.7435,-3.7199,-3.7102,-3.6758,-3.5792,-3.5752,-3.5675,-3.5362,-3.5346,-3.545,-3.5728,-3.5711,-3.5827,-3.6199,-3.6301,-3.6474,-3.6768,-3.6808,-3.6225,-3.5025,-3.5023,-3.535,-3.6043,-3.4303,-3.3322,-3.3076,-3.3385,-3.3543,0.0,0.0,0.0,0.0,0.0,0.0,-1.7939,0.0,-1.7225,0.0,0.0,0.0,0.0,0.0,0.0,0.0,-1.7801,0.0,0.0,0.0,0.0,0.0,0.0,0.0,0.0,0.0,0.0,0.0,-2.4646,-2.504,-2.6076,-2.7968,-2.9593,-3.0921,-3.2166,-3.3107,-3.3762,-3.381,-3.4023,-3.4399,-3.4481,-3.453,-3.453,-3.4792,-3.4743,-3.4431,-3.4218,-3.407,-3.4102,-3.4084,-3.4102,-3.4103,-3.4348,-3.4413,-3.4345,-3.4238,-3.3969,-3.37,-3.4036,-3.3754,-3.3495,-3.5323,-3.4046,-3.1753,-3.1329,-3.0045,-2.8753,-2.8753,-2.883,-2.921,-3.0227,-3.1588,-3.2985,-3.4295,-3.5583,-3.6723,-3.7165,-3.7181,-3.7165,-3.7539,-3.7524,-3.7397,-3.7275,-3.7038,-3.6943,-3.7094,-3.6748,-3.6254,-3.576,-3.5893,-3.5826,-3.5409,-3.5518,-3.5656,-3.5773,-3.5905,-3.6062,-3.6301,-3.6568,-3.6811,-3.6987,-3.6987,-3.658,-3.5675,-3.5682,-3.5527,-3.5129,-3.4275,-3.3695,-3.3316,-3.3491,-3.3605,-1.8534,0.0,0.0,0.0,0.0,0.0,0.0,0.0,0.0,0.0,0.0,0.0,0.0,0.0,0.0,0.0,0.0,-1.7882,0.0,0.0,0.0,0.0,0.0,0.0,0.0,0.0,0.0,-2.3273,-2.3634,-2.4087,-2.4776,-2.7194,-2.8902,-2.9772,-3.1154,-3.2232,-3.2932,-3.3191,-3.3534,-3.4007,-3.4284,-3.4431,-3.4399,-3.4579,-3.448,-3.4103,-3.4103,-3.4086,-3.4101,-3.4101,-3.4101,-3.4101,-3.4083,-3.4217,-3.4382,-3.415,-3.4186,-3.4261,-3.3959,-3.4101,-3.4462,-3.531,-3.3859,-3.1804,-3.225,-3.0893,-2.9247,-2.9143,-2.9212,-2.9558,-3.0477,-3.1959,-3.3441,-3.4742,-3.6172,-3.7302,-3.7433,-3.748,-3.7476,-3.7446,-3.7472,-3.7307,-3.6925,-3.6694,-3.6637,-3.668,-3.6233,-3.5792,-3.558,-3.5661,-3.5685,-3.5492,-3.5577,-3.5773,-3.5905,-3.6096,-3.6251,-3.6402,-3.6771,-3.6987,-3.6987,-3.6987,-3.6658,-3.6015,-3.5842,-3.535,-3.4467,-3.402,-3.3944,-3.4057,-3.3669,-3.3481,0.0,0.0,0.0,-1.9211,0.0,0.0,0.0,0.0,-1.757,0.0,0.0,0.0,0.0,0.0,0.0,0.0,0.0,0.0,0.0,0.0,0.0,0.0,0.0,0.0,0.0,0.0,0.0,-2.1265,-2.2392,-2.357,-2.4835,-2.7086,-2.892,-3.0322,-3.0881,-3.1499,-3.2215,-3.2836,-3.3161,-3.3258,-3.381,-3.4101,-3.4101,-3.4101,-3.4101,-3.4101,-3.4101,-3.4101,-3.4101,-3.4101,-3.4101,-3.4117,-3.4097,-3.4131,-3.4101,-3.4117,-3.4124,-3.4101,-3.4101,-3.4803,-3.5443,-3.3614,-3.2907,-3.2464,-3.0513,-2.9837,-2.9681,-2.9206,-2.9109,-2.9168,-2.9315,-3.0802,-3.2486,-3.3576,-3.5264,-3.6816,-3.7381,-3.748,-3.7393,-3.6924,-3.6837,-3.6726,-3.6292,-3.669,-3.6728,-3.5703,-3.5509,-3.5399,-3.4967,-3.4932,-3.5105,-3.5532,-3.547,-3.5605,-3.6122,-3.6182,-3.6353,-3.6661,-3.6869,-3.6987,-3.6987,-3.6987,-3.6658,-3.6015,-3.5295,-3.4978,-3.5065,-3.3636,-3.3944,-3.5781,-3.4087,-3.3352,0.0,0.0,-2.3003,-2.2443,0.0,0.0,0.0,0.0,0.0,0.0,0.0,0.0,0.0,0.0,0.0,0.0,0.0,0.0,0.0,0.0,0.0,0.0,0.0,0.0,0.0,0.0,0.0,-2.0335,-2.0528,-2.0881,-2.1503,-2.4506,-2.6458,-2.7058,-2.9191,-3.066,-3.1329,-3.1526,-3.2141,-3.3113,-3.3779,-3.4104,-3.4101,-3.4101,-3.4101,-3.4101,-3.4101,-3.4101,-3.4101,-3.4101,-3.4101,-3.4101,-3.4083,-3.3869,-3.3607,-3.3949,-3.4129,-3.4127,-3.4127,-3.4338,-3.4562,-3.392,-3.276,-3.1575,-3.1408,-3.0462,-2.9557,-2.9817,-2.9346,-2.9261,-3.142,-3.2129,-3.2705,-3.476,-3.5689,-3.6127,-3.631,-3.6358,-3.6406,-3.6371,-3.6377,-3.6314,-3.5967,-3.61,-3.6048,-3.5593,-3.5118,-3.4873,-3.4885,-3.5041,-3.5228,-3.5424,-3.565,-3.5888,-3.6062,-3.6293,-3.6461,-3.6702,-3.6869,-3.6987,-3.6987,-3.6987,-3.645,-3.5277,-3.5013,-3.4499,-3.3636,-3.3908,-3.4377,-3.5042,-3.5155,-3.5329,-2.3488,-2.4312,0.0,-2.4488,-2.3631,0.0,-2.1678,0.0,0.0,0.0,0.0,0.0,0.0,0.0,0.0,0.0,0.0,0.0,0.0,-1.7652,0.0,0.0,0.0,0.0,0.0,0.0,-1.8865,-1.9279,-1.9683,-2.0081,0.0,0.0,-2.5455,-2.5639,-2.8169,-2.9756,-3.0226,-3.0668,-3.1443,-3.2461,-3.3078,-3.3616,-3.4088,-3.412,-3.407,-3.4101,-3.4101,-3.4101,-3.4101,-3.4101,-3.4101,-3.4101,-3.4083,-3.3869,-3.3623,-3.3949,-3.4099,-3.4117,-3.4094,-3.4085,-3.3989,-3.3417,-3.241,-3.145,-3.1145,-3.047,-2.9826,-2.99,-2.958,-2.9675,-3.1762,-3.221,-3.261,-3.4675,-3.5368,-3.561,-3.5867,-3.5915,-3.5905,-3.5951,-3.5954,-3.5831,-3.5531,-3.5497,-3.5448,-3.5301,-3.489,-3.4691,-3.4899,-3.5041,-3.5228,-3.5379,-3.565,-3.5871,-3.6148,-3.6377,-3.6585,-3.6725,-3.6908,-3.6987,-3.6948,-3.7087,-3.6584,-3.5367,-3.5173,-3.4478,-3.3312,-3.4176,-3.48,-3.5192,-3.5889,-3.674]}]]